[[{"header":{"parameterUnit":"m.s-1","parameterCategory":1,"la1":30.6,"la2":29.2853,"lo1":-89.7004,"lo2":-87.6739,"dy":0.0162,"dx":0.0183,"nx":112,"ny":82,"refTime":"2024-05-26T12:00:00:Z","depth":0,"parameterNumber":2,"parameterNumberName":"U-component_of_WINDS"},"data":[0.0,0.0,0.0,0.0,0.0,0.0,0.0,0.0,0.0,0.0,0.0,0.0,0.0,0.0,0.0,0.0,0.0,0.0,0.0,0.0,0.0,0.0,0.0,0.0,0.0,0.0,0.0,0.0,0.0,0.0,0.0,0.0,0.0,0.0,0.0,0.0,0.0,0.0,0.0,0.0,0.0,0.0,0.0,0.0,0.0,0.0,0.0,0.0,0.0,0.0,0.0,0.0,0.0,0.0,0.0,0.0,0.0,0.0,0.0,0.0,0.0,0.0,0.0,0.0,0.0,0.0,0.0,0.0,0.0,0.0,0.0,0.0,0.0,0.0,0.0,0.0,0.0,0.0,0.0,0.0,0.0,0.0,0.0,0.0,0.0,0.0,0.0,0.0,0.0,0.0,-2.2105,-2.463,-2.6282,-2.7322,-2.7612,-2.7982,-2.7441,-2.5609,0.0,0.0,0.0,0.0,0.0,0.0,0.0,0.0,0.0,0.0,0.0,0.0,0.0,0.0,0.0,0.0,0.0,0.0,0.0,0.0,0.0,0.0,0.0,0.0,0.0,0.0,0.0,0.0,0.0,0.0,0.0,0.0,0.0,0.0,0.0,0.0,0.0,0.0,0.0,0.0,0.0,0.0,0.0,0.0,0.0,0.0,0.0,0.0,0.0,0.0,0.0,0.0,0.0,0.0,0.0,0.0,0.0,0.0,0.0,0.0,0.0,0.0,0.0,0.0,0.0,0.0,0.0,0.0,0.0,0.0,0.0,0.0,0.0,0.0,0.0,0.0,0.0,0.0,0.0,0.0,0.0,0.0,0.0,0.0,0.0,0.0,0.0,0.0,0.0,0.0,0.0,0.0,0.0,0.0,0.0,0.0,0.0,0.0,0.0,0.0,0.0,0.0,0.0,0.0,-2.1588,-2.4582,-2.6282,-2.7213,-2.7276,-2.7836,-2.7441,-2.5609,0.0,0.0,0.0,0.0,0.0,0.0,0.0,0.0,0.0,0.0,0.0,0.0,0.0,0.0,0.0,0.0,0.0,0.0,0.0,0.0,0.0,0.0,0.0,0.0,0.0,0.0,0.0,0.0,0.0,0.0,0.0,0.0,0.0,0.0,0.0,0.0,0.0,0.0,0.0,0.0,0.0,0.0,0.0,0.0,0.0,0.0,0.0,0.0,0.0,0.0,0.0,0.0,0.0,0.0,0.0,0.0,0.0,0.0,0.0,0.0,0.0,0.0,0.0,0.0,0.0,0.0,0.0,0.0,0.0,0.0,0.0,0.0,0.0,0.0,0.0,0.0,0.0,0.0,0.0,0.0,0.0,0.0,0.0,0.0,0.0,0.0,0.0,0.0,0.0,0.0,0.0,0.0,0.0,0.0,0.0,0.0,0.0,0.0,0.0,0.0,0.0,0.0,0.0,-2.1415,-2.2939,-2.4713,-2.6106,-2.7005,-2.7181,-2.7642,-2.724,-2.5609,-2.5508,0.0,0.0,0.0,0.0,0.0,0.0,0.0,0.0,0.0,0.0,0.0,0.0,0.0,0.0,0.0,0.0,0.0,0.0,0.0,0.0,0.0,0.0,0.0,0.0,0.0,0.0,0.0,0.0,0.0,0.0,0.0,0.0,0.0,0.0,0.0,0.0,0.0,0.0,0.0,0.0,0.0,0.0,0.0,0.0,0.0,0.0,0.0,0.0,0.0,0.0,0.0,0.0,0.0,0.0,0.0,0.0,0.0,0.0,0.0,0.0,0.0,0.0,0.0,0.0,0.0,0.0,0.0,0.0,0.0,0.0,0.0,0.0,0.0,0.0,0.0,0.0,0.0,0.0,0.0,0.0,0.0,0.0,0.0,0.0,0.0,0.0,0.0,0.0,0.0,0.0,0.0,0.0,0.0,0.0,0.0,0.0,0.0,0.0,0.0,0.0,0.0,0.0,-2.2619,-2.4088,-2.482,-2.5873,-2.6674,-2.7053,-2.7287,-2.6844,-2.5439,-2.5261,0.0,0.0,0.0,0.0,0.0,0.0,0.0,0.0,0.0,0.0,0.0,0.0,0.0,0.0,0.0,0.0,0.0,0.0,0.0,0.0,0.0,0.0,0.0,0.0,0.0,0.0,0.0,0.0,0.0,0.0,0.0,0.0,0.0,0.0,0.0,0.0,0.0,0.0,0.0,0.0,0.0,0.0,0.0,0.0,0.0,0.0,0.0,0.0,0.0,0.0,0.0,0.0,0.0,0.0,0.0,0.0,0.0,0.0,0.0,0.0,0.0,0.0,0.0,0.0,0.0,0.0,0.0,0.0,0.0,0.0,0.0,0.0,0.0,0.0,0.0,0.0,0.0,0.0,0.0,0.0,0.0,0.0,0.0,0.0,0.0,0.0,0.0,0.0,0.0,0.0,0.0,0.0,0.0,0.0,0.0,0.0,0.0,0.0,0.0,0.0,0.0,0.0,-2.2197,-2.3884,-2.4808,-2.5584,-2.623,-2.6708,-2.6647,-2.6103,-2.5,-2.4588,0.0,0.0,0.0,0.0,0.0,0.0,0.0,0.0,0.0,0.0,0.0,0.0,0.0,0.0,0.0,0.0,0.0,0.0,0.0,0.0,0.0,0.0,0.0,0.0,0.0,0.0,0.0,0.0,0.0,0.0,0.0,0.0,0.0,0.0,0.0,0.0,0.0,0.0,0.0,0.0,0.0,0.0,0.0,0.0,0.0,0.0,0.0,0.0,0.0,0.0,0.0,0.0,0.0,0.0,0.0,0.0,0.0,0.0,0.0,0.0,0.0,0.0,0.0,0.0,0.0,0.0,0.0,0.0,0.0,0.0,0.0,0.0,0.0,0.0,0.0,0.0,0.0,0.0,0.0,0.0,0.0,0.0,0.0,0.0,0.0,0.0,0.0,0.0,0.0,0.0,0.0,0.0,0.0,0.0,0.0,0.0,0.0,0.0,0.0,0.0,0.0,0.0,-2.1592,-2.3167,-2.3926,-2.5019,-2.5839,-2.623,-2.6681,-2.6353,-2.4991,0.0,0.0,0.0,0.0,0.0,0.0,0.0,0.0,0.0,0.0,0.0,0.0,0.0,0.0,0.0,0.0,0.0,0.0,0.0,0.0,0.0,0.0,0.0,0.0,0.0,0.0,0.0,0.0,0.0,0.0,0.0,0.0,0.0,0.0,0.0,0.0,0.0,0.0,0.0,0.0,0.0,0.0,0.0,0.0,0.0,0.0,0.0,0.0,0.0,0.0,0.0,0.0,0.0,0.0,0.0,0.0,0.0,0.0,0.0,0.0,0.0,0.0,0.0,0.0,0.0,0.0,0.0,0.0,0.0,0.0,0.0,0.0,0.0,0.0,0.0,0.0,0.0,0.0,0.0,0.0,0.0,0.0,0.0,0.0,0.0,0.0,0.0,0.0,0.0,0.0,0.0,0.0,0.0,0.0,0.0,0.0,0.0,0.0,0.0,0.0,0.0,0.0,-1.9581,-2.1312,-2.2735,-2.3539,-2.4556,-2.5335,-2.5804,-2.6219,-2.5986,-2.4814,0.0,0.0,0.0,0.0,0.0,0.0,0.0,0.0,0.0,0.0,0.0,0.0,0.0,0.0,0.0,0.0,0.0,0.0,0.0,0.0,0.0,0.0,0.0,0.0,0.0,0.0,0.0,0.0,0.0,0.0,0.0,0.0,0.0,0.0,0.0,0.0,0.0,0.0,0.0,0.0,0.0,0.0,0.0,0.0,0.0,0.0,0.0,0.0,0.0,0.0,0.0,0.0,0.0,0.0,0.0,0.0,0.0,0.0,0.0,0.0,0.0,0.0,0.0,0.0,0.0,0.0,0.0,0.0,0.0,0.0,0.0,0.0,0.0,0.0,0.0,0.0,0.0,0.0,0.0,0.0,0.0,0.0,0.0,0.0,0.0,0.0,0.0,0.0,0.0,0.0,0.0,0.0,0.0,0.0,0.0,0.0,0.0,0.0,0.0,0.0,0.0,0.0,-1.9871,-2.1375,-2.2725,-2.3773,-2.4173,-2.4684,-2.5427,-2.5126,-2.4763,0.0,0.0,0.0,0.0,0.0,0.0,0.0,0.0,0.0,0.0,0.0,0.0,0.0,0.0,0.0,0.0,0.0,0.0,0.0,0.0,0.0,0.0,0.0,0.0,0.0,0.0,0.0,0.0,0.0,0.0,0.0,0.0,0.0,0.0,0.0,0.0,0.0,0.0,0.0,0.0,0.0,0.0,0.0,0.0,0.0,0.0,0.0,0.0,0.0,0.0,0.0,0.0,0.0,0.0,0.0,0.0,0.0,0.0,0.0,0.0,0.0,0.0,0.0,0.0,0.0,0.0,0.0,0.0,0.0,0.0,0.0,0.0,0.0,0.0,0.0,0.0,0.0,0.0,0.0,0.0,0.0,0.0,0.0,0.0,0.0,0.0,0.0,0.0,0.0,0.0,0.0,0.0,0.0,0.0,0.0,0.0,0.0,0.0,0.0,0.0,0.0,0.0,0.0,-1.9082,-2.0965,-2.2411,-2.286,-2.3586,-2.4214,-2.4619,-2.5276,-2.5227,-2.4177,0.0,0.0,0.0,0.0,0.0,0.0,0.0,0.0,0.0,0.0,0.0,0.0,0.0,0.0,0.0,0.0,0.0,0.0,0.0,0.0,0.0,0.0,0.0,0.0,0.0,0.0,0.0,0.0,0.0,0.0,0.0,0.0,0.0,0.0,0.0,0.0,0.0,0.0,0.0,0.0,0.0,0.0,0.0,0.0,0.0,0.0,0.0,0.0,0.0,0.0,0.0,0.0,0.0,0.0,0.0,0.0,0.0,0.0,0.0,0.0,0.0,0.0,0.0,0.0,0.0,0.0,0.0,0.0,0.0,0.0,0.0,0.0,0.0,0.0,0.0,0.0,0.0,0.0,0.0,0.0,0.0,0.0,0.0,0.0,0.0,0.0,0.0,0.0,0.0,0.0,0.0,0.0,0.0,0.0,0.0,0.0,0.0,0.0,0.0,0.0,0.0,0.0,-1.8816,-2.0683,-2.2049,-2.2342,-2.3201,-2.3704,-2.3584,-2.4642,-2.478,-2.3521,0.0,0.0,0.0,0.0,0.0,0.0,0.0,0.0,0.0,0.0,0.0,0.0,0.0,0.0,0.0,0.0,0.0,0.0,0.0,0.0,0.0,0.0,0.0,0.0,0.0,0.0,0.0,0.0,0.0,0.0,0.0,0.0,0.0,0.0,0.0,0.0,0.0,0.0,0.0,0.0,0.0,0.0,0.0,0.0,0.0,0.0,0.0,0.0,0.0,0.0,0.0,0.0,0.0,0.0,0.0,0.0,0.0,0.0,0.0,0.0,0.0,0.0,0.0,0.0,0.0,0.0,0.0,0.0,0.0,0.0,0.0,0.0,0.0,0.0,0.0,0.0,0.0,0.0,0.0,0.0,0.0,0.0,0.0,0.0,0.0,0.0,0.0,0.0,0.0,0.0,0.0,0.0,0.0,0.0,0.0,0.0,0.0,0.0,0.0,0.0,0.0,0.0,-1.8899,-2.0516,-2.1663,-2.21,-2.2839,-2.3065,-2.2461,-2.3452,-2.3646,-2.2622,0.0,0.0,0.0,0.0,0.0,0.0,0.0,0.0,0.0,0.0,0.0,0.0,0.0,0.0,0.0,0.0,0.0,0.0,0.0,0.0,0.0,0.0,0.0,0.0,0.0,0.0,0.0,0.0,0.0,0.0,0.0,0.0,0.0,0.0,0.0,0.0,0.0,0.0,0.0,0.0,0.0,0.0,0.0,0.0,0.0,0.0,0.0,0.0,0.0,0.0,0.0,0.0,0.0,0.0,0.0,0.0,0.0,0.0,0.0,0.0,-1.456,-1.4294,0.0,0.0,0.0,0.0,0.0,0.0,0.0,0.0,0.0,0.0,0.0,0.0,0.0,0.0,0.0,0.0,0.0,0.0,0.0,0.0,0.0,0.0,0.0,0.0,0.0,0.0,0.0,0.0,0.0,0.0,0.0,0.0,0.0,0.0,0.0,0.0,0.0,0.0,0.0,0.0,-1.8712,-2.0368,-2.1492,-2.1707,-2.1894,-2.1895,-2.1662,-2.2168,-2.2434,-2.2296,-2.1969,0.0,0.0,0.0,0.0,0.0,0.0,0.0,0.0,0.0,0.0,0.0,0.0,0.0,0.0,0.0,0.0,0.0,0.0,0.0,0.0,0.0,0.0,0.0,0.0,0.0,0.0,0.0,0.0,0.0,0.0,0.0,0.0,0.0,0.0,0.0,0.0,0.0,0.0,0.0,0.0,0.0,0.0,0.0,0.0,0.0,0.0,0.0,0.0,0.0,0.0,0.0,0.0,0.0,0.0,0.0,0.0,0.0,0.0,0.0,-1.4722,-1.4572,0.0,0.0,0.0,0.0,0.0,0.0,0.0,0.0,0.0,0.0,0.0,0.0,0.0,0.0,0.0,0.0,0.0,0.0,0.0,0.0,0.0,0.0,0.0,0.0,0.0,0.0,0.0,0.0,0.0,0.0,0.0,0.0,0.0,0.0,0.0,0.0,0.0,0.0,0.0,0.0,-1.8287,-1.9666,-2.0556,-2.0504,-2.0903,-2.1025,-2.0657,-2.1322,-2.1647,-2.1399,-2.1343,0.0,0.0,0.0,0.0,0.0,0.0,0.0,0.0,0.0,0.0,0.0,0.0,0.0,0.0,0.0,0.0,0.0,0.0,0.0,0.0,0.0,0.0,0.0,0.0,0.0,0.0,0.0,0.0,0.0,0.0,0.0,0.0,0.0,0.0,0.0,0.0,0.0,0.0,0.0,0.0,0.0,0.0,0.0,0.0,0.0,0.0,0.0,0.0,0.0,0.0,0.0,0.0,0.0,-1.4565,-1.4545,-1.4911,-1.4326,-1.4326,-1.4799,-1.4706,-1.4752,-1.4893,-1.4786,0.0,0.0,0.0,0.0,0.0,0.0,0.0,0.0,0.0,0.0,0.0,0.0,0.0,0.0,0.0,0.0,0.0,0.0,0.0,0.0,0.0,0.0,-1.4157,-1.3968,-1.3979,-1.4015,-1.3875,0.0,0.0,0.0,0.0,0.0,0.0,0.0,0.0,0.0,0.0,0.0,-1.7806,-1.8907,-1.9522,-1.9248,-1.9918,-2.0187,-1.9717,-2.0553,-2.0941,-2.0522,-2.0862,-2.0949,0.0,0.0,0.0,0.0,0.0,0.0,0.0,0.0,0.0,0.0,0.0,0.0,0.0,0.0,0.0,0.0,0.0,0.0,0.0,0.0,0.0,0.0,0.0,0.0,0.0,0.0,0.0,0.0,0.0,0.0,0.0,0.0,-1.2898,-1.3313,0.0,0.0,0.0,0.0,0.0,0.0,0.0,0.0,0.0,0.0,0.0,0.0,0.0,-1.5508,-1.5493,-1.5053,-1.5175,-1.5946,-1.5455,-1.5455,-1.5905,-1.5337,-1.5158,-1.5185,-1.4439,0.0,-1.4574,-1.4544,0.0,0.0,0.0,0.0,0.0,0.0,0.0,0.0,0.0,0.0,0.0,0.0,0.0,0.0,0.0,0.0,0.0,0.0,0.0,0.0,0.0,0.0,-1.4642,-1.4712,-1.4877,-1.4896,-1.4469,-1.3848,-1.3328,-1.3173,-1.3103,-1.3116,0.0,0.0,0.0,0.0,0.0,0.0,-1.7557,-1.8606,-1.9164,-1.8887,-1.8992,-1.9113,-1.9265,-1.9411,-1.9788,-2.046,-2.0829,-2.0936,-2.0772,-2.0705,0.0,0.0,0.0,0.0,0.0,0.0,0.0,0.0,0.0,0.0,0.0,0.0,0.0,0.0,0.0,0.0,0.0,0.0,0.0,0.0,0.0,0.0,0.0,0.0,0.0,0.0,0.0,0.0,0.0,-1.3167,-1.3366,-1.3652,-1.3527,-1.3679,0.0,0.0,0.0,0.0,0.0,0.0,0.0,0.0,0.0,-1.5831,-1.5409,-1.5252,-1.5328,-1.4955,-1.4956,-1.5319,-1.51,-1.5092,-1.531,-1.4842,-1.4626,-1.4585,-1.3975,-1.3804,-1.3944,-1.3953,-1.3755,-1.3503,0.0,0.0,0.0,0.0,-1.3299,-1.3205,-1.3627,-1.3766,-1.3729,-1.3615,0.0,0.0,0.0,0.0,0.0,0.0,0.0,-1.3584,-1.4187,-1.4321,-1.433,-1.4478,-1.4449,-1.438,-1.424,-1.4008,-1.376,-1.3616,-1.3705,-1.3765,-1.3755,-1.4052,0.0,0.0,0.0,-1.6911,-1.718,-1.8114,-1.8595,-1.8175,-1.8363,-1.874,-1.9264,-1.9132,-1.9372,-2.0183,-2.0779,-2.1006,-2.0808,-2.0718,-2.0353,0.0,0.0,0.0,0.0,0.0,0.0,0.0,0.0,0.0,0.0,0.0,0.0,0.0,0.0,0.0,0.0,0.0,0.0,0.0,0.0,0.0,0.0,0.0,0.0,0.0,0.0,0.0,0.0,-1.3342,-1.3509,-1.364,-1.3433,-1.35,0.0,0.0,0.0,0.0,0.0,0.0,-1.5595,-1.5357,-1.5287,-1.5554,-1.5035,-1.4931,-1.5265,-1.5019,-1.4939,-1.4975,-1.4975,-1.4975,-1.4966,-1.4547,-1.4397,-1.4355,-1.3873,-1.3667,-1.3693,-1.3655,-1.3546,-1.3422,-1.3554,-1.3286,-1.2896,-1.326,-1.3186,-1.3033,-1.3576,-1.3771,-1.372,-1.3571,-1.3595,-1.3611,-1.3264,0.0,0.0,0.0,0.0,-1.3891,-1.4526,-1.4333,-1.3965,-1.4088,-1.3795,-1.3542,-1.3665,-1.3718,-1.384,-1.4055,-1.4325,-1.4431,-1.4274,-1.4528,0.0,-1.5735,-1.6256,-1.6609,-1.6716,-1.7517,-1.7941,-1.7617,-1.7913,-1.8458,-1.9326,-1.928,-1.9405,-1.997,-2.0713,-2.1039,-2.0811,-2.0729,-2.0509,-2.0122,0.0,0.0,0.0,0.0,0.0,0.0,0.0,0.0,0.0,0.0,0.0,0.0,0.0,0.0,0.0,0.0,0.0,0.0,0.0,0.0,0.0,0.0,0.0,0.0,0.0,0.0,0.0,0.0,0.0,-1.2236,-1.2622,0.0,0.0,0.0,0.0,-1.3565,-1.3394,-1.3445,-1.3811,-1.3645,-1.3801,-1.4353,-1.4345,-1.4696,-1.5469,-1.5477,-1.5558,-1.5745,-1.5745,-1.5745,-1.5737,-1.5326,-1.5146,-1.5095,-1.4455,-1.4173,-1.414,-1.4041,-1.3892,-1.3826,-1.4262,-1.4311,-1.4122,-1.4352,-1.4418,-1.4401,-1.445,-1.4459,-1.4483,-1.4571,-1.4895,-1.5171,-1.5024,-1.4748,0.0,0.0,-1.4605,-1.4262,-1.4615,-1.4271,-1.3826,-1.3826,-1.3275,-1.2748,-1.2748,-1.2562,-1.2903,-1.4608,-1.4942,-1.4991,-1.5119,0.0,-1.4648,-1.5573,-1.5667,-1.5808,-1.6192,-1.678,-1.728,-1.7581,-1.7604,-1.8104,-1.9293,-1.9732,-1.9954,-2.0,-2.0647,-2.0958,-2.0811,-2.1102,-2.0905,-2.0122,-1.9718,0.0,0.0,0.0,0.0,0.0,0.0,0.0,0.0,0.0,0.0,0.0,0.0,0.0,0.0,0.0,0.0,0.0,0.0,0.0,0.0,0.0,0.0,0.0,0.0,0.0,0.0,0.0,0.0,-1.3932,-1.3964,0.0,-1.427,-1.3969,-1.3876,-1.4168,-1.3631,-1.3383,-1.3685,-1.3884,-1.4012,-1.4088,-1.4244,-1.4428,-1.4725,-1.4513,-1.4435,-1.4525,-1.4875,-1.4768,-1.433,-1.4383,-1.4434,-1.4391,-1.3956,-1.4015,-1.4442,-1.4399,-1.4134,-1.3759,-1.3924,-1.3924,-1.3891,-1.3958,-1.3817,-1.361,-1.361,-1.3418,-1.3184,-1.296,-1.2952,-1.2986,-1.2718,-1.2852,-1.3094,-1.2986,-1.3068,-1.3184,-1.3318,-1.3284,-1.3217,-1.3217,-1.3125,-1.3006,-1.3006,-1.2997,-1.3187,-1.3862,-1.3929,-1.4112,-1.4775,-1.4809,-1.4887,-1.5303,-1.537,-1.5509,-1.5943,-1.6426,-1.6863,-1.7304,-1.768,-1.8216,-1.8955,-1.9183,-1.9415,-1.9716,-2.0319,-2.0563,-2.0304,-2.0729,-2.0749,-2.025,-1.9684,-1.9028,0.0,0.0,0.0,0.0,0.0,0.0,0.0,0.0,0.0,0.0,0.0,0.0,0.0,0.0,0.0,0.0,0.0,0.0,0.0,0.0,0.0,0.0,0.0,0.0,0.0,-1.4139,-1.4379,-1.47,-1.4657,-1.4682,-1.4822,-1.4395,-1.4181,-1.4271,-1.364,-1.3381,-1.3508,-1.3661,-1.3784,-1.3925,-1.3999,-1.4122,-1.4302,-1.4086,-1.3941,-1.3905,-1.4186,-1.407,-1.3608,-1.3753,-1.3825,-1.3825,-1.3608,-1.3789,-1.423,-1.423,-1.4002,-1.3668,-1.3916,-1.3984,-1.3984,-1.3737,-1.3454,-1.3206,-1.293,-1.2625,-1.2319,-1.2249,-1.2207,-1.2165,-1.206,-1.2402,-1.2749,-1.2548,-1.2791,-1.311,-1.311,-1.3041,-1.3014,-1.3014,-1.289,-1.2748,-1.2748,-1.2747,-1.2792,-1.3027,-1.3219,-1.3528,-1.4149,-1.4236,-1.4287,-1.449,-1.4632,-1.4914,-1.5555,-1.6016,-1.6602,-1.7424,-1.7676,-1.8106,-1.8871,-1.878,-1.9033,-1.9855,-1.9987,-2.0076,-2.0201,-2.031,-2.0256,-2.0028,-1.997,-1.9823,-1.9574,0.0,0.0,0.0,0.0,0.0,0.0,0.0,0.0,0.0,0.0,0.0,0.0,0.0,0.0,0.0,0.0,0.0,0.0,0.0,0.0,0.0,0.0,0.0,-1.3832,-1.4078,-1.4104,-1.4181,-1.4503,-1.4479,-1.3832,-1.404,-1.4078,-1.3677,-1.3444,-1.3304,-1.3215,-1.2826,-1.2966,-1.3724,-1.3571,-1.3716,-1.423,-1.423,-1.4158,-1.4021,-1.3869,-1.376,-1.3724,-1.3571,-1.3499,-1.3462,-1.3462,-1.3499,-1.3499,-1.3499,-1.3499,-1.3571,-1.431,-1.4569,-1.4489,-1.3753,-1.3499,-1.3353,-1.2556,-1.2157,-1.2077,-1.2673,-1.2856,-1.2929,-1.3317,-1.3571,-1.3724,-1.3724,-1.3869,-1.4021,-1.4021,-1.3593,-1.3156,-1.3156,-1.2525,-1.1919,-1.1919,-1.1657,-1.1587,-1.2228,-1.2889,-1.3343,-1.3386,-1.3029,-1.2819,-1.3148,-1.3487,0.0,-1.4953,-1.5526,-1.6397,-1.7863,-1.7534,-1.7729,-1.902,-1.8628,-1.8922,-2.0352,-1.9599,-1.9567,-2.0557,-1.9905,-1.9541,-1.9571,-2.0625,-2.1553,-2.2286,0.0,0.0,0.0,0.0,0.0,0.0,0.0,0.0,0.0,0.0,0.0,0.0,0.0,0.0,0.0,0.0,0.0,0.0,0.0,0.0,0.0,-1.2027,-1.2053,-1.2442,-1.3431,-1.41,-1.4128,-1.4939,-1.5428,-1.5246,-1.5055,-1.4878,-1.4765,-1.4205,-1.3822,-1.3651,-1.3266,-1.301,-1.2922,-1.2886,-1.2849,-1.2849,-1.2703,-1.2622,-1.2592,-1.2959,-1.2849,-1.2291,-1.2813,-1.3003,-1.2849,-1.2849,-1.3105,-1.3499,-1.3499,-1.3499,-1.3535,-1.3716,-1.3789,-1.3789,-1.3571,-1.3324,-1.3003,-1.2482,-1.2077,-1.1818,-1.1966,-1.1929,-1.1818,-1.1774,-1.1996,-1.2254,-1.2107,-1.2291,-1.2592,-1.2592,-1.2556,-1.2562,-1.2562,-1.2355,-1.2184,-1.2184,-1.1644,-1.1259,-1.1435,-1.161,-1.2075,-1.3196,-1.3275,-1.3253,-1.3344,-1.3116,-1.3365,-1.4457,-1.4427,-1.4865,-1.6368,-1.6736,-1.7147,-1.7702,-1.8308,-1.878,-1.9104,-1.9336,-1.9749,-2.0429,-2.0351,-2.0542,-2.1004,-2.0846,-2.1102,0.0,0.0,0.0,0.0,0.0,0.0,0.0,0.0,0.0,0.0,0.0,0.0,0.0,0.0,0.0,0.0,0.0,0.0,0.0,0.0,0.0,0.0,-1.1684,-1.1614,-1.1546,-1.2718,-1.3669,-1.3842,-1.4435,-1.4848,-1.4848,-1.4911,-1.4867,-1.4697,-1.4625,-1.4446,-1.4165,-1.3695,-1.3331,-1.3105,-1.2856,-1.2636,-1.2415,-1.2305,-1.2224,-1.212,-1.2415,-1.2268,-1.1855,-1.2231,-1.2342,-1.2231,-1.2231,-1.2409,-1.2769,-1.2769,-1.2696,-1.2689,0.0,0.0,0.0,0.0,-1.2586,-1.2003,-1.1855,-1.1595,-1.1335,-1.1521,-1.1484,-1.1409,-1.1372,-1.1558,-1.1781,-1.1669,-1.1892,-1.212,-1.212,-1.1966,-1.1792,-1.17,-1.1638,-1.1539,-1.1159,-1.101,-1.0832,-1.0537,-1.081,0.0,-1.1839,-1.2415,-1.2721,-1.2653,-1.2513,-1.282,-1.393,-1.3913,-1.4403,-1.5911,-1.6368,-1.6821,-1.7352,-1.7821,0.0,0.0,0.0,-1.9816,-2.0705,-2.0809,0.0,0.0,0.0,0.0,0.0,0.0,0.0,0.0,-2.238,-2.1733,0.0,0.0,0.0,0.0,0.0,0.0,0.0,0.0,0.0,0.0,0.0,0.0,0.0,0.0,0.0,0.0,-1.1385,-1.1234,-1.1086,-1.2053,-1.2899,-1.3317,-1.3426,-1.3499,-1.3499,-1.4106,-1.4322,-1.397,-1.4553,-1.4804,-1.4569,-1.4057,0.0,0.0,0.0,-1.2893,-1.2709,-1.2673,-1.2526,-1.2342,-1.215,-1.2077,-1.204,-1.1855,-1.1744,-1.1744,-1.1744,-1.1706,-1.1706,-1.1706,-1.1595,-1.1558,-1.2762,-1.3273,-1.3171,-1.2445,-1.1632,-1.085,-1.1074,0.0,0.0,-1.1298,-1.1446,-1.1484,-1.1632,-1.1781,-1.1892,-1.1855,-1.1929,-1.204,-1.204,-1.1521,-1.0891,-1.0695,-1.0635,-1.0426,-0.9635,-1.0007,-1.0348,-0.9693,-1.0296,-1.0691,-1.0007,-1.0961,-1.1725,-1.155,-1.1696,-1.2213,-1.3291,-1.3699,-1.4433,-1.5891,-1.6187,0.0,-1.7462,-1.7355,-1.8071,-2.0003,-1.9606,-1.9872,-2.1104,-2.1239,-2.1538,-2.2134,-2.2518,-2.3038,-2.3754,-2.3672,-2.3362,-2.2817,-2.0937,-2.0451,0.0,0.0,0.0,0.0,0.0,0.0,0.0,0.0,0.0,0.0,0.0,0.0,0.0,0.0,0.0,-1.1373,-1.133,-1.1369,-1.1555,-1.1771,-1.2084,-1.2475,-1.3098,-1.3499,-1.3499,-1.3637,-1.3673,-1.3608,-1.3433,-1.3586,-1.4078,-1.3753,-1.376,-1.4194,-1.3833,-1.3513,-1.3346,-1.301,-1.2746,-1.2526,-1.2489,0.0,-1.2224,-1.2187,-1.2114,-1.1929,-1.1929,-1.1855,-1.1706,-1.1706,-1.1669,-1.1669,-1.1774,-1.1811,-1.1774,-1.1632,-1.1335,-1.1074,-1.126,-1.1335,-1.1335,-1.1558,-1.1744,-1.1855,-1.1744,-1.1484,0.0,-1.1074,-1.0726,-1.034,-1.034,-1.0233,-1.006,-0.9896,-1.0058,-1.0205,-0.9886,-0.9624,-0.9452,-0.9306,-0.9603,-0.984,-0.9694,-1.0551,-1.1181,-1.1073,-1.0756,-1.1,-1.2303,-1.2797,-1.3394,-1.4344,-1.5545,-1.6358,-1.6567,-1.7484,-1.8163,-1.8379,-1.9402,-2.0283,-2.0854,-2.1401,-2.1736,-2.1885,-2.1964,-2.2067,-2.224,-2.2095,-2.1978,-2.186,-2.1826,-2.1647,0.0,0.0,0.0,0.0,0.0,0.0,0.0,0.0,0.0,0.0,0.0,-1.0982,-1.1243,0.0,-1.1558,-1.1604,-1.1703,-1.1803,-1.1835,-1.1855,-1.1892,-1.2003,-1.2365,-1.2586,-1.2586,-1.2879,-1.3069,-1.3069,-1.3142,-1.3361,-1.3716,-1.3397,-1.3324,-1.3579,-1.3615,-1.3542,-1.3346,-1.3339,-1.3258,-1.3046,-1.2863,-1.2709,-1.2599,-1.2599,-1.2562,-1.2452,-1.2452,-1.2378,-1.2298,-1.2194,-1.1966,-1.1706,-1.1818,-1.1744,-1.1558,-1.1558,-1.1484,-1.1409,-1.1521,-1.1558,-1.1595,-1.1781,-1.1632,-1.1409,-1.1409,-1.0993,-1.0464,-1.0389,-1.0126,-0.9933,-1.0164,-0.99,-0.9585,-0.9464,-0.9556,-0.9487,-0.8824,-0.8845,-0.8891,-0.8512,-0.9065,-0.9483,-0.9087,-0.9763,-1.0462,-1.0809,-1.0736,-1.097,-1.1855,-1.2202,-1.2681,-1.3425,-1.4757,-1.5603,-1.5603,-1.7191,-1.8342,-1.8686,-1.9608,-2.0356,-2.0833,-2.1179,-2.1452,-2.1657,-2.1657,-2.1766,-2.1945,-2.1444,-2.1177,-2.1091,-2.0692,-2.0505,0.0,0.0,0.0,0.0,0.0,0.0,0.0,0.0,-1.0363,-0.9995,-1.0095,-1.0361,-1.0833,-1.1179,-1.1533,-1.1995,-1.2275,-1.2348,-1.2162,-1.2116,-1.2003,-1.1855,-1.1744,-1.1706,-1.1706,-1.215,-1.2415,-1.2415,-1.2842,-1.3164,-1.3317,-1.2996,-1.2856,-1.3003,-1.3251,-1.3324,-1.3119,-1.3397,-1.3404,-1.32,-1.2863,-1.2709,-1.2673,-1.2673,-1.2673,-1.2673,-1.2673,-1.2673,-1.2636,-1.2452,-1.2114,-1.1744,-1.2114,-1.2077,-1.1818,-1.1781,-1.1744,-1.1669,-1.1558,-1.1521,-1.1521,-1.1589,-1.1143,-1.0657,-1.0807,-1.0351,-0.9782,-0.9782,-0.9744,-0.975,-1.0062,-0.9679,-0.9153,-0.907,-0.9031,-0.876,-0.781,-0.809,-0.8384,-0.7779,-0.8533,-0.9057,-0.8382,-0.899,-0.9738,-1.0432,-1.0586,-1.0852,-1.1397,-1.1723,-1.2128,-1.2734,-1.4016,-1.4904,-1.5109,-1.6761,-1.8151,-1.8996,-1.9341,-1.975,-2.0248,-2.0384,-2.0594,-2.0922,-2.1043,-2.1245,-2.1571,-2.0832,-2.0383,-2.0118,-1.8955,-1.8797,-1.0548,-1.0053,-0.9328,-0.8988,-0.8706,-0.8394,0.0,0.0,-0.8449,-0.8243,-0.8192,-0.8619,-0.9967,-1.0425,-1.1092,-1.2485,-1.2717,-1.2737,-1.2699,-1.2465,-1.2261,-1.2224,-1.1929,-1.1706,-1.1706,-1.1744,-1.1781,-1.1781,-1.1706,-1.1966,-1.2673,-1.2489,-1.2703,-1.3426,-1.3149,-1.2966,-1.2936,-1.2629,-1.2372,-1.215,-1.2114,-1.2003,-1.1818,-1.1818,-1.1818,-1.1818,-1.1818,-1.1818,-1.1818,-1.1632,-1.1595,-1.1706,-1.1966,-1.2114,-1.2224,-1.204,-1.1855,-1.1632,-1.1074,-1.0887,-1.0807,-1.0314,-1.0083,-1.0008,-1.0045,-0.9712,-0.9372,-0.9372,-0.9112,-0.8851,-0.8889,-0.8851,-0.867,-0.8322,-0.8433,-0.8528,-0.805,-0.7774,-0.7625,-0.7527,-0.7774,-0.7966,-0.7898,-0.8647,-0.9314,-0.9513,-0.9279,-0.9436,-1.05,-1.1178,-1.171,-1.2073,-1.3528,-1.4846,-1.5813,-1.6425,-1.6972,-1.744,-1.7432,-1.7615,-1.8029,-1.8571,-1.8871,-1.8921,-1.9394,-1.9668,-1.9708,-1.9462,-1.9109,-1.8543,-1.7743,-1.7825,-0.9032,-0.8807,-0.8484,-0.8294,-0.8129,-0.803,-0.8009,-0.8195,-0.8349,-0.8173,-0.8276,-0.8607,-0.9415,-0.9806,-1.0258,-1.1089,-1.1633,-1.1998,-1.1998,-1.2185,-1.2365,-1.2576,-1.2446,-1.2267,-1.2059,-1.1929,-1.1855,-1.1855,-1.1706,-1.1706,-1.2077,-1.2003,-1.2114,-1.2439,-1.2636,-1.2716,-1.2716,-1.2673,-1.2599,-1.2526,-1.2298,-1.212,-1.204,-1.204,-1.204,-1.204,-1.204,-1.1855,-1.1558,-1.1818,-1.1706,-1.1409,-1.1818,-1.1966,-1.1966,-1.2003,-1.1966,-1.1781,-1.1186,-1.0962,-1.0925,-1.0694,-1.0282,-0.9911,-0.9911,-0.9453,-0.8965,-0.8965,-0.8813,-0.8742,-0.8975,-0.9127,-0.9198,-0.9171,-0.9207,-0.909,-0.8379,-0.8007,-0.7652,-0.7223,-0.7354,-0.7496,-0.7496,-0.7839,-0.8068,-0.8024,-0.8735,-0.939,-0.9753,-1.0275,-1.0954,-1.1779,-1.2496,-1.3442,-1.4837,-1.5429,-1.593,-1.6355,-1.6657,-1.689,-1.7043,-1.7184,-1.7362,-1.7619,-1.7603,-1.7851,-1.8355,-1.7786,-1.7308,-1.6937,-1.6203,-1.585,-0.807,-0.7889,-0.7678,-0.7626,-0.751,-0.7412,-0.7548,-0.776,-0.7864,-0.7757,-0.7916,-0.8223,-0.8758,-0.9167,-0.9562,-1.0131,-1.0798,-1.1242,-1.1242,-1.1761,-1.2246,-1.2492,-1.275,-1.2831,-1.2572,-1.2359,-1.2234,-1.2319,-1.1989,-1.1813,-1.1933,-1.1788,-1.1706,-1.1706,-1.2114,-1.2342,-1.2342,-1.2489,-1.2562,-1.2562,-1.2268,-1.212,-1.212,-1.212,-1.212,-1.212,-1.212,-1.1892,-1.1521,-1.1818,-1.1669,-1.1223,-1.1669,-1.1781,-1.1706,-1.1781,-1.1855,-1.1818,-1.1149,-1.0925,-1.0887,-1.0694,-1.0212,-0.9728,-0.9728,-0.9425,-0.9046,-0.9046,-0.9117,-0.9193,-0.9279,-0.9582,-0.975,-0.9369,-0.9437,-0.9303,-0.8274,-0.775,-0.7292,-0.6745,-0.6781,-0.6912,-0.6912,-0.7047,-0.7081,-0.6937,-0.7937,-0.8772,-0.8964,-0.9576,-1.0332,-1.1205,-1.1609,-1.2281,-1.3451,-1.4186,-1.4757,-1.509,-1.5465,-1.5672,-1.5672,-1.556,-1.567,-1.6042,-1.5787,-1.5993,-1.6714,-1.6091,-1.5619,-1.5273,-1.4749,-1.4147,-0.8196,-0.7575,-0.6941,-0.6926,-0.6488,-0.6054,-0.6057,-0.6218,-0.637,-0.637,-0.6374,-0.6726,-0.7818,-0.8483,-0.9206,-1.032,-1.0736,-1.0914,-1.0914,-1.1444,-1.181,-1.1822,-1.2632,-1.3193,-1.3186,-1.2945,-1.2898,-1.316,-1.2443,-1.2127,-1.2445,-1.1972,-1.1706,-1.1706,-1.1706,-1.1744,-1.1744,-1.1744,-1.1744,-1.1744,-1.1706,-1.1706,-1.1706,-1.1706,-1.1706,-1.1706,-1.1706,-1.1706,-1.1669,-1.1298,-1.1223,-1.1409,-1.1409,-1.1521,-1.1669,-1.1484,-1.1558,-1.1595,-1.0812,-1.0513,-1.04,-0.9604,-0.9334,-0.9301,-0.9301,-0.9571,-0.9884,-0.9884,-1.0143,-1.0288,-0.949,-0.9868,-1.0039,-0.8213,-0.8419,-0.8702,-0.7479,-0.6668,-0.6105,-0.5951,-0.5925,-0.5929,-0.5929,-0.6387,-0.6716,-0.6716,-0.6576,-0.6924,-0.8081,-0.927,-1.0015,-1.0047,-1.1111,-1.1834,-1.1865,-1.2795,-1.3359,-1.3359,-1.3339,-1.3285,-1.3285,-1.3415,-1.3624,-1.3894,-1.3942,-1.4156,-1.4506,-1.4468,-1.4123,-1.3472,-1.3451,-1.3127,-0.669,-0.6483,-0.6371,-0.6317,-0.6141,-0.602,-0.6159,-0.6262,-0.63,-0.63,-0.6412,-0.6652,-0.7121,-0.7691,-0.8238,-0.8712,-0.9466,-0.9976,-0.9976,-1.0475,-1.0948,-1.1166,-1.201,-1.2663,-1.2843,-1.298,-1.3093,-1.32,-1.2941,-1.2782,-1.2714,-1.2538,-1.2318,-1.212,-1.1966,-1.1892,-1.1892,-1.1781,-1.1706,-1.1706,-1.1706,-1.1706,-1.1706,-1.1706,-1.1706,-1.1706,-1.1706,-1.1706,-1.1706,-1.1558,-1.1558,-1.1595,-1.1595,-1.1632,-1.1669,-1.1484,-1.1446,-1.1409,-1.0738,-1.0513,-1.0475,-1.0175,-1.0099,-1.0099,-1.0099,-1.0175,-1.0293,-1.0293,-1.04,-1.0443,-1.0175,-1.04,-1.0415,-0.9238,-0.9148,-0.8923,-0.7394,-0.6718,-0.6245,-0.5689,-0.5561,-0.5524,-0.5388,-0.5517,-0.555,-0.5352,-0.6338,-0.7288,-0.7674,-0.849,-0.9145,-0.9486,-0.9901,-1.0275,-1.0584,-1.164,-1.2297,-1.2297,-1.2915,-1.3275,-1.3275,-1.3189,-1.3143,-1.3131,-1.2885,-1.2663,-1.2471,-1.2218,-1.1647,-1.0819,-1.0819,-1.0456,-0.6026,-0.6025,-0.6072,-0.6112,-0.6112,-0.6139,-0.6276,-0.63,-0.63,-0.63,-0.6451,-0.6652,-0.6773,-0.7244,-0.7675,-0.7874,-0.8543,-0.9074,-0.915,-0.9793,-1.0293,-1.0535,-1.1354,-1.2139,-1.2644,-1.2901,-1.3149,-1.348,-1.3227,-1.3006,-1.2958,-1.2744,-1.2536,-1.2311,-1.215,-1.2114,-1.2114,-1.1966,-1.1892,-1.1892,-1.1892,-1.1892,-1.1892,-1.1892,-1.1892,-1.1892,-1.1892,-1.1892,-1.1892,-1.1855,-1.1818,-1.1781,-1.1744,-1.1706,-1.1669,-1.1558,-1.1521,-1.1446,-1.0887,-1.07,-1.07,-1.07,-1.07,-1.07,-1.07,-1.07,-1.07,-1.07,-1.07,-1.0663,-1.0368,-1.0368,-1.0212,-0.9107,-0.8815,-0.8397,-0.6961,-0.652,-0.6169,-0.5511,-0.5373,-0.5286,-0.5033,-0.4957,-0.484,-0.4585,-0.5778,-0.6728,-0.6728,-0.7554,-0.8279,-0.8624,-0.9043,-0.9428,-0.9741,-1.0609,-1.1173,-1.1173,-1.1764,-1.2104,-1.2104,-1.1836,-1.1645,-1.1547,-1.1118,-1.0732,-1.0425,-1.0177,-0.9725,-0.9143,-0.8945,-0.8726,-0.6203,-0.6142,-0.6078,-0.6262,-0.63,-0.63,-0.63,-0.63,-0.63,-0.63,-0.6458,-0.6656,0.0,-0.7162,-0.7558,-0.7843,-0.8122,-0.8365,-0.8588,-0.9301,-0.9816,-0.9816,-1.0679,-1.1585,-1.2491,-1.2619,-1.3088,-1.3955,-1.328,-1.2951,-1.32,-1.2645,-1.2318,-1.2305,-1.2305,-1.2305,-1.2305,-1.2305,-1.2305,-1.2305,-1.2305,-1.2305,-1.2305,-1.2305,-1.2305,-1.2305,-1.2305,-1.2305,-1.2298,-1.2077,-1.2003,-1.2003,-1.1818,-1.1744,-1.1744,-1.1706,-1.1706,-1.1669,-1.126,-1.1111,-1.1111,-1.1111,-1.1111,-1.1111,-1.1111,-1.1111,-1.1111,-1.1111,-1.1111,-1.0925,-1.0143,-0.9922,-0.9501,-0.794,-0.7522,-0.7206,-0.6211,-0.5993,-0.5865,-0.5396,-0.5265,-0.5148,-0.4852,-0.4667,-0.4577,-0.4522,-0.4944,-0.5286,-0.5319,-0.6568,-0.7456,-0.7456,-0.8463,-0.9172,-0.921,-0.964,-0.992,-0.9958,-0.999,-0.9983,-0.9983,-0.9581,-0.9321,-0.9268,-0.8845,-0.8557,-0.8393,-0.8388,-0.8388,-0.8291,-0.779,-0.7822,-0.6081,-0.6149,-0.6248,-0.6289,-0.63,-0.63,-0.63,-0.63,-0.63,-0.63,-0.6656,-0.6946,-0.6908,-0.7514,-0.8054,-0.7968,-0.8274,-0.8559,-0.8604,-0.8784,0.0,-0.8911,0.0,-1.0332,-1.0593,-1.1886,-1.279,-1.3045,-1.3251,-1.3353,-1.322,-1.2846,-1.2569,-1.2311,-1.2305,-1.2305,-1.2305,-1.2305,-1.2305,-1.2305,-1.2305,-1.2305,-1.2305,-1.2305,-1.2305,-1.2305,-1.2305,-1.2305,-1.2305,-1.2224,-1.2231,-1.2231,-1.215,-1.215,-1.212,-1.1966,-1.1929,-1.1892,-1.1632,-1.1446,-1.1335,-1.1335,-1.1223,-1.1111,-1.1111,-1.1111,-1.1111,-1.1111,-1.1111,-1.1037,-1.085,-1.0368,-0.9652,-0.8627,-0.794,-0.7206,-0.6211,-0.5993,-0.5865,-0.5396,-0.5015,-0.4767,-0.4667,-0.4569,-0.4502,-0.4501,-0.4614,-0.49,-0.5375,-0.6181,-0.6695,-0.6695,-0.6953,-0.7349,-0.7912,-0.8382,-0.8892,-0.946,-0.9799,-0.9983,-0.9983,-0.9888,-0.9503,-0.8871,-0.9044,-0.8324,-0.6711,-0.7009,-0.6687,-0.5734,-0.5599,-0.5599,-0.6149,-0.6196,-0.63,-0.63,-0.63,-0.6282,-0.6176,-0.6235,-0.6291,-0.6225,-0.6634,-0.6984,-0.6927,-0.7403,-0.7833,-0.7843,-0.8064,0.0,-0.8408,-0.852,-0.8612,0.0,-0.9043,0.0,-0.9859,-1.1241,-1.2225,-1.25,-1.3076,-1.3347,-1.322,-1.2792,-1.2546,-1.2415,-1.2342,-1.2342,-1.2415,-1.2526,-1.2562,-1.2562,-1.2562,-1.2562,-1.2562,-1.2489,-1.2489,-1.2562,-1.2378,-1.2342,-1.2415,-1.2342,-1.2305,-1.2305,-1.2305,-1.2305,-1.2298,-1.215,-1.212,-1.2114,-1.2003,-1.1818,-1.1632,-1.1558,-1.1446,-1.1372,-1.1372,-1.1298,-1.1223,-1.1223,-1.1186,-1.1111,-1.1111,-1.025,-0.9273,-0.8813,-0.7825,-0.6808,-0.6263,-0.6132,-0.5966,-0.5493,-0.4993,-0.4679,-0.4633,-0.46,-0.4472,-0.4144,-0.4325,-0.4523,-0.4569,-0.5372,-0.5903,-0.5903,-0.6203,-0.6564,-0.6994,-0.7242,-0.76,-0.7994,-0.828,-0.8436,-0.8436,-0.8436,-0.8113,-0.7497,-0.7697,-0.7111,-0.5672,-0.5903,-0.5573,-0.4782,-0.4553,-0.4586,-0.6262,-0.63,-0.63,-0.63,-0.63,-0.6259,-0.6064,-0.6172,-0.6279,-0.6162,-0.6562,-0.6947,-0.6919,-0.7137,-0.7387,-0.7644,0.0,-0.788,-0.8154,-0.8428,-0.8612,-0.8612,-0.8612,-0.8915,-0.9646,-1.0679,-1.1529,-1.2082,-1.2804,-1.3193,-1.3153,-1.265,-1.2415,-1.2636,-1.2489,-1.2452,-1.2636,-1.2826,-1.29,-1.29,-1.29,-1.29,-1.29,-1.2709,-1.2746,-1.2863,-1.2526,-1.2489,-1.2636,-1.2452,-1.2378,-1.2342,-1.2342,-1.2335,-1.2305,-1.2305,-1.2305,-1.2305,-1.2305,-1.2194,-1.2003,-1.1818,-1.1706,-1.1706,-1.1706,-1.1595,-1.1446,-1.1446,-1.1298,-1.1111,-1.1037,-0.9868,-0.8661,-0.8585,-0.7407,-0.63,-0.63,-0.623,-0.6039,-0.5581,-0.5105,-0.4803,-0.4763,-0.4662,-0.443,-0.3898,-0.4058,-0.4036,-0.3479,-0.4362,-0.5044,-0.5147,-0.5639,-0.6067,-0.6231,-0.6268,-0.6297,-0.64,-0.64,-0.64,-0.64,-0.64,-0.6203,-0.5837,-0.587,-0.5576,-0.4921,-0.4987,-0.4851,-0.4583,-0.4125,-0.4156,-0.6293,-0.63,-0.63,-0.63,-0.63,-0.6297,-0.6248,-0.6284,0.0,-0.6262,-0.673,-0.7091,-0.6943,-0.7446,-0.7821,-0.772,-0.7979,-0.8184,-0.8217,-0.8428,-0.8612,0.0,-0.8612,-0.8652,-0.8828,-1.0337,-1.1273,-1.116,-1.2435,-1.31,-1.2878,-1.2686,-1.2636,-1.2826,-1.2826,-1.2826,-1.2863,-1.2863,-1.29,-1.29,-1.29,-1.29,-1.29,-1.2856,-1.2863,-1.29,-1.282,-1.2826,-1.2863,-1.2826,-1.2709,-1.2562,-1.2562,-1.2452,-1.2305,-1.2305,-1.2305,-1.2305,-1.2305,-1.2268,-1.2224,-1.2003,-1.1855,-1.1706,-1.1706,-1.1669,-1.1632,-1.1632,-1.1484,-1.1223,-1.0738,-0.9647,-0.8589,-0.8089,-0.7099,-0.63,-0.63,-0.5952,-0.5581,-0.5374,-0.5039,-0.4837,-0.5002,-0.4518,-0.4268,-0.4769,-0.3754,-0.3076,-0.3525,-0.3572,-0.3785,-0.4395,-0.4054,-0.4212,-0.5408,-0.5507,-0.5738,-0.6367,-0.64,-0.64,-0.64,-0.64,-0.61,-0.5408,-0.5738,-0.5279,-0.4025,-0.4289,-0.4123,-0.3458,-0.3393,-0.3393,-0.63,-0.63,-0.63,-0.63,-0.63,-0.6276,-0.6224,0.0,0.0,-0.6712,-0.7269,-0.7805,-0.8065,-0.8491,0.0,-0.8256,-0.8711,-0.9041,-0.8798,-0.9357,-0.9871,-0.9975,-0.999,-0.999,-0.999,-1.1241,-1.1855,-1.1396,-1.2515,-1.3073,-1.2804,-1.2689,-1.2636,-1.2746,-1.2936,-1.3046,-1.3046,-1.3156,-1.32,-1.32,-1.32,-1.32,-1.32,-1.3083,-1.3119,-1.3193,-1.2863,-1.2783,-1.2863,-1.2673,-1.2526,-1.2452,-1.2452,-1.2378,-1.2305,-1.2305,-1.2305,-1.2305,-1.2305,-1.2305,-1.2268,-1.2194,-1.2077,-1.2003,-1.2003,-1.1929,-1.1855,-1.1855,-1.1409,-1.085,-1.0588,-0.9377,-0.8165,-0.7859,-0.6954,-0.6162,-0.6282,-0.5946,-0.5639,-0.557,-0.5427,-0.5335,-0.5297,-0.5062,-0.4649,-0.3988,-0.3542,-0.3038,-0.2393,-0.2203,-0.2382,-0.3088,-0.285,-0.3049,-0.4112,-0.4212,-0.4514,-0.5253,-0.5319,-0.5319,-0.5319,-0.5319,-0.5153,-0.4788,-0.4954,-0.4655,-0.3792,-0.3956,-0.3756,-0.3192,-0.3192,-0.3023,-0.6374,-0.6377,-0.6335,-0.63,-0.63,-0.6294,-0.6382,-0.6444,0.0,-0.7362,-0.802,-0.8609,-0.9101,-0.9473,-0.9552,0.0,-0.9542,-0.9967,-0.9714,-1.0415,-1.1096,-1.137,-1.1354,0.0,-1.1284,-1.2143,-1.2439,-1.183,-1.2569,-1.2945,-1.2779,-1.2692,-1.2673,-1.2716,-1.3083,-1.3273,-1.3273,-1.3419,-1.3492,-1.3492,-1.3492,-1.3492,-1.3492,-1.3346,-1.3346,-1.3419,-1.2973,-1.2856,-1.2936,-1.2636,-1.2489,-1.2415,-1.2378,-1.2342,-1.2305,-1.2305,-1.2305,-1.2305,-1.2305,-1.2305,-1.2305,-1.2305,-1.2305,-1.2305,-1.2305,-1.2157,-1.2003,-1.2003,-1.1223,-1.0406,-1.0288,-0.8998,-0.7706,-0.7518,-0.6768,-0.6101,-0.6231,-0.6023,-0.583,-0.5769,-0.5779,-0.5767,-0.5591,-0.5521,-0.5018,-0.3606,-0.3444,-0.2956,-0.1593,-0.1099,-0.1076,-0.1578,-0.1779,-0.2179,-0.2915,-0.3115,-0.3453,-0.4028,-0.4197,-0.43,-0.43,-0.43,-0.43,-0.43,-0.43,-0.4131,-0.3792,-0.3656,-0.3357,-0.2989,-0.2822,-0.2452,-0.6637,-0.6563,-0.6525,-0.6335,-0.63,-0.6481,-0.7125,0.0,-0.7495,-0.8222,-0.89,-0.934,-0.9241,-0.9728,-1.0046,-0.9751,0.0,-1.0612,-1.0819,-1.1069,-1.1381,-1.1706,0.0,0.0,-1.1284,-1.2143,-1.2439,-1.183,-1.2152,-1.2446,-1.261,-1.2767,-1.2973,-1.3119,-1.3346,-1.3455,-1.3455,-1.3492,-1.3492,-1.3492,-1.3492,-1.3492,-1.3492,-1.3499,-1.3382,-1.3236,-1.3346,-1.3309,-1.3156,-1.3119,-1.301,-1.282,-1.2636,-1.2452,-1.2305,-1.2305,-1.2305,-1.2305,-1.2305,-1.2305,-1.2305,-1.2305,-1.2305,-1.2305,-1.2305,-1.2157,-1.2003,-1.2003,-1.1149,-1.0105,-0.9566,-0.8466,-0.733,-0.6606,-0.6363,-0.6245,-0.6078,-0.599,-0.5892,-0.5661,-0.5715,-0.58,-0.5767,-0.5295,-0.4973,-0.5289,-0.3485,-0.2143,-0.2358,-0.1042,-0.0135,-0.0202,-0.0807,-0.1478,-0.2147,-0.2815,-0.3215,-0.3284,-0.3928,-0.43,-0.43,-0.43,-0.43,-0.43,-0.43,-0.4131,-0.3792,-0.3121,-0.2618,-0.2281,-0.1612,-0.1244,-0.6915,-0.6676,-0.6602,-0.6637,-0.6786,-0.7058,-0.7561,-0.7962,-0.8468,-0.9493,-0.9982,-1.0432,-1.1055,-1.1324,-1.1322,-1.0828,-1.1347,-1.1701,-1.1353,-1.2211,-1.2883,-1.2868,-1.3071,-1.3219,-1.3173,-1.3385,-1.3442,-1.3157,-1.3022,-1.2985,-1.306,-1.285,-1.2863,-1.3193,-1.3273,-1.3382,-1.3492,-1.3492,-1.3492,-1.3492,-1.3492,-1.3492,-1.3492,-1.3492,-1.3455,-1.3382,-1.3346,-1.3273,-1.32,-1.2936,-1.279,-1.2709,-1.2489,-1.2378,-1.2305,-1.2305,-1.2305,-1.2305,-1.2305,-1.2305,-1.2305,-1.2305,-1.2305,-1.2305,-1.2305,-1.2157,-1.2003,-1.2003,-1.1223,-1.0212,-0.9485,-0.8122,-0.6834,-0.6412,-0.619,-0.6132,-0.6162,-0.6095,-0.5956,-0.5878,-0.5976,-0.6047,-0.5956,-0.5801,-0.5539,-0.5129,-0.3678,-0.2456,-0.2028,-0.0827,0.0,0.0,-0.0269,-0.0875,-0.2013,-0.2013,-0.2482,-0.3792,-0.3723,-0.3825,-0.4267,-0.43,-0.43,-0.43,-0.43,-0.393,-0.3121,-0.2854,-0.2316,-0.1511,-0.0772,-0.0201,-0.7806,-0.7584,-0.7514,-0.7587,-0.7739,-0.7979,-0.8462,-0.8859,-0.9426,-1.0573,-1.1007,-1.1441,-1.2347,-1.2545,-1.2415,-1.1929,-1.2371,-1.2705,-1.2464,-1.3413,-1.42,-1.434,-1.4584,-1.4688,-1.464,-1.4342,-1.4152,-1.4089,-1.3673,-1.3438,-1.3483,-1.3031,-1.29,-1.3193,-1.3273,-1.3346,-1.3492,-1.3492,-1.3492,-1.3492,-1.3492,-1.3492,-1.3492,-1.3492,-1.3455,-1.3419,-1.3309,-1.3236,-1.32,-1.29,-1.2783,-1.2746,-1.2489,-1.2378,-1.2378,-1.2335,-1.2305,-1.2305,-1.2305,-1.2305,-1.2305,-1.2305,-1.2305,-1.2305,-1.2305,-1.2114,-1.1892,-1.1892,-1.1149,-1.0062,-0.9036,-0.7821,-0.683,-0.6683,-0.6367,-0.6204,-0.658,-0.6363,-0.6084,-0.6,-0.6156,-0.6248,-0.602,-0.6159,-0.6011,-0.5139,-0.4093,-0.3058,-0.2031,-0.0991,-0.0236,-0.0034,0.0,-0.0404,-0.1411,-0.1243,-0.1813,-0.3525,-0.3353,-0.342,-0.3961,-0.3961,-0.3861,-0.3658,-0.3658,-0.3222,-0.2383,-0.2149,-0.1612,-0.0739,0.0201,0.1043,-0.9534,-0.9458,-0.9518,-0.9334,-0.9188,-0.9274,-0.9997,-1.0079,-1.0263,-1.1278,-1.19,-1.2321,-1.2459,-1.2877,-1.3119,-1.2936,-1.3114,-1.3592,-1.4552,-1.4685,-1.5077,-1.6046,-1.5574,-1.5203,-1.5196,-1.4643,-1.4286,-1.4286,-1.3751,-1.3483,-1.3672,-1.3372,-1.32,-1.32,-1.3382,-1.3492,-1.3492,-1.3492,-1.3492,-1.3492,-1.3492,-1.3492,-1.3492,-1.3492,-1.3382,-1.32,-1.3419,-1.3382,-1.32,-1.32,-1.3193,-1.3163,-1.2746,-1.2599,-1.2562,-1.2378,-1.2305,-1.2305,-1.2305,-1.2305,-1.2305,-1.2305,-1.2305,-1.2305,-1.2305,-1.2003,-1.1706,-1.1706,-1.085,-0.9539,-0.794,-0.7522,-0.7484,-0.7484,-0.6872,-0.6525,-0.733,-0.6872,-0.6252,-0.6023,-0.6156,-0.6248,-0.602,-0.6159,-0.6168,-0.5744,-0.4831,-0.381,-0.2729,-0.1707,-0.0807,-0.0067,0.0,0.0,-0.0034,-0.0673,-0.1377,-0.2079,-0.2815,-0.3215,-0.3215,-0.3215,-0.2882,-0.2147,-0.2114,-0.1945,-0.1609,-0.0873,-0.0336,0.0034,0.1442,0.2552,-1.0459,-0.982,-0.9333,-0.9405,-0.9572,-0.9843,-1.0312,-1.0837,-1.1398,-1.2054,-1.2382,-1.2705,-1.31,-1.3092,-1.3188,-1.3696,-1.3853,-1.4126,-1.4684,-1.505,-1.5262,-1.5218,-1.5184,-1.5064,-1.4888,-1.497,-1.4981,-1.4856,-1.4439,-1.4195,-1.4234,-1.3717,-1.3419,-1.3419,-1.3455,-1.3492,-1.3492,-1.3492,-1.3492,-1.3492,-1.3492,-1.3492,-1.3492,-1.3492,-1.3455,-1.3419,-1.3455,-1.3455,-1.3382,-1.3273,-1.32,-1.3156,-1.29,-1.2709,-1.2599,-1.2526,-1.2415,-1.2305,-1.2305,-1.2305,-1.2305,-1.2305,-1.2305,-1.2305,-1.2305,-1.2114,-1.1892,-1.1744,-1.0925,-0.9992,-0.9496,-0.8851,-0.8318,-0.8318,-0.8131,-0.7863,-0.7557,-0.7292,-0.693,-0.6311,-0.6265,-0.6282,-0.6235,-0.6269,-0.6207,-0.5938,-0.4941,-0.3846,-0.294,-0.1809,-0.0807,-0.0067,0.0,-0.0202,-0.0706,-0.0505,-0.0841,-0.2013,-0.1879,-0.198,-0.2414,-0.2447,-0.2347,-0.2114,-0.2114,-0.1677,-0.0839,-0.0168,0.1138,0.2945,0.3382,0.4079,0.0,-1.1672,-1.1139,-1.1275,-1.1302,-1.1328,-1.1537,-1.1765,-1.2049,-1.2598,-1.2645,-1.2782,-1.3375,-1.3309,-1.3292,-1.3843,-1.3947,-1.4129,-1.4762,-1.5075,-1.526,-1.5219,-1.5311,-1.5303,-1.5006,-1.5215,-1.5296,-1.5042,-1.4685,-1.4452,-1.4328,-1.3784,-1.3492,-1.3492,-1.3492,-1.3492,-1.3492,-1.3492,-1.3492,-1.3492,-1.3492,-1.3492,-1.3492,-1.3492,-1.3492,-1.3492,-1.3492,-1.3492,0.0,-1.3346,-1.3309,-1.3309,-1.3083,-1.2936,-1.2826,-1.2746,-1.2636,-1.2526,-1.2452,-1.2415,-1.2415,-1.2335,-1.2305,-1.2305,-1.2305,-1.2157,-1.1966,-1.1744,-1.126,-1.0663,-1.0293,-0.9722,-0.9236,-0.916,-0.8927,-0.8661,-0.8432,-0.794,-0.7369,-0.6834,-0.649,-0.63,-0.63,-0.6252,-0.6122,-0.5966,-0.4942,-0.3897,-0.3,-0.1899,-0.0908,-0.0202,-0.0034,-0.0202,-0.0639,-0.0269,-0.0505,-0.1644,-0.1344,-0.1276,-0.1712,-0.1712,-0.1578,-0.131,-0.104,-0.0537,0.0168,0.1039,0.2444,0.4287,0.4287,0.4787,0.0,-1.4593,-1.4325,-1.4325,-1.3855,-1.3441,-1.3441,-1.2813,0.0,-1.2928,-1.2811,-1.278,-1.3382,-1.3492,-1.3514,-1.3558,-1.3565,-1.3894,-1.4805,-1.4936,-1.5163,-1.5811,-1.5862,-1.5731,-1.5382,-1.533,-1.5233,-1.4926,-1.4651,-1.4374,-1.411,-1.3748,-1.3528,-1.3528,-1.3492,-1.3492,-1.3492,-1.3492,-1.3492,-1.3492,-1.3492,-1.3492,-1.3492,-1.3492,-1.3492,-1.3492,-1.3492,-1.3492,-1.3492,-1.3492,-1.3492,-1.3492,-1.3346,-1.3302,-1.3266,-1.3112,-1.3076,-1.3039,-1.2783,-1.2709,-1.2673,-1.2409,-1.2342,-1.2372,-1.2335,-1.215,-1.1966,-1.1781,-1.1744,-1.1521,-1.0556,-1.0331,-1.0255,-1.0067,-0.9425,-0.9041,-0.9765,-0.8661,-0.7557,-0.7522,-0.6834,-0.63,-0.63,-0.6132,-0.5939,-0.5823,-0.493,-0.3973,-0.3092,-0.2047,-0.111,-0.0438,-0.0135,0.0,0.0,0.0,-0.0303,-0.0975,-0.1008,-0.1008,-0.1008,-0.0975,-0.0639,0.0,0.074,0.121,0.1412,0.2519,0.3522,0.4386,0.4398,0.494,-1.7479,0.0,-1.4387,-1.4387,-1.4121,-1.3857,0.0,-1.3768,-1.3672,-1.3547,0.0,-1.3631,-1.3527,-1.3492,-1.366,-1.4196,-1.4238,-1.4487,-1.5177,-1.5272,-1.533,-1.5484,-1.5279,-1.5097,-1.5024,-1.4838,-1.4774,-1.4952,-1.4675,-1.4607,-1.4838,-1.4285,-1.3956,-1.3956,-1.3674,-1.3492,-1.3492,-1.3492,-1.3492,-1.3492,-1.3492,-1.3492,-1.3492,-1.3492,-1.3492,-1.3492,-1.3492,-1.3492,-1.3492,-1.3492,-1.3492,-1.3564,-1.4086,-1.4186,-1.4122,-1.4681,-1.478,-1.4557,-1.3897,-1.368,-1.3535,-1.2783,-1.2849,-1.3098,-1.2482,-1.2268,-1.2231,-1.215,-1.204,-1.1892,-1.1632,-1.1335,-1.1111,-1.1074,-1.0775,-1.0438,-0.9992,-0.9122,-0.8246,-0.7633,-0.6834,-0.63,-0.63,-0.6132,-0.5939,-0.5823,-0.5358,-0.4731,-0.3863,-0.2815,-0.1879,-0.1141,-0.0437,0.0,0.0,0.0,-0.0067,-0.0236,-0.0269,-0.0269,-0.0269,0.0269,0.0404,0.0,0.0841,0.1612,0.2379,0.332,0.4225,0.513,0.524,0.5801,-1.8989,-1.7545,-1.6008,-1.5871,-1.5555,-1.5267,-1.5097,0.0,0.0,0.0,0.0,0.0,0.0,-1.4648,-1.4816,-1.4948,-1.5077,-1.5322,-1.5706,-1.5427,-1.5245,-1.5491,-1.5152,-1.4944,-1.4944,-1.4991,-1.5011,-1.5034,-1.4886,-1.4797,-1.4862,-1.4527,-1.431,-1.431,-1.4137,-1.392,-1.3775,-1.3775,-1.3848,-1.3992,-1.3992,-1.392,-1.3775,-1.3775,-1.384,-1.4013,-1.4013,-1.4194,-1.4517,-1.4517,-1.4517,-1.4545,-1.4966,-1.5037,-1.501,-1.5428,-1.5525,-1.5349,-1.4859,-1.4645,-1.4458,-1.3954,-1.3709,-1.3491,-1.3062,-1.2622,-1.2305,-1.2305,-1.2231,-1.2114,-1.2003,-1.1855,-1.1632,-1.1558,-1.1372,-1.1111,-1.0663,-0.9609,-0.8585,-0.8131,-0.7103,-0.6276,-0.6166,-0.6027,-0.5874,-0.5728,-0.5227,-0.4667,-0.4192,-0.2915,-0.1878,-0.1475,-0.0572,0.0,0.0,0.0,0.0,0.0,0.0,0.0,0.0,0.0706,0.1251,0.154,0.196,0.2664,0.3619,0.4115,0.4661,0.5263,0.5886,0.646,-1.9901,-1.9206,-1.8344,-1.7853,-1.7381,-1.6926,-1.6578,0.0,0.0,0.0,0.0,0.0,0.0,-1.5963,0.0,0.0,-1.6007,-1.6258,-1.6246,-1.5615,-1.526,-1.5547,-1.5233,-1.5027,-1.5027,-1.5295,-1.5374,-1.5147,-1.5123,-1.5032,-1.48,-1.4713,-1.4669,-1.4669,-1.4641,-1.4489,-1.4274,-1.4201,-1.431,-1.4605,-1.4669,-1.4597,-1.4302,-1.441,-1.4573,-1.4807,-1.4807,-1.5136,-1.571,-1.571,-1.571,-1.571,-1.5851,-1.5886,-1.5886,-1.6026,-1.6062,-1.6026,-1.5781,-1.5596,-1.5419,-1.5269,-1.47,-1.4063,-1.3926,-1.3244,-1.2519,-1.2482,-1.2372,-1.2261,-1.2077,-1.2003,-1.1966,-1.1781,-1.1595,-1.1446,-1.1446,-1.0132,-0.8927,-0.8927,-0.7595,-0.6447,-0.6273,-0.5988,-0.5762,-0.564,-0.4978,-0.4478,-0.4456,-0.2924,-0.1821,-0.1788,-0.0744,-0.0034,0.0,0.0,0.0,0.0,0.0,0.0034,0.0169,0.0777,0.1743,0.3039,0.3189,0.3639,0.4391,0.4705,0.5011,0.5322,0.6329,0.7007,-2.0321,-2.0418,-2.0277,-1.9147,-1.8158,-1.748,-1.741,0.0,0.0,0.0,0.0,0.0,0.0,-1.5963,-1.6413,-1.6714,-1.7088,-1.7142,-1.6615,-1.6425,-1.6168,-1.5661,-1.5307,-1.5095,-1.5095,-1.4864,-1.4884,-1.5144,-1.5179,-1.5306,-1.5584,-1.5284,-1.5098,-1.5098,-1.4776,-1.4748,-1.5026,-1.4669,-1.4569,-1.4605,-1.5117,-1.5321,-1.5286,-1.5745,-1.5913,-1.5799,-1.5799,-1.5763,-1.571,-1.571,-1.571,-1.5781,-1.6446,-1.6724,-1.6793,-1.7407,-1.7657,-1.7545,-1.6906,-1.6559,-1.628,-1.5675,-1.5666,-1.5737,-1.4966,-1.4142,-1.3455,-1.3353,-1.2849,-1.2298,-1.2261,-1.212,-1.2003,-1.1966,-1.1781,-1.1632,-1.1632,-1.0775,-0.9954,-0.9954,-0.8546,-0.7322,-0.7294,-0.6463,-0.5793,-0.5772,-0.5574,-0.5368,-0.5243,-0.3898,-0.2846,-0.2565,-0.1181,-0.0176,0.0,0.0,0.0,0.0,0.0,0.0269,0.0908,0.1135,0.1325,0.1436,0.2812,0.3345,0.2921,0.4418,0.5492,0.6127,0.6647,0.7624,-2.1202,-2.1121,-2.0981,-2.038,-1.974,-1.9093,-1.8437,0.0,0.0,0.0,0.0,0.0,0.0,0.0,-1.8517,-1.8718,-1.8229,-1.786,-1.798,-1.6985,-1.6187,-1.6138,-1.5565,-1.517,-1.517,-1.5303,-1.5426,-1.5541,-1.5638,-1.5709,-1.5805,-1.5611,-1.5568,-1.5665,-1.5524,-1.5497,-1.5665,-1.5771,-1.5806,-1.5692,-1.6254,-1.6411,-1.6271,-1.6515,-1.668,-1.6775,-1.6775,-1.6922,-1.7217,-1.7217,-1.7182,-1.7148,-1.7491,-1.7569,-1.7545,-1.7872,-1.8008,-1.794,-1.7613,-1.7442,-1.7304,-1.695,-1.6655,-1.6393,-1.5948,-1.5199,-1.4378,-1.3781,-1.2989,-1.2305,-1.2305,-1.2224,-1.2157,-1.2157,-1.2003,-1.1816,-1.1661,-1.0966,-1.0275,-1.0035,-0.907,-0.8091,-0.7463,-0.69,-0.6401,-0.5885,-0.5745,-0.5677,-0.5606,-0.4209,-0.3139,-0.2995,-0.1357,-0.0467,-0.0836,-0.0328,0.0,0.0,0.0428,0.1019,0.172,0.1813,0.2231,0.31,0.3348,0.3766,0.4331,0.5358,0.6218,0.6923,0.7932,0.8821,-2.1992,-2.1632,-2.1355,-2.1224,0.0,-2.0104,-1.9313,-1.8606,0.0,0.0,0.0,0.0,0.0,-1.9498,-2.0309,-2.022,-1.9459,-1.895,-1.9239,-1.7895,-1.683,-1.6794,-1.6139,-1.5648,-1.5488,-1.5885,-1.607,-1.5938,-1.607,-1.607,-1.5938,-1.5903,-1.6,-1.6132,-1.6132,-1.6132,-1.6132,-1.6864,-1.7028,-1.6742,-1.7398,-1.7628,-1.7472,-1.7516,-1.7643,-1.7847,-1.7755,-1.8012,-1.8516,-1.8516,-1.8448,-1.8347,-1.8347,-1.8245,-1.811,-1.8076,-1.8076,-1.8076,-1.8008,-1.8008,-1.8008,-1.8008,-1.7501,-1.6922,-1.6888,-1.6219,-1.5376,-1.4522,-1.3491,-1.2592,-1.2378,-1.2305,-1.2305,-1.2305,-1.2187,-1.2018,-1.1801,-1.1291,-1.0736,-1.0391,-0.9739,-0.8911,-0.7812,-0.7381,-0.6902,-0.598,-0.5854,-0.584,-0.5806,-0.4522,-0.3591,-0.3518,-0.2015,-0.1177,-0.1554,-0.0815,-0.0222,0.0,0.0807,0.1603,0.2328,0.2525,0.3148,0.4225,0.3948,0.4368,0.5548,0.6096,0.678,0.757,0.8819,0.9525,-2.2282,-2.2075,-2.1744,-2.1302,-2.0189,0.0,-1.9656,-1.8839,0.0,-1.8622,0.0,0.0,0.0,-1.9716,-2.0361,-2.0286,-2.0881,-2.0907,-1.9649,-1.9599,-1.9105,-1.7533,-1.7285,-1.6966,-1.6307,-1.6272,-1.6272,-1.6272,-1.6272,-1.6272,-1.6272,-1.6272,-1.6272,-1.6272,-1.6272,-1.6272,-1.6272,-1.7501,-1.7765,-1.7079,-1.8196,-1.8867,-1.9133,-1.933,-1.932,-1.9133,-1.8821,-1.8607,-1.8516,-1.8516,-1.8482,-1.8482,-1.8482,-1.8482,-1.8448,-1.8303,-1.8269,-1.8236,-1.8076,-1.8008,-1.8008,-1.8008,-1.794,-1.7862,-1.7672,-1.7104,-1.6463,-1.6193,-1.4914,-1.3382,-1.2519,-1.2305,-1.2305,-1.2305,-1.2298,-1.2261,-1.2234,-1.2063,-1.1885,-1.1866,-1.0907,-0.983,-0.9016,-0.795,-0.6908,-0.6125,-0.5976,-0.5925,-0.582,-0.5258,-0.4734,-0.443,-0.368,-0.2731,-0.1672,-0.1364,-0.0858,-0.0039,0.0823,0.164,0.2439,0.3276,0.3355,0.2676,0.4124,0.4833,0.4792,0.5748,0.6817,0.7951,0.8272,0.9014,-2.2626,-2.2088,-2.1565,-2.1377,-2.0489,0.0,0.0,-1.9689,-1.9257,-1.9536,-1.9788,0.0,0.0,-2.0347,-2.0501,-2.0965,-2.0901,-2.0676,-2.0362,-1.9885,-1.9163,-1.8012,-1.7619,-1.7104,-1.6377,-1.6403,-1.6438,-1.6307,-1.6403,-1.6438,-1.6316,-1.6307,-1.6377,-1.6473,-1.6473,-1.6716,-1.7157,-1.7969,-1.8523,-1.8803,-1.9354,-1.9661,-1.9802,-1.9879,-1.9879,-1.9802,-1.9649,-1.9462,-1.9175,-1.9175,-1.8975,-1.8674,-1.8549,-1.8516,-1.8482,-1.8448,-1.8414,-1.8414,-1.8236,-1.8178,-1.8178,-1.8042,-1.8008,-1.7974,-1.7896,-1.7681,-1.732,-1.668,-1.6,-1.5155,-1.3593,-1.2732,-1.2305,-1.2305,-1.2305,-1.2251,-1.2107,-1.2105,-1.2098,-1.1811,-1.1512,-1.0999,-0.9911,-0.9381,-0.8576,-0.7151,-0.6927,-0.6715,-0.617,-0.5445,-0.4934,-0.4819,-0.443,-0.3559,-0.1919,-0.2075,-0.1448,0.0431,0.1502,0.2171,0.2475,0.3342,0.39,0.4056,0.4169,0.4846,0.6083,0.67,0.7626,0.8811,0.9148,0.9521,-2.2844,-2.2025,-2.1277,-2.1277,0.0,0.0,-2.0575,-2.0306,-2.0117,-2.0394,-2.0539,-2.0704,-2.1018,-2.074,-2.0633,-2.1147,-2.0868,-2.0626,-2.0731,-2.0249,-1.954,-1.8576,-1.8128,-1.7516,-1.6586,-1.6612,-1.6656,-1.6482,-1.6621,-1.6612,-1.6482,-1.6491,-1.6551,-1.6682,-1.6915,-1.7285,-1.7808,-1.861,-1.9288,-1.9911,-2.0258,-2.0463,-2.0431,-2.0302,-2.0269,-2.0237,-2.0139,-1.9977,-1.9758,-1.9758,-1.9528,-1.9198,-1.8942,-1.8852,-1.8852,-1.865,-1.8583,-1.8583,-1.8414,-1.8371,-1.8337,-1.8144,-1.8076,-1.8076,-1.8008,-1.8008,-1.7872,-1.7207,-1.6819,-1.628,-1.4977,-1.3665,-1.2732,-1.2732,-1.2519,-1.2245,-1.2087,-1.2164,-1.2208,-1.1863,-1.1909,-1.1669,-1.0582,-1.0357,-0.9717,-0.7936,-0.7633,-0.7407,-0.6834,-0.598,-0.5395,-0.5395,-0.5198,-0.4453,-0.2935,-0.2857,-0.2074,-0.0117,0.1526,0.2542,0.2893,0.3715,0.4423,0.4979,0.4462,0.5079,0.6903,0.7165,0.7931,0.9127,0.9392,0.9576,-2.2912,-2.1992,-2.1021,0.0,0.0,0.0,-2.0899,-2.0607,-2.0482,-2.1077,-2.0871,-2.0614,-2.0614,-2.0699,-2.0764,-2.0617,-2.0984,-2.114,-2.067,-2.0935,-2.0624,-1.9177,-1.9011,-1.8442,-1.7047,-1.6908,-1.6908,-1.6908,-1.6908,-1.6908,-1.6908,-1.6908,-1.6908,-1.6908,-1.7604,-1.8003,-1.8003,-1.9398,-2.0096,-2.0139,-2.086,-2.119,-2.119,-2.0807,-2.0614,-2.0571,-2.0237,-2.0096,-2.0096,-2.0096,-2.0096,-2.0063,-1.9736,-1.9605,-1.9539,-1.9008,-1.8808,-1.8774,-1.8583,-1.8516,-1.8482,-1.8347,-1.8303,-1.8269,-1.8076,-1.8008,-1.8008,-1.8008,-1.732,-1.6593,-1.6593,-1.519,-1.3709,-1.3709,-1.2989,-1.2305,-1.2305,-1.2305,-1.2305,-1.2305,-1.215,-1.1737,-1.0938,-1.0634,-0.9959,-0.838,-0.7931,-0.7821,-0.7783,-0.6907,-0.63,-0.63,-0.606,-0.5586,-0.4766,-0.3715,-0.2741,-0.196,0.0665,0.2659,0.3752,0.4582,0.5018,0.5018,0.5018,0.5634,0.6903,0.6903,0.7514,0.8703,0.8703,0.8894,-2.3282,-2.2457,0.0,-2.135,0.0,0.0,0.0,-2.0885,0.0,0.0,-2.1094,-2.1031,-2.1031,-2.0823,-2.0738,-2.099,-2.0899,-2.0868,-2.099,-2.07,-2.0063,-1.911,-1.8566,-1.7935,-1.7003,-1.6908,-1.6908,-1.6908,-1.6908,-1.6908,-1.6908,-1.6908,-1.6908,-1.6908,-1.7107,-1.7706,-1.87,-1.9276,-1.9998,-2.0892,-2.1328,-2.1434,-2.119,-2.1094,-2.1031,-2.1031,-2.0924,-2.07,-2.0431,-2.0204,-2.0323,-2.0634,-2.0139,-2.0172,-2.042,-1.966,-1.9374,-1.9308,-1.8875,-1.8707,-1.8674,-1.8516,-1.8448,-1.8414,-1.8269,-1.8202,-1.8178,-1.8042,-1.7794,-1.7579,-1.7579,-1.668,-1.5438,-1.4207,-1.3608,-1.3135,-1.2629,-1.2415,-1.2305,-1.2305,-1.2268,-1.2077,-1.17,-1.1589,-1.113,-0.9965,-0.9253,-0.8389,-0.7134,-0.7173,-0.7099,-0.6377,-0.6219,-0.5828,-0.5002,-0.3947,-0.2973,-0.2156,0.0352,0.2035,0.2657,0.419,0.5018,0.5018,0.5018,0.5634,0.6903,0.6903,0.7514,0.8703,0.8703,0.878,-2.3076,-2.2249,0.0,-2.145,-2.1652,-2.1806,-2.1634,0.0,0.0,0.0,-2.119,-2.119,-2.119,-2.0999,-2.0935,-2.1158,-2.0999,-2.0924,-2.1158,-2.056,-1.9835,-1.9077,-1.8408,-1.7696,-1.6968,-1.6908,-1.6908,-1.6908,-1.6908,-1.6908,-1.6908,-1.6908,-1.6908,-1.6908,-1.7245,-1.7978,-1.911,-1.9573,-2.0334,-2.1391,-2.1604,-2.1592,-2.1391,-2.1391,-2.136,-2.1273,-2.1221,-2.1094,-2.0892,-2.0624,-2.072,-2.0965,-2.0495,-2.0495,-2.0709,-2.0042,-1.9791,-1.9758,-1.9429,-1.933,-1.9297,-1.9108,-1.8942,-1.8798,-1.8664,-1.8506,-1.8337,-1.8178,-1.811,-1.811,-1.8008,-1.7579,-1.6784,-1.5376,-1.4422,-1.3716,-1.3251,-1.2813,-1.2526,-1.2415,-1.2415,-1.2378,-1.215,-1.2114,-1.1811,-1.087,-1.0276,-0.9372,-0.7855,-0.8084,-0.8008,-0.6984,-0.6602,-0.6177,-0.555,-0.4611,-0.3675,-0.2896,-0.0665,0.0978,0.18,0.3563,0.4584,0.474,0.4779,0.5321,0.6518,0.6788,0.7399,0.8356,0.8585,0.8703,-2.2634,-2.1708,0.0,-2.1354,-2.189,0.0,-2.2556,-2.1908,-2.1253,-2.1221,-2.119,-2.119,-2.119,-2.119,-2.119,-2.119,-2.119,-2.119,-2.119,-2.0495,-1.9737,-1.9077,-1.8341,-1.7638,-1.6978,-1.6908,-1.6908,-1.6908,-1.6908,-1.6908,-1.6908,-1.6908,-1.6908,-1.6943,-1.7706,-1.8476,-1.9233,-2.0107,-2.0903,-2.1604,-2.1698,-2.173,-2.173,-2.1698,-2.158,-2.1431,-2.1285,-2.1316,-2.1431,-2.1285,-2.1253,-2.1253,-2.0828,-2.0732,-2.0764,-2.0302,-2.0172,-2.0204,-2.0128,-2.0096,-2.0074,-1.9955,-1.9649,-1.9342,-1.9164,-1.8875,-1.8549,-1.8371,-1.8303,-1.8269,-1.8076,-1.8042,-1.7818,-1.6957,-1.5482,-1.4214,-1.4042,-1.347,-1.2966,-1.2746,-1.2673,-1.2562,-1.2445,-1.2378,-1.204,-1.1223,-1.0925,-1.047,-0.9448,-0.9334,-0.8955,-0.7931,-0.7173,-0.6641,-0.6335,-0.5512,-0.4688,-0.3869,-0.2031,-0.0313,0.1176,0.2821,0.3917,0.4345,0.4345,0.481,0.5783,0.6475,0.7169,0.7744,0.8394,0.8703,-2.3098,-2.2397,0.0,0.0,-2.1446,-2.1929,-2.2466,-2.2156,-2.1639,-2.1285,-2.119,-2.119,-2.119,-2.119,-2.119,-2.119,-2.119,-2.119,-2.119,-2.0063,-1.9177,-1.9011,-1.791,-1.7072,-1.6908,-1.6908,-1.6908,-1.6908,-1.6908,-1.6908,-1.6908,-1.6908,-1.6968,-1.7141,-1.7304,-1.7808,-1.8667,-1.9552,-2.0247,-2.0839,-2.1675,-2.1999,-2.1843,-2.1761,-2.1667,-2.1624,-2.1592,-2.1604,-2.1624,-2.1592,-2.1812,-2.2068,-2.1463,-2.1714,-2.2242,-2.0976,-2.0752,-2.1028,-2.0334,-2.0096,-2.0096,-2.0074,-2.0009,-1.9835,-1.9408,-1.921,-1.9021,-1.8573,-1.8448,-1.8448,-1.8414,-1.8303,-1.8168,-1.7978,-1.6957,-1.5728,-1.451,-1.3977,-1.3753,-1.3716,-1.3105,-1.2776,-1.331,-1.2806,-1.204,-1.1223,-1.1074,-1.0657,-0.9674,-0.9523,-0.914,-0.8156,-0.7893,-0.7437,-0.6602,-0.5738,-0.4841,-0.3869,-0.2305,-0.0782,0.0706,0.2194,0.3288,0.3919,0.3919,0.4265,0.496,0.589,0.6703,0.7357,0.828,0.8703,-2.2995,0.0,0.0,-2.1725,0.0,-2.247,-2.2895,-2.2586,-2.2094,-2.1639,-2.1348,-2.119,-2.119,-2.119,-2.119,-2.119,-2.119,-2.1094,-2.0732,-1.9704,-1.8877,-1.8566,-1.7579,-1.6908,-1.6908,-1.6908,-1.6908,-1.6908,-1.6908,-1.6908,-1.6908,-1.7003,-1.7107,-1.7201,-1.7373,-1.7833,-1.8633,-1.9519,-2.0247,-2.0848,-2.1769,-2.2166,-2.203,-2.1874,-2.1855,-2.1917,-2.1761,-2.173,-2.1781,-2.173,-2.2018,-2.2414,-2.1788,-2.223,-2.304,-2.1808,-2.1733,-2.2082,-2.1239,-2.0953,-2.0933,-2.0688,-2.0495,-2.0302,-1.9998,-1.9802,-1.9606,-1.9264,-1.9031,-1.8865,-1.8808,-1.8573,-1.8414,-1.8414,-1.756,-1.6507,-1.571,-1.4887,-1.4258,-1.415,-1.376,-1.3397,-1.3324,-1.2813,-1.2305,-1.1892,-1.1744,-1.1477,-1.095,-1.0576,-1.0083,-0.9475,-0.8723,-0.8003,-0.7361,-0.6549,-0.5616,-0.4569,-0.3437,-0.2111,-0.0509,0.0979,0.2273,0.3452,0.3452,0.3724,0.4265,0.5076,0.5851,0.658,0.7544,0.8203,-2.2883,0.0,-2.1733,-2.2273,-2.2727,0.0,-2.334,-2.3005,-2.2482,-2.2002,-2.1526,-2.119,-2.119,-2.119,-2.119,-2.119,-2.119,-2.0924,-2.0193,-1.9474,-1.8744,-1.807,-1.7339,-1.6908,-1.6908,-1.6908,-1.6908,-1.6908,-1.6908,-1.6908,-1.6908,-1.7072,-1.7166,-1.7201,-1.7476,-1.7935,-1.86,-1.9562,-2.0355,-2.0933,-2.1788,-2.2197,-2.2185,-2.203,-2.203,-2.2185,-2.1917,-2.1855,-2.1925,-2.1824,-2.2068,-2.2494,-2.208,-2.2567,-2.3433,-2.2702,-2.275,-2.3118,-2.2359,-2.2063,-2.1939,-2.1463,-2.1083,-2.0796,-2.0635,-2.041,-2.0139,-1.9987,-1.9682,-1.9408,-1.9231,-1.8908,-1.8607,-1.8583,-1.7842,-1.7139,-1.6975,-1.5842,-1.478,-1.4581,-1.4517,-1.4158,-1.3076,-1.2856,-1.2783,-1.2673,-1.2378,-1.2194,-1.2342,-1.1632,-1.1031,-1.0864,-0.955,-0.8533,-0.8194,-0.7399,-0.6514,-0.5422,-0.4727,-0.3595,-0.1836,-0.0587,0.0902,0.2668,0.2904,0.3178,0.3567,0.4263,0.4996,0.5806,0.6738,0.7591,0.0,0.0,-2.1733,0.0,-2.2452,-2.2654,0.0,0.0,-2.2482,-2.2002,-2.1526,-2.119,-2.119,-2.119,-2.119,-2.119,-2.119,-2.0924,-2.0193,-1.9474,-1.8744,-1.807,-1.7339,-1.6908,-1.6908,-1.6908,-1.6908,-1.6908,-1.6908,-1.6908,-1.6908,-1.6943,-1.7003,-1.7201,-1.7235,-1.7432,-1.7842,-1.9179,-1.9977,-2.0258,-2.1569,-2.2197,-2.2197,-2.2154,-2.2154,-2.2197,-2.2166,-2.2123,-2.2166,-2.2135,-2.2185,-2.2297,-2.2598,-2.31,-2.3564,-2.3403,-2.3492,-2.3623,-2.3118,-2.2756,-2.2421,-2.197,-2.1753,-2.1596,-2.0816,-2.0571,-2.0474,-2.0172,-2.0042,-1.9901,-1.9605,-1.9353,-1.911,-1.8841,-1.8506,-1.8056,-1.7251,-1.6402,-1.5763,-1.5569,-1.5428,-1.4824,-1.3185,-1.3397,-1.3615,-1.2966,-1.2114,-1.1781,-1.2489,-1.1706,-1.1074,-1.1068,-1.0233,-0.9324,-0.8418,-0.7633,-0.6714,-0.5622,-0.5467,-0.4487,-0.2458,-0.2186,-0.1054,0.1136,0.2117,0.2628,0.2668,0.3679,0.4611,0.5422,0.6472,0.7365,-2.3406,-2.2388,-2.1675,0.0,-2.2246,-2.2486,-2.2818,-2.2738,-2.2482,-2.2002,-2.1526,-2.119,-2.119,-2.119,-2.119,-2.119,-2.119,-2.0796,-1.9639,-1.921,-1.861,-1.7501,-1.7107,-1.6908,-1.6908,-1.6908,-1.6908,-1.6908,-1.6908,-1.6908,-1.6908,-1.7003,-1.7107,-1.7201,-1.7314,-1.7623,-1.8138,-1.9156,-2.0182,-2.1115,-2.1862,-2.2197,-2.2197,-2.2197,-2.2197,-2.2197,-2.2197,-2.2197,-2.2197,-2.2197,-2.2389,-2.2702,-2.2561,-2.3263,-2.4321,-2.3771,-2.3946,-2.4379,-2.3712,-2.331,-2.2914,-2.2156,-2.1908,-2.1827,-2.1439,-2.1146,-2.0955,-2.1092,-2.0773,-2.0345,-2.0183,-1.9824,-1.9429,-1.9274,-1.9042,-1.8697,-1.8182,-1.737,-1.6602,-1.5983,-1.5073,-1.4266,-1.3897,-1.3688,-1.3441,-1.3119,-1.2599,-1.2378,-1.2709,-1.2378,-1.2077,-1.1966,-1.1211,-1.0346,-0.9324,-0.8504,-0.7595,-0.6556,-0.6047,-0.5148,-0.3785,-0.2926,-0.1874,-0.0509,0.0901,0.1882,0.2511,0.2978,0.3638,0.4491,0.5074,0.6005,0.0,0.0,-2.2037,-2.2017,-2.2231,-2.2443,0.0,-2.2539,-2.2353,-2.212,-2.1608,-2.119,-2.119,-2.119,-2.119,-2.119,-2.119,-2.07,-1.921,-1.9011,-1.8476,-1.7072,-1.6908,-1.6908,-1.6908,-1.6908,-1.6908,-1.6908,-1.6908,-1.6908,-1.6908,-1.7038,-1.7132,-1.7132,-1.7289,-1.7691,-1.8408,-1.9431,-2.0581,-2.1894,-2.2092,-2.2197,-2.2197,-2.2197,-2.2197,-2.2197,-2.2197,-2.2197,-2.2197,-2.2197,-2.2469,-2.2841,-2.2531,-2.3382,-2.4666,-2.4134,-2.4408,-2.4907,-2.4308,-2.3868,-2.342,-2.2567,-2.2187,-2.2094,-2.2094,-2.1671,-2.1285,-2.1765,-2.1356,-2.0732,-2.0635,-2.0215,-1.9802,-1.9638,-1.9407,-1.9108,-1.863,-1.7935,-1.706,-1.5939,-1.4859,-1.4158,-1.4294,-1.3905,-1.3477,-1.3309,-1.3119,-1.2973,-1.2973,-1.2936,-1.2826,-1.2673,-1.1892,-1.1031,-1.0045,-0.9188,-0.8284,-0.7334,-0.6665,-0.5967,-0.5231,-0.3977,-0.2888,-0.1996,-0.0391,0.0979,0.2078,0.2314,0.2898,0.3791,0.3949,0.4763,0.0,-2.3478,0.0,-2.2522,-2.2378,-2.254,0.0,-2.2495,-2.1984,-2.2463,-2.1846,-2.119,-2.119,-2.119,-2.119,-2.119,-2.119,-2.07,-1.921,-1.9011,-1.8476,-1.7072,-1.6908,-1.6908,-1.6908,-1.6908,-1.6908,-1.6908,-1.6908,-1.6908,-1.6908,-1.6908,-1.6908,-1.6908,-1.6943,-1.7339,-1.8206,-1.9966,-2.119,-2.1894,-2.2092,-2.2197,-2.2197,-2.2197,-2.2197,-2.2197,-2.2197,-2.2197,-2.2197,-2.2197,-2.2216,-2.2309,-2.2841,-2.3463,-2.4108,-2.4694,-2.4948,-2.5005,-2.4948,-2.4563,-2.3966,-2.348,-2.2975,-2.2561,-2.2561,-2.1939,-2.1285,-2.1765,-2.1557,-2.1094,-2.07,-2.0571,-2.0377,-1.9736,-1.9572,-1.9231,-1.8012,-1.756,-1.6922,-1.5286,-1.5455,-1.5376,-1.3811,-1.4086,-1.4294,-1.3601,-1.3309,-1.32,-1.32,-1.301,-1.29,-1.29,-1.2003,-1.1068,-1.0265,-0.9258,-0.836,-0.7522,-0.7446,-0.7134,-0.6521,-0.5815,-0.4683,-0.3046,-0.1565,-0.0235,0.0979,0.1803,0.2781,0.3791,0.3791,0.4261,0.0,0.0,0.0,-2.2612,-2.2674,-2.2834,-2.2073,-2.1799,-2.1567,-2.1214,-2.0849,-2.0637,-2.068,-2.0971,-2.119,-2.119,-2.0796,-2.0128,-1.9144,-1.8633,-1.8003,-1.7012,-1.6908,-1.6908,-1.6908,-1.6908,-1.6908,-1.6908,-1.6908,-1.6908,-1.6908,-1.6908,-1.6908,-1.6908,-1.6908,-1.7545,-1.89,-2.0117,-2.1103,-2.1894,-2.2092,-2.2197,-2.2197,-2.2197,-2.2197,-2.2197,-2.2197,-2.2197,-2.2197,-2.2197,-2.242,-2.2811,-2.3027,-2.3741,-2.4666,-2.4907,-2.5131,-2.5313,-2.5313,-2.4905,-2.4276,-2.3796,-2.3424,-2.3065,-2.2695,-2.2144,-2.1671,-2.1846,-2.1557,-2.1158,-2.1031,-2.0796,-2.0506,-2.0042,-1.9758,-1.9473,-1.9031,-1.8206,-1.731,-1.6376,-1.5702,-1.5002,-1.4057,-1.3884,-1.3804,-1.3528,-1.3455,-1.3382,-1.3382,-1.3346,-1.3236,-1.3119,-1.2783,-1.2114,-1.1062,-1.0164,-0.9258,-0.8322,-0.7787,-0.7215,-0.6637,-0.6367,-0.5586,-0.4146,-0.3049,-0.1368,0.0901,0.1763,0.2469,0.2978,0.2978,0.3405,-2.439,0.0,0.0,0.0,-2.3259,-2.3472,-2.194,-2.169,-2.1569,-2.088,-2.0493,-2.031,-2.0349,-2.0684,-2.0994,-2.1167,-2.0592,-1.9835,-1.91,-1.8408,-1.7731,-1.7003,-1.6908,-1.6908,-1.6908,-1.6908,-1.6908,-1.6908,-1.6908,-1.6908,-1.6908,-1.6908,-1.6908,-1.6908,-1.7141,-1.7901,-1.9299,-2.0171,-2.1028,-2.1894,-2.2092,-2.2197,-2.2197,-2.2197,-2.2197,-2.2197,-2.2197,-2.2197,-2.2197,-2.2197,-2.2451,-2.2811,-2.3027,-2.3741,-2.4694,-2.492,-2.5216,-2.5494,-2.5494,-2.5131,-2.4609,-2.415,-2.3708,-2.3275,-2.3143,-2.2555,-2.1939,-2.2094,-2.1796,-2.14,-2.1253,-2.0903,-2.0539,-2.0302,-1.9922,-1.9605,-1.9605,-1.8865,-1.7978,-1.7285,-1.6306,-1.5357,-1.4697,-1.4165,-1.3819,-1.371,-1.371,-1.3637,-1.3528,-1.3492,-1.3455,-1.3309,-1.3236,-1.2746,-1.1595,-1.0683,-0.9782,-0.8775,-0.794,-0.733,-0.6907,-0.6718,-0.6212,-0.5359,-0.4064,-0.2421,-0.043,0.0979,0.1843,0.2196,0.2392,0.3095,0.0,0.0,0.0,0.0,0.0,0.0,-2.2788,-2.2285,-2.2037,-2.1642,-2.09,-2.0296,-2.0267,-2.0332,-2.0549,-2.1086,-2.0549,-1.9835,-1.9144,-1.8442,-1.7731,-1.7012,-1.6908,-1.6908,-1.6908,-1.6908,-1.6908,-1.6908,-1.6908,-1.6908,-1.6908,-1.6908,-1.6908,-1.6943,-1.7638,-1.8432,-1.9332,-2.0171,-2.1028,-2.1894,-2.2092,-2.2185,-2.2197,-2.2197,-2.2197,-2.2197,-2.2197,-2.2228,-2.2216,-2.2228,-2.2228,-2.2278,-2.2889,-2.3492,-2.4108,-2.4793,-2.5216,-2.5494,-2.5494,-2.5285,-2.4977,-2.4637,-2.3888,-2.3267,-2.3894,-2.3095,-2.2032,-2.2482,-2.2267,-2.1784,-2.1316,-2.0924,-2.0635,-2.0614,-2.0096,-1.9605,-1.9605,-1.9341,-1.8831,-1.791,-1.7285,-1.662,-1.5675,-1.4982,-1.4461,-1.4165,-1.4093,-1.3956,-1.3564,-1.3492,-1.3492,-1.3492,-1.3346,-1.2826,-1.1818,-1.0832,-0.982,-0.8813,-0.7978,-0.7522,-0.7484,-0.6945,-0.6602,-0.6602,-0.4528,-0.3359,-0.3124,-0.0625,0.094,0.1607,0.2196,0.3368,-2.4906,0.0,0.0,0.0,0.0,0.0,-2.3467,-2.3286,-2.289,-2.1095,-2.0657,-2.0404,-1.9845,-1.9808,-2.0056,-2.0538,-2.0336,-2.0042,-1.9835,-1.8767,-1.7935,-1.774,-1.7235,-1.6908,-1.6908,-1.6908,-1.6908,-1.6908,-1.6908,-1.6908,-1.6908,-1.6908,-1.7132,-1.7672,-1.7901,-1.8723,-2.0236,-2.0376,-2.1008,-2.2135,-2.203,-2.2061,-2.2197,-2.2197,-2.2197,-2.2197,-2.2197,-2.2451,-2.2811,-2.2389,-2.2469,-2.2919,-2.3535,-2.415,-2.4793,-2.5411,-2.5702,-2.5798,-2.5798,-2.5592,-2.5313,-2.4977,-2.4523,-2.4047,-2.3717,-2.33,-2.2914,-2.2665,-2.2267,-2.1784,-2.1316,-2.1368,-2.1388,-2.0764,-2.0269,-1.9889,-1.9638,-1.9341,-1.8908,-1.8269,-1.7467,-1.6689,-1.5965,-1.4947,-1.4201,-1.4129,-1.3848,-1.3637,-1.3492,-1.3492,-1.3492,-1.3492,-1.3455,-1.3236,-1.2826,-1.1983,-1.1007,-0.9857,-0.9031,-0.8241,-0.7522,-0.733,-0.7061,-0.6602,-0.5544,-0.4608,-0.383,-0.086,0.0784,0.1097,0.2078,0.3095,0.0,0.0,0.0,0.0,0.0,0.0,-2.3736,-2.3819,-2.3699,-2.1655,-2.1002,-2.0573,-1.9961,-1.9696,-1.9721,-2.0063,-2.0163,-2.0198,-2.0107,-1.9133,-1.8297,-1.8037,-1.7766,-1.7432,-1.6952,-1.7055,-1.7082,-1.6917,-1.6908,-1.6908,-1.6908,-1.7201,-1.7569,-1.8003,-1.8273,-1.909,-2.0505,-2.0473,-2.1008,-2.2061,-2.203,-2.2092,-2.2197,-2.2197,-2.2197,-2.2197,-2.2197,-2.2531,-2.3058,-2.272,-2.2781,-2.3148,-2.3758,-2.4237,-2.4694,-2.5578,-2.5893,-2.5893,-2.5893,-2.5798,-2.5592,-2.5159,-2.4736,-2.4292,-2.3628,-2.3403,-2.33,-2.2768,-2.2267,-2.1846,-2.1557,-2.1557,-2.1514,-2.123,-2.072,-2.0204,-1.9889,-1.9561,-1.9175,-1.8707,-1.8012,-1.7285,-1.6673,-1.5789,-1.5018,-1.4625,-1.4489,-1.4274,-1.3811,-1.3876,-1.384,-1.3528,-1.3492,-1.3419,-1.3229,-1.2469,-1.1675,-1.087,-0.9825,-0.8922,-0.8165,-0.7863,-0.7522,-0.6984,-0.6363,-0.5231,-0.3675,-0.1212,0.047,0.145,0.2546,0.3483,0.0,-2.4942,0.0,0.0,-2.5544,0.0,-2.4115,-2.4347,-2.4506,-2.2911,-2.1888,-2.1111,-2.0644,-2.0177,-1.9896,-2.003,-2.0382,-2.0548,-2.0268,-1.9573,-1.8921,-1.8401,-1.8562,-1.8331,-1.7274,-1.7454,-1.7455,-1.7,-1.6996,-1.7003,-1.7003,-1.7696,-1.8138,-1.824,-1.88,-1.9573,-2.0528,-2.0634,-2.1092,-2.1937,-2.2092,-2.2185,-2.2197,-2.2197,-2.2197,-2.2197,-2.2197,-2.258,-2.3207,-2.3118,-2.3088,-2.3177,-2.3846,-2.4063,-2.4137,-2.5425,-2.5893,-2.5893,-2.5893,-2.5893,-2.5811,-2.523,-2.4765,-2.4305,-2.3658,-2.348,-2.3378,-2.2756,-2.239,-2.2094,-2.1877,-2.1588,-2.1431,-2.1702,-2.1167,-2.0506,-2.0172,-1.9857,-1.9506,-1.9198,-1.8707,-1.8134,-1.7579,-1.6959,-1.6254,-1.5409,-1.5515,-1.5303,-1.4238,-1.4366,-1.4294,-1.3564,-1.3492,-1.3419,-1.3236,-1.2579,-1.2057,-1.1737,-1.0501,-0.9561,-0.9074,-0.8441,-0.7949,-0.7561,-0.6868,-0.5386,-0.3124,-0.1642,0.0117,0.2038,0.313,0.4066,-2.5307,-2.5009,-2.4922,-2.5709,-2.5722,0.0,-2.6045,-2.5982,-2.5485,-2.4174,-2.3657,-2.3151,-2.2377,-2.2188,-2.2173,-2.2201,-2.2088,-2.177,-2.1071,-2.0366,-2.0008,-2.0285,-1.987,-1.9379,-1.8867,-1.8627,-1.8161,-1.7456,-1.7622,-1.7808,-1.7808,-1.8432,-1.9067,-1.9671,-1.9835,-2.0399,-2.1434,-2.1305,-2.1557,-2.2123,-2.203,-2.203,-2.2197,-2.2197,-2.2197,-2.2197,-2.2197,-2.2823,-2.3787,-2.3284,-2.3088,-2.3207,-2.4366,-2.4481,-2.4137,-2.5425,-2.5893,-2.5893,-2.5893,-2.5893,-2.5839,-2.5508,-2.5341,-2.5075,-2.4031,-2.3989,-2.4047,-2.2925,-2.3113,-2.3318,-2.1745,-2.1827,-2.2082,-2.1103,-2.0732,-2.0506,-2.0172,-1.9857,-1.9572,-1.9506,-1.8841,-1.8269,-1.8134,-1.7019,-1.6044,-1.5868,-1.5275,-1.4669,-1.4165,-1.4165,-1.4021,-1.3564,-1.3492,-1.3499,-1.3455,-1.3309,-1.2849,-1.2013,-1.1211,-1.0395,-0.9523,-0.8589,-0.8063,-0.7987,-0.6553,-0.4996,-0.332,-0.1682,-0.0274,0.094,0.1997,0.2938,-2.5188,-2.4835,-2.4617,-2.5277,-2.5382,0.0,0.0,-2.5896,-2.5834,-2.4526,-2.4333,-2.4094,-2.307,-2.2816,-2.2748,-2.2783,-2.2118,-2.1769,-2.2274,-2.1565,-2.0952,-2.0918,-2.0956,-2.0709,-1.9986,-1.9935,-1.9574,-1.8713,-1.8546,-1.8509,-1.8509,-1.9177,-1.9737,-2.0107,-2.0516,-2.1008,-2.1549,-2.1632,-2.1788,-2.2061,-2.2061,-2.2092,-2.2197,-2.2197,-2.2197,-2.2197,-2.2197,-2.2871,-2.3992,-2.3669,-2.3551,-2.3653,-2.4609,-2.458,-2.4137,-2.5425,-2.5893,-2.5893,-2.5893,-2.5893,-2.5853,-2.5605,-2.5494,-2.5313,-2.435,-2.4105,-2.3946,-2.2895,-2.2967,-2.3083,-2.1858,-2.1733,-2.1784,-2.1345,-2.1083,-2.0796,-2.0431,-2.0074,-1.9791,-1.9638,-1.9108,-1.8596,-1.8337,-1.7398,-1.6603,-1.6324,-1.5806,-1.5169,-1.4453,-1.4525,-1.4346,-1.3564,-1.3492,-1.3492,-1.3492,-1.3492,-1.3266,-1.2769,-1.1885,-1.1068,-1.0389,-0.9273,-0.8522,-0.8102,-0.6472,-0.5231,-0.4489,-0.2621,-0.094,0.047,0.2077,0.3249,-2.5163,-2.486,-2.458,-2.5025,-2.5209,-2.5258,0.0,0.0,0.0,-2.5059,-2.4978,-2.4783,-2.3908,-2.3565,-2.3433,-2.3405,-2.226,-2.1898,-2.336,-2.2609,-2.1807,-2.152,-2.1872,-2.1849,-2.1043,-2.0932,-2.0596,-1.9872,-1.9354,-1.9116,-1.9199,-1.9901,-2.0302,-2.0302,-2.1008,-2.1368,-2.1388,-2.1706,-2.1874,-2.1894,-2.2092,-2.2197,-2.2197,-2.2197,-2.2197,-2.2228,-2.234,-2.2992,-2.4021,-2.415,-2.4179,-2.4266,-2.4935,-2.4694,-2.4137,-2.5425,-2.5893,-2.5893,-2.5893,-2.5893,-2.5866,-2.5647,-2.5369,-2.5005,-2.4494,-2.3989,-2.3433,-2.2774,-2.2665,-2.2616,-2.1939,-2.1557,-2.14,-2.1702,-2.1494,-2.1094,-2.07,-2.0334,-2.0009,-1.9671,-1.9341,-1.8975,-1.8539,-1.7862,-1.7235,-1.6742,-1.6438,-1.5842,-1.4677,-1.4919,-1.4776,-1.3637,-1.3492,-1.3492,-1.3492,-1.3492,-1.3492,-1.3492,-1.2378,-1.1558,-1.1223,-0.9916,-0.8827,-0.8106,-0.6472,-0.5583,-0.5583,-0.3522,-0.1646,0.0039,0.1957,0.3521,-2.6014,-2.5548,-2.5417,-2.676,-2.618,-2.5751,-2.7532,0.0,-2.6083,-2.7175,0.0,-2.5995,-2.61,0.0,0.0,-2.559,-2.4354,-2.3522,-2.3738,-2.2786,-2.2439,-2.3448,-2.2605,-2.215,-2.268,-2.0948,-1.9786,-1.9796,-1.9489,-1.9457,-1.9944,-2.0656,-2.1094,-2.1094,-2.1158,-2.1273,-2.1388,-2.1612,-2.1781,-2.1894,-2.2092,-2.2197,-2.2197,-2.2197,-2.2197,-2.2216,-2.2781,-2.3386,-2.405,-2.4637,-2.4878,-2.4935,-2.555,-2.5049,-2.4137,-2.5425,-2.5893,-2.5893,-2.5893,-2.5893,-2.5893,-2.5866,-2.4894,-2.3803,-2.4323,-2.364,-2.2713,-2.2634,-2.2932,-2.2987,-2.162,-2.1557,-2.1733,-2.138,-2.1221,-2.1094,-2.07,-2.0334,-2.0009,-1.9671,-1.9341,-1.9065,-1.9008,-1.8124,-1.727,-1.6906,-1.6542,-1.5771,-1.4346,-1.4776,-1.4776,-1.3637,-1.3492,-1.3492,-1.3492,-1.3492,-1.3492,-1.3492,-1.2378,-1.1669,-1.1632,-0.9793,-0.8556,-0.8102,-0.6472,-0.5583,-0.5583,-0.3522,-0.2038,-0.1097,0.0274,0.2188,-2.607,-2.5776,-2.5587,-2.7038,-2.6629,-2.6111,-2.6972,-2.6918,-2.674,-2.6947,0.0,0.0,0.0,0.0,0.0,0.0,-2.4691,-2.394,-2.4684,-2.2909,-2.1977,-2.317,-2.2669,-2.2345,-2.2742,-2.114,-2.0468,-2.1416,-2.0516,-2.0306,-2.1093,-2.119,-2.119,-2.119,-2.1273,-2.1336,-2.1388,-2.1675,-2.1843,-2.1894,-2.2457,-2.2531,-2.2216,-2.2944,-2.2854,-2.2247,-2.322,-2.3758,-2.405,-2.4723,-2.5005,-2.5061,-2.5674,-2.5356,-2.4694,-2.5578,-2.5893,-2.5893,-2.5893,-2.5893,-2.5866,-2.573,-2.5202,-2.4637,-2.4538,-2.4121,-2.3551,-2.2804,-2.2768,-2.2659,-2.1494,-2.1348,-2.1431,-2.1253,-2.119,-2.1158,-2.0999,-2.0495,-2.0074,-1.9922,-1.9462,-1.9108,-1.9108,-1.8158,-1.7339,-1.7192,-1.6682,-1.5842,-1.4561,-1.4848,-1.4776,-1.3637,-1.3492,-1.3492,-1.3492,-1.3492,-1.3492,-1.3492,-1.2378,-1.1409,-1.0663,-0.9614,-0.8861,-0.8441,-0.6819,-0.5815,-0.5583,-0.4031,-0.2823,-0.196,-0.0313,0.1837,-2.6393,-2.623,-2.6078,-2.7346,-2.6992,-2.6419,-2.6788,-2.7011,-2.7026,-2.6734,-2.7077,0.0,0.0,0.0,-2.5958,-2.5835,0.0,-2.4085,-2.5019,-2.3,-2.1917,-2.32,-2.2877,-2.2561,-2.2659,-2.1367,-2.1078,-2.2356,-2.1163,-2.0765,-2.1663,-2.1397,-2.119,-2.119,-2.1273,-2.1368,-2.1368,-2.1839,-2.2099,-2.2087,-2.2937,-2.313,-2.2714,-2.3594,-2.3505,-2.2732,-2.38,-2.4266,-2.4323,-2.4991,-2.5258,-2.5286,-2.5729,-2.5619,-2.5314,-2.5729,-2.5893,-2.5893,-2.5893,-2.5893,-2.5811,-2.5328,-2.5159,-2.5047,-2.4392,-2.4105,-2.38,-2.2864,-2.2512,-2.2206,-2.14,-2.119,-2.119,-2.119,-2.119,-2.1158,-2.1063,-2.0603,-2.0204,-2.0139,-1.9616,-1.9241,-1.9241,-1.8361,-1.7545,-1.7304,-1.6968,-1.6193,-1.4669,-1.5018,-1.4939,-1.3637,-1.3492,-1.3492,-1.3492,-1.3492,-1.3419,-1.3273,-1.2268,-1.1223,-1.018,-0.9582,-0.9165,-0.8856,-0.7395,-0.6356,-0.5777,-0.4732,-0.3602,-0.247,-0.0784,0.129,-2.7341,-2.7165,-2.7162,-2.8138,-2.7373,-2.6734,-2.8042,-2.7349,-2.6595,-2.7226,-2.6872,-2.629,-2.5824,-2.5716,-2.5576,-2.5197,-2.4582,0.0,0.0,-2.3094,-2.2825,-2.4371,-2.3509,-2.2804,-2.2786,-2.1645,-2.1165,-2.1772,-2.089,-2.0582,-2.1198,-2.1201,-2.119,-2.119,-2.119,-2.1221,-2.1221,-2.2113,-2.2561,-2.2592,-2.3522,-2.3962,-2.3933,-2.3992,-2.3992,-2.3992,-2.4666,-2.4977,-2.5005,-2.5619,-2.5866,-2.5866,-2.5893,-2.5893,-2.5866,-2.5893,-2.5893,-2.5893,-2.5893,-2.5893,-2.5729,-2.4666,-2.435,-2.4234,-2.3628,-2.3053,-2.2652,-2.2592,-2.2267,-2.1827,-2.1348,-2.119,-2.119,-2.119,-2.119,-2.1094,-2.07,-2.0603,-2.0506,-2.0161,-1.9824,-1.9572,-1.9572,-1.8841,-1.7954,-1.7044,-1.751,-1.7019,-1.4446,-1.5207,-1.5349,-1.3674,-1.3492,-1.3492,-1.3492,-1.3492,-1.3236,-1.2673,-1.204,-1.1409,-1.0812,-0.9809,-0.9284,-0.9284,-0.828,-0.7242,-0.6163,-0.5538,-0.4297,-0.247,-0.1371,0.0039,-2.7644,-2.7585,-2.7518,-2.8607,-2.8287,-2.7842,-2.8304,-2.8057,-2.7657,-2.7442,-2.7211,-2.6896,-2.6283,-2.5764,-2.5377,-2.5243,-2.4845,-2.4515,0.0,-2.3981,-2.3557,-2.3605,-2.2537,-2.1858,-2.1982,-2.0491,-2.0221,-2.1956,-2.0711,-2.0584,-2.211,-2.1565,-2.1348,-2.1639,-2.1368,-2.1348,-2.1671,-2.2075,-2.2555,-2.3062,-2.3904,-2.4208,-2.4021,-2.4866,-2.4809,-2.405,-2.5147,-2.537,-2.5061,-2.5647,-2.5893,-2.5893,-2.5893,-2.5893,-2.5893,-2.5893,-2.5893,-2.5893,-2.5893,-2.5771,-2.5508,-2.4593,-2.4134,-2.3901,-2.3509,-2.3035,-2.2592,-2.2592,-2.2267,-2.1784,-2.1316,-2.119,-2.119,-2.119,-2.119,-2.1158,-2.1031,-2.0796,-2.0571,-2.0442,-1.9987,-1.9605,-1.9605,-1.8875,-1.8066,-1.7329,-1.7028,-1.6368,-1.4991,-1.5436,-1.5365,-1.4021,-1.3884,-1.3775,-1.3528,-1.3492,-1.3236,-1.2636,-1.204,-1.1446,-1.0812,-1.0105,-0.9582,-0.9322,-0.8585,-0.7774,-0.6857,-0.5809,-0.4844,-0.3917,-0.2036,-0.0156,-2.8014,-2.7977,-2.7937,-2.867,-2.8435,-2.8042,-2.8042,-2.7842,-2.755,-2.7134,-2.6842,-2.6595,-2.6395,-2.5595,-2.5019,-2.525,-2.4887,-2.4517,0.0,-2.4149,-2.3777,-2.3171,-2.2183,-2.1591,-2.1666,-2.0604,-2.0444,-2.1611,-2.0996,-2.099,-2.2022,-2.1649,-2.1554,-2.1849,-2.1763,-2.1846,-2.2156,-2.2525,-2.3027,-2.3682,-2.4465,-2.478,-2.4696,-2.5536,-2.5453,-2.4724,-2.5536,-2.5674,-2.5342,-2.5729,-2.5893,-2.5893,-2.5893,-2.5893,-2.5893,-2.5893,-2.5893,-2.5893,-2.5798,-2.5647,-2.5313,-2.4234,-2.3946,-2.3888,-2.3125,-2.2738,-2.2573,-2.239,-2.2002,-2.1577,-2.1285,-2.119,-2.119,-2.119,-2.119,-2.119,-2.119,-2.0871,-2.0603,-2.0603,-2.0064,-1.9605,-1.9605,-1.8697,-1.7862,-1.7451,-1.7003,-1.6333,-1.5346,-1.5586,-1.5444,-1.4382,-1.4165,-1.3956,-1.3528,-1.3492,-1.3346,-1.2936,-1.215,-1.1521,-1.1149,-1.0218,-0.9582,-0.9322,-0.8775,-0.808,-0.7203,-0.6121,-0.5312,-0.4659,-0.2349,-0.0626]},{"header":{"parameterUnit":"m.s-1","parameterCategory":1,"la1":30.6,"la2":29.2853,"lo1":-89.7004,"lo2":-87.6739,"dy":0.0162,"dx":0.0183,"nx":112,"ny":82,"refTime":"2024-05-26T12:00:00:Z","depth":0,"parameterNumber":3,"parameterNumberName":"V-component_of_WINDS"},"data":[0.0,0.0,0.0,0.0,0.0,0.0,0.0,0.0,0.0,0.0,0.0,0.0,0.0,0.0,0.0,0.0,0.0,0.0,0.0,0.0,0.0,0.0,0.0,0.0,0.0,0.0,0.0,0.0,0.0,0.0,0.0,0.0,0.0,0.0,0.0,0.0,0.0,0.0,0.0,0.0,0.0,0.0,0.0,0.0,0.0,0.0,0.0,0.0,0.0,0.0,0.0,0.0,0.0,0.0,0.0,0.0,0.0,0.0,0.0,0.0,0.0,0.0,0.0,0.0,0.0,0.0,0.0,0.0,0.0,0.0,0.0,0.0,0.0,0.0,0.0,0.0,0.0,0.0,0.0,0.0,0.0,0.0,0.0,0.0,0.0,0.0,0.0,0.0,0.0,0.0,1.9729,1.8267,1.5948,1.4261,1.3692,1.3011,1.2506,1.2318,0.0,0.0,0.0,0.0,0.0,0.0,0.0,0.0,0.0,0.0,0.0,0.0,0.0,0.0,0.0,0.0,0.0,0.0,0.0,0.0,0.0,0.0,0.0,0.0,0.0,0.0,0.0,0.0,0.0,0.0,0.0,0.0,0.0,0.0,0.0,0.0,0.0,0.0,0.0,0.0,0.0,0.0,0.0,0.0,0.0,0.0,0.0,0.0,0.0,0.0,0.0,0.0,0.0,0.0,0.0,0.0,0.0,0.0,0.0,0.0,0.0,0.0,0.0,0.0,0.0,0.0,0.0,0.0,0.0,0.0,0.0,0.0,0.0,0.0,0.0,0.0,0.0,0.0,0.0,0.0,0.0,0.0,0.0,0.0,0.0,0.0,0.0,0.0,0.0,0.0,0.0,0.0,0.0,0.0,0.0,0.0,0.0,0.0,0.0,0.0,0.0,0.0,0.0,0.0,1.9311,1.8232,1.5948,1.4469,1.435,1.3277,1.2506,1.2318,0.0,0.0,0.0,0.0,0.0,0.0,0.0,0.0,0.0,0.0,0.0,0.0,0.0,0.0,0.0,0.0,0.0,0.0,0.0,0.0,0.0,0.0,0.0,0.0,0.0,0.0,0.0,0.0,0.0,0.0,0.0,0.0,0.0,0.0,0.0,0.0,0.0,0.0,0.0,0.0,0.0,0.0,0.0,0.0,0.0,0.0,0.0,0.0,0.0,0.0,0.0,0.0,0.0,0.0,0.0,0.0,0.0,0.0,0.0,0.0,0.0,0.0,0.0,0.0,0.0,0.0,0.0,0.0,0.0,0.0,0.0,0.0,0.0,0.0,0.0,0.0,0.0,0.0,0.0,0.0,0.0,0.0,0.0,0.0,0.0,0.0,0.0,0.0,0.0,0.0,0.0,0.0,0.0,0.0,0.0,0.0,0.0,0.0,0.0,0.0,0.0,0.0,0.0,1.8947,1.8287,1.812,1.6234,1.4854,1.4529,1.3631,1.2847,1.2318,1.2304,0.0,0.0,0.0,0.0,0.0,0.0,0.0,0.0,0.0,0.0,0.0,0.0,0.0,0.0,0.0,0.0,0.0,0.0,0.0,0.0,0.0,0.0,0.0,0.0,0.0,0.0,0.0,0.0,0.0,0.0,0.0,0.0,0.0,0.0,0.0,0.0,0.0,0.0,0.0,0.0,0.0,0.0,0.0,0.0,0.0,0.0,0.0,0.0,0.0,0.0,0.0,0.0,0.0,0.0,0.0,0.0,0.0,0.0,0.0,0.0,0.0,0.0,0.0,0.0,0.0,0.0,0.0,0.0,0.0,0.0,0.0,0.0,0.0,0.0,0.0,0.0,0.0,0.0,0.0,0.0,0.0,0.0,0.0,0.0,0.0,0.0,0.0,0.0,0.0,0.0,0.0,0.0,0.0,0.0,0.0,0.0,0.0,0.0,0.0,0.0,0.0,0.0,1.8895,1.7947,1.8074,1.6602,1.5362,1.4765,1.3903,1.3129,1.2579,1.2321,0.0,0.0,0.0,0.0,0.0,0.0,0.0,0.0,0.0,0.0,0.0,0.0,0.0,0.0,0.0,0.0,0.0,0.0,0.0,0.0,0.0,0.0,0.0,0.0,0.0,0.0,0.0,0.0,0.0,0.0,0.0,0.0,0.0,0.0,0.0,0.0,0.0,0.0,0.0,0.0,0.0,0.0,0.0,0.0,0.0,0.0,0.0,0.0,0.0,0.0,0.0,0.0,0.0,0.0,0.0,0.0,0.0,0.0,0.0,0.0,0.0,0.0,0.0,0.0,0.0,0.0,0.0,0.0,0.0,0.0,0.0,0.0,0.0,0.0,0.0,0.0,0.0,0.0,0.0,0.0,0.0,0.0,0.0,0.0,0.0,0.0,0.0,0.0,0.0,0.0,0.0,0.0,0.0,0.0,0.0,0.0,0.0,0.0,0.0,0.0,0.0,0.0,1.9596,1.9169,1.819,1.6974,1.5995,1.5381,1.3909,1.3086,1.3223,1.236,0.0,0.0,0.0,0.0,0.0,0.0,0.0,0.0,0.0,0.0,0.0,0.0,0.0,0.0,0.0,0.0,0.0,0.0,0.0,0.0,0.0,0.0,0.0,0.0,0.0,0.0,0.0,0.0,0.0,0.0,0.0,0.0,0.0,0.0,0.0,0.0,0.0,0.0,0.0,0.0,0.0,0.0,0.0,0.0,0.0,0.0,0.0,0.0,0.0,0.0,0.0,0.0,0.0,0.0,0.0,0.0,0.0,0.0,0.0,0.0,0.0,0.0,0.0,0.0,0.0,0.0,0.0,0.0,0.0,0.0,0.0,0.0,0.0,0.0,0.0,0.0,0.0,0.0,0.0,0.0,0.0,0.0,0.0,0.0,0.0,0.0,0.0,0.0,0.0,0.0,0.0,0.0,0.0,0.0,0.0,0.0,0.0,0.0,0.0,0.0,0.0,0.0,1.957,1.9183,1.9117,1.7763,1.662,1.5995,1.4713,1.3755,1.3323,0.0,0.0,0.0,0.0,0.0,0.0,0.0,0.0,0.0,0.0,0.0,0.0,0.0,0.0,0.0,0.0,0.0,0.0,0.0,0.0,0.0,0.0,0.0,0.0,0.0,0.0,0.0,0.0,0.0,0.0,0.0,0.0,0.0,0.0,0.0,0.0,0.0,0.0,0.0,0.0,0.0,0.0,0.0,0.0,0.0,0.0,0.0,0.0,0.0,0.0,0.0,0.0,0.0,0.0,0.0,0.0,0.0,0.0,0.0,0.0,0.0,0.0,0.0,0.0,0.0,0.0,0.0,0.0,0.0,0.0,0.0,0.0,0.0,0.0,0.0,0.0,0.0,0.0,0.0,0.0,0.0,0.0,0.0,0.0,0.0,0.0,0.0,0.0,0.0,0.0,0.0,0.0,0.0,0.0,0.0,0.0,0.0,0.0,0.0,0.0,0.0,0.0,2.0189,1.9874,1.9633,1.9621,1.8463,1.7413,1.6638,1.556,1.4516,1.3649,0.0,0.0,0.0,0.0,0.0,0.0,0.0,0.0,0.0,0.0,0.0,0.0,0.0,0.0,0.0,0.0,0.0,0.0,0.0,0.0,0.0,0.0,0.0,0.0,0.0,0.0,0.0,0.0,0.0,0.0,0.0,0.0,0.0,0.0,0.0,0.0,0.0,0.0,0.0,0.0,0.0,0.0,0.0,0.0,0.0,0.0,0.0,0.0,0.0,0.0,0.0,0.0,0.0,0.0,0.0,0.0,0.0,0.0,0.0,0.0,0.0,0.0,0.0,0.0,0.0,0.0,0.0,0.0,0.0,0.0,0.0,0.0,0.0,0.0,0.0,0.0,0.0,0.0,0.0,0.0,0.0,0.0,0.0,0.0,0.0,0.0,0.0,0.0,0.0,0.0,0.0,0.0,0.0,0.0,0.0,0.0,0.0,0.0,0.0,0.0,0.0,0.0,1.9958,2.0687,2.0733,1.9553,1.9056,1.839,1.7313,1.6356,1.5361,0.0,0.0,0.0,0.0,0.0,0.0,0.0,0.0,0.0,0.0,0.0,0.0,0.0,0.0,0.0,0.0,0.0,0.0,0.0,0.0,0.0,0.0,0.0,0.0,0.0,0.0,0.0,0.0,0.0,0.0,0.0,0.0,0.0,0.0,0.0,0.0,0.0,0.0,0.0,0.0,0.0,0.0,0.0,0.0,0.0,0.0,0.0,0.0,0.0,0.0,0.0,0.0,0.0,0.0,0.0,0.0,0.0,0.0,0.0,0.0,0.0,0.0,0.0,0.0,0.0,0.0,0.0,0.0,0.0,0.0,0.0,0.0,0.0,0.0,0.0,0.0,0.0,0.0,0.0,0.0,0.0,0.0,0.0,0.0,0.0,0.0,0.0,0.0,0.0,0.0,0.0,0.0,0.0,0.0,0.0,0.0,0.0,0.0,0.0,0.0,0.0,0.0,0.0,2.0688,2.1102,2.1129,2.0584,1.9747,1.9004,1.8509,1.7049,1.5687,1.4635,0.0,0.0,0.0,0.0,0.0,0.0,0.0,0.0,0.0,0.0,0.0,0.0,0.0,0.0,0.0,0.0,0.0,0.0,0.0,0.0,0.0,0.0,0.0,0.0,0.0,0.0,0.0,0.0,0.0,0.0,0.0,0.0,0.0,0.0,0.0,0.0,0.0,0.0,0.0,0.0,0.0,0.0,0.0,0.0,0.0,0.0,0.0,0.0,0.0,0.0,0.0,0.0,0.0,0.0,0.0,0.0,0.0,0.0,0.0,0.0,0.0,0.0,0.0,0.0,0.0,0.0,0.0,0.0,0.0,0.0,0.0,0.0,0.0,0.0,0.0,0.0,0.0,0.0,0.0,0.0,0.0,0.0,0.0,0.0,0.0,0.0,0.0,0.0,0.0,0.0,0.0,0.0,0.0,0.0,0.0,0.0,0.0,0.0,0.0,0.0,0.0,0.0,2.0851,2.1324,2.1479,2.1202,2.0258,1.9453,1.9013,1.7986,1.6596,1.4769,0.0,0.0,0.0,0.0,0.0,0.0,0.0,0.0,0.0,0.0,0.0,0.0,0.0,0.0,0.0,0.0,0.0,0.0,0.0,0.0,0.0,0.0,0.0,0.0,0.0,0.0,0.0,0.0,0.0,0.0,0.0,0.0,0.0,0.0,0.0,0.0,0.0,0.0,0.0,0.0,0.0,0.0,0.0,0.0,0.0,0.0,0.0,0.0,0.0,0.0,0.0,0.0,0.0,0.0,0.0,0.0,0.0,0.0,0.0,0.0,0.0,0.0,0.0,0.0,0.0,0.0,0.0,0.0,0.0,0.0,0.0,0.0,0.0,0.0,0.0,0.0,0.0,0.0,0.0,0.0,0.0,0.0,0.0,0.0,0.0,0.0,0.0,0.0,0.0,0.0,0.0,0.0,0.0,0.0,0.0,0.0,0.0,0.0,0.0,0.0,0.0,0.0,2.067,2.1431,2.1758,2.1342,2.0519,1.9699,1.8931,1.8864,1.7658,1.4832,0.0,0.0,0.0,0.0,0.0,0.0,0.0,0.0,0.0,0.0,0.0,0.0,0.0,0.0,0.0,0.0,0.0,0.0,0.0,0.0,0.0,0.0,0.0,0.0,0.0,0.0,0.0,0.0,0.0,0.0,0.0,0.0,0.0,0.0,0.0,0.0,0.0,0.0,0.0,0.0,0.0,0.0,0.0,0.0,0.0,0.0,0.0,0.0,0.0,0.0,0.0,0.0,0.0,0.0,0.0,0.0,0.0,0.0,0.0,0.0,2.4291,2.4086,0.0,0.0,0.0,0.0,0.0,0.0,0.0,0.0,0.0,0.0,0.0,0.0,0.0,0.0,0.0,0.0,0.0,0.0,0.0,0.0,0.0,0.0,0.0,0.0,0.0,0.0,0.0,0.0,0.0,0.0,0.0,0.0,0.0,0.0,0.0,0.0,0.0,0.0,0.0,0.0,2.0919,2.1652,2.168,2.0509,2.0194,1.9671,1.8665,1.8153,1.7059,1.511,1.4403,0.0,0.0,0.0,0.0,0.0,0.0,0.0,0.0,0.0,0.0,0.0,0.0,0.0,0.0,0.0,0.0,0.0,0.0,0.0,0.0,0.0,0.0,0.0,0.0,0.0,0.0,0.0,0.0,0.0,0.0,0.0,0.0,0.0,0.0,0.0,0.0,0.0,0.0,0.0,0.0,0.0,0.0,0.0,0.0,0.0,0.0,0.0,0.0,0.0,0.0,0.0,0.0,0.0,0.0,0.0,0.0,0.0,0.0,0.0,2.5307,2.4987,0.0,0.0,0.0,0.0,0.0,0.0,0.0,0.0,0.0,0.0,0.0,0.0,0.0,0.0,0.0,0.0,0.0,0.0,0.0,0.0,0.0,0.0,0.0,0.0,0.0,0.0,0.0,0.0,0.0,0.0,0.0,0.0,0.0,0.0,0.0,0.0,0.0,0.0,0.0,0.0,2.1317,2.1794,2.1662,2.0459,1.9966,1.935,1.8477,1.813,1.7181,1.5405,1.46,0.0,0.0,0.0,0.0,0.0,0.0,0.0,0.0,0.0,0.0,0.0,0.0,0.0,0.0,0.0,0.0,0.0,0.0,0.0,0.0,0.0,0.0,0.0,0.0,0.0,0.0,0.0,0.0,0.0,0.0,0.0,0.0,0.0,0.0,0.0,0.0,0.0,0.0,0.0,0.0,0.0,0.0,0.0,0.0,0.0,0.0,0.0,0.0,0.0,0.0,0.0,0.0,0.0,2.6895,2.6928,2.7463,2.6802,2.6802,2.7257,2.6327,2.5875,2.5795,2.5675,0.0,0.0,0.0,0.0,0.0,0.0,0.0,0.0,0.0,0.0,0.0,0.0,0.0,0.0,0.0,0.0,0.0,0.0,0.0,0.0,0.0,0.0,2.6006,2.5263,2.568,2.6016,2.5291,0.0,0.0,0.0,0.0,0.0,0.0,0.0,0.0,0.0,0.0,0.0,2.1745,2.1943,2.1634,2.0506,1.9745,1.899,1.8147,1.8064,1.7339,1.5605,1.4846,1.3998,0.0,0.0,0.0,0.0,0.0,0.0,0.0,0.0,0.0,0.0,0.0,0.0,0.0,0.0,0.0,0.0,0.0,0.0,0.0,0.0,0.0,0.0,0.0,0.0,0.0,0.0,0.0,0.0,0.0,0.0,0.0,0.0,2.6739,2.7601,0.0,0.0,0.0,0.0,0.0,0.0,0.0,0.0,0.0,0.0,0.0,0.0,0.0,2.6996,2.7879,2.8163,2.8541,2.899,2.9144,2.9144,2.899,2.8321,2.8063,2.8114,2.7516,0.0,2.6912,2.6037,0.0,0.0,0.0,0.0,0.0,0.0,0.0,0.0,0.0,0.0,0.0,0.0,0.0,0.0,0.0,0.0,0.0,0.0,0.0,0.0,0.0,0.0,2.6898,2.6748,2.6702,2.6736,2.6858,2.584,2.4611,2.3582,2.3397,2.33,0.0,0.0,0.0,0.0,0.0,0.0,2.2022,2.2173,2.1614,1.9773,1.9454,1.8782,1.7308,1.7174,1.6678,1.5558,1.496,1.4088,1.2791,1.2564,0.0,0.0,0.0,0.0,0.0,0.0,0.0,0.0,0.0,0.0,0.0,0.0,0.0,0.0,0.0,0.0,0.0,0.0,0.0,0.0,0.0,0.0,0.0,0.0,0.0,0.0,0.0,0.0,0.0,2.5843,2.6662,2.7457,2.6405,2.5863,0.0,0.0,0.0,0.0,0.0,0.0,0.0,0.0,0.0,2.7215,2.8014,2.861,2.9056,2.9272,2.9512,2.9744,2.9877,2.986,2.9726,2.9526,2.9416,2.9414,2.9299,2.9185,2.8989,2.7459,2.6924,2.7008,0.0,0.0,0.0,0.0,2.617,2.5846,2.6177,2.6303,2.6234,2.5742,0.0,0.0,0.0,0.0,0.0,0.0,0.0,2.6375,2.6611,2.7004,2.7308,2.723,2.7246,2.726,2.7355,2.6838,2.6085,2.5143,2.4917,2.4705,2.4128,2.3502,0.0,0.0,0.0,2.3491,2.3271,2.2926,2.2259,2.1001,2.0128,1.9154,1.8003,1.7455,1.6803,1.5947,1.5062,1.4437,1.4068,1.339,1.2873,0.0,0.0,0.0,0.0,0.0,0.0,0.0,0.0,0.0,0.0,0.0,0.0,0.0,0.0,0.0,0.0,0.0,0.0,0.0,0.0,0.0,0.0,0.0,0.0,0.0,0.0,0.0,0.0,2.6542,2.6874,2.7507,2.6868,2.6638,0.0,0.0,0.0,0.0,0.0,0.0,2.7216,2.8065,2.8525,2.8425,2.9429,3.0028,3.0122,3.0289,3.046,3.0703,3.0703,3.0703,3.0685,3.0584,3.0525,3.0523,3.0531,3.0517,3.0398,2.8953,2.84,2.8458,2.8417,2.8091,2.7734,2.8275,2.8116,2.7713,2.8147,2.8313,2.8208,2.7519,2.7267,2.715,2.6603,0.0,0.0,0.0,0.0,2.7337,2.7757,2.8055,2.824,2.8179,2.8127,2.8076,2.8017,2.7817,2.7385,2.6504,2.6247,2.5967,2.5293,2.4787,0.0,2.5243,2.4795,2.4394,2.4321,2.3727,2.2963,2.2099,2.102,1.9881,1.8704,1.79,1.7093,1.6244,1.5153,1.4731,1.5085,1.4114,1.3672,1.3894,0.0,0.0,0.0,0.0,0.0,0.0,0.0,0.0,0.0,0.0,0.0,0.0,0.0,0.0,0.0,0.0,0.0,0.0,0.0,0.0,0.0,0.0,0.0,0.0,0.0,0.0,0.0,0.0,0.0,2.8309,2.7301,0.0,0.0,0.0,0.0,2.8844,2.9053,2.9417,3.013,3.0291,3.0285,3.0092,3.0161,3.0469,3.1025,3.1043,3.1461,3.2283,3.2283,3.2283,3.2265,3.151,3.1141,3.1122,3.0563,3.0307,3.0322,3.0196,3.0222,3.0252,3.007,3.0004,3.0028,3.0006,2.9974,2.9939,2.9959,2.9976,2.9943,2.9792,2.9631,2.9535,2.9566,2.9661,0.0,0.0,2.9862,3.007,2.9966,3.0088,3.0252,3.0252,2.9815,2.9406,2.9406,2.8806,2.7989,2.7116,2.6956,2.6906,2.679,0.0,2.5957,2.6438,2.563,2.4874,2.4697,2.4301,2.3513,2.2152,2.1934,2.1011,1.8794,1.816,1.7384,1.6268,1.5243,1.4812,1.5085,1.4537,1.4134,1.3894,1.4162,0.0,0.0,0.0,0.0,0.0,0.0,0.0,0.0,0.0,0.0,0.0,0.0,0.0,0.0,0.0,0.0,0.0,0.0,0.0,0.0,0.0,0.0,0.0,0.0,0.0,0.0,0.0,0.0,2.8408,2.8631,0.0,2.9178,2.9042,2.9173,2.9704,2.9997,3.0237,3.038,3.0912,3.1197,3.1184,3.1713,3.2123,3.2311,3.2406,3.2612,3.2914,3.2736,3.2784,3.2957,3.2592,3.242,3.2418,3.2289,3.2135,3.1967,3.1965,3.1377,3.0454,3.0379,3.0379,3.0394,3.0363,3.0406,3.0478,3.0478,3.0585,3.0686,3.0718,3.07,3.0686,3.0798,3.0742,3.0661,3.0686,3.0693,3.0686,3.0628,3.0643,3.0672,3.0672,3.0456,3.0273,3.0273,2.998,2.9619,2.9309,2.8323,2.74,2.707,2.6784,2.6651,2.6775,2.6421,2.6067,2.5827,2.5476,2.5001,2.4315,2.3409,2.2394,2.133,1.9649,1.8384,1.7713,1.609,1.5355,1.5792,1.5164,1.4903,1.5122,1.49,1.4601,0.0,0.0,0.0,0.0,0.0,0.0,0.0,0.0,0.0,0.0,0.0,0.0,0.0,0.0,0.0,0.0,0.0,0.0,0.0,0.0,0.0,0.0,0.0,0.0,0.0,2.8437,2.8841,2.9007,2.964,3.002,2.9973,3.018,3.0411,3.0692,3.0999,3.1239,3.144,3.199,3.2277,3.2217,3.278,3.3068,3.299,3.3083,3.3144,3.316,3.3019,3.3047,3.3262,3.3202,3.3172,3.3172,3.3262,3.3187,3.3021,3.3021,3.2396,3.1434,3.1347,3.1316,3.1316,3.1404,3.1505,3.1589,3.1703,3.1847,3.1987,3.2014,3.2009,3.2004,3.2044,3.1892,3.1755,3.1856,3.1759,3.165,3.165,3.1679,3.1711,3.1711,3.1508,3.1355,3.1355,3.106,3.0788,3.0689,2.9604,2.8603,2.8301,2.8016,2.7815,2.7687,2.7303,2.6905,2.6539,2.6264,2.5873,2.5351,2.4553,2.365,2.269,2.0857,1.9496,1.8801,1.6957,1.6113,1.6578,1.5975,1.579,1.611,1.5743,1.5488,1.5362,0.0,0.0,0.0,0.0,0.0,0.0,0.0,0.0,0.0,0.0,0.0,0.0,0.0,0.0,0.0,0.0,0.0,0.0,0.0,0.0,0.0,0.0,0.0,2.8999,2.8945,2.9323,3.0238,3.0237,3.027,3.0528,3.0455,3.0802,3.1835,3.2061,3.252,3.3441,3.3633,3.3559,3.3235,3.3276,3.3217,3.3021,3.3021,3.3052,3.3132,3.3175,3.322,3.3235,3.3276,3.3306,3.3321,3.3321,3.3306,3.3306,3.3306,3.3306,3.3276,3.3008,3.2916,3.293,3.3202,3.3306,3.3364,3.3694,3.386,3.3868,3.3671,3.3601,3.3573,3.3379,3.3276,3.3235,3.3235,3.3175,3.3132,3.3132,3.3331,3.3506,3.3506,3.3058,3.2638,3.2638,3.2027,3.1407,3.1142,3.0832,3.0596,3.0513,2.9966,2.9482,2.9273,2.8276,0.0,2.6838,2.6556,2.605,2.5044,2.5275,2.4684,2.2667,2.1667,2.0649,1.944,1.7842,1.7085,1.7402,1.6963,1.6727,1.6752,1.6739,1.6953,1.7412,0.0,0.0,0.0,0.0,0.0,0.0,0.0,0.0,0.0,0.0,0.0,0.0,0.0,0.0,0.0,0.0,0.0,0.0,0.0,0.0,0.0,2.9582,2.974,2.958,3.0344,3.1029,3.1273,3.1587,3.1807,3.1873,3.1921,3.209,3.24,3.267,3.2961,3.3265,3.3462,3.3563,3.3555,3.3569,3.3583,3.3583,3.3638,3.3648,3.368,3.3541,3.3583,3.377,3.3597,3.3545,3.3583,3.3583,3.3484,3.3306,3.3306,3.3306,3.3291,3.3217,3.3187,3.3187,3.3276,3.3397,3.3545,3.3721,3.3868,3.3959,3.3908,3.3921,3.3959,3.3954,3.3876,3.3784,3.3837,3.377,3.368,3.368,3.3694,3.3712,3.3712,3.3601,3.3476,3.3476,3.3461,3.3408,3.3327,3.3246,3.2622,3.0808,3.0349,3.0209,3.0148,2.9458,2.8744,2.8145,2.7566,2.6887,2.6068,2.5834,2.5422,2.4703,2.3171,2.1795,2.0667,1.9001,1.7938,1.7642,1.7343,1.739,1.7781,1.7453,1.7512,0.0,0.0,0.0,0.0,0.0,0.0,0.0,0.0,0.0,0.0,0.0,0.0,0.0,0.0,0.0,0.0,0.0,0.0,0.0,0.0,0.0,0.0,3.0536,3.1064,3.1089,3.1578,3.2008,3.2316,3.2612,3.277,3.277,3.2719,3.2718,3.2816,3.2848,3.2928,3.307,3.3268,3.3415,3.3484,3.3601,3.3684,3.3766,3.3807,3.3815,3.3873,3.3766,3.382,3.3947,3.3834,3.3793,3.3834,3.3834,3.3748,3.3592,3.3592,3.362,3.3602,0.0,0.0,0.0,0.0,3.3662,3.3895,3.3947,3.4036,3.4124,3.4061,3.4074,3.4099,3.4111,3.4049,3.3972,3.4011,3.3934,3.3873,3.3873,3.3908,3.3886,3.3504,3.3443,3.3394,3.3111,3.3388,3.3713,3.3806,3.4027,0.0,3.2417,3.1719,3.1387,3.1415,3.0396,2.9396,2.88,2.7982,2.7159,2.635,2.6068,2.5779,2.5424,2.4084,0.0,0.0,0.0,1.9011,1.8158,1.8009,0.0,0.0,0.0,0.0,0.0,0.0,0.0,0.0,1.8326,1.8521,0.0,0.0,0.0,0.0,0.0,0.0,0.0,0.0,0.0,0.0,0.0,0.0,0.0,0.0,0.0,0.0,3.1709,3.2859,3.3012,3.2672,3.2641,3.3274,3.3335,3.3306,3.3306,3.3032,3.2939,3.3111,3.288,3.2768,3.2916,3.3117,0.0,0.0,0.0,3.3587,3.3657,3.3671,3.3726,3.3793,3.3842,3.3868,3.3881,3.3947,3.3985,3.3985,3.3985,3.3998,3.3998,3.3998,3.4036,3.4049,3.3574,3.3375,3.3437,3.3734,3.4023,3.4281,3.4209,0.0,0.0,3.4136,3.4086,3.4074,3.4023,3.3972,3.3934,3.3947,3.3921,3.3881,3.3881,3.4061,3.4022,3.3162,3.2976,3.2817,3.2141,3.2478,3.2944,3.3122,3.3676,3.4167,3.4333,3.3486,3.277,3.2729,3.1179,2.9759,2.9079,2.8087,2.7144,2.6317,2.6158,0.0,2.5349,2.4614,2.3873,2.3164,2.1585,2.0178,1.9002,1.8998,1.9308,1.9843,1.9317,1.9246,1.9668,1.9644,1.9953,2.0544,1.9186,1.9365,0.0,0.0,0.0,0.0,0.0,0.0,0.0,0.0,0.0,0.0,0.0,0.0,0.0,0.0,0.0,3.2004,3.2558,3.3019,3.3678,3.3707,3.3658,3.3703,3.3465,3.3306,3.3306,3.3229,3.3214,3.3262,3.3353,3.3313,3.3065,3.3202,3.322,3.3037,3.319,3.3342,3.3452,3.3563,3.3643,3.3726,3.3739,0.0,3.3815,3.3829,3.3855,3.3921,3.3921,3.3947,3.3998,3.3998,3.4011,3.4011,3.3954,3.3941,3.3954,3.4023,3.4124,3.4209,3.4148,3.4124,3.4124,3.4049,3.3985,3.3947,3.3985,3.4074,0.0,3.4209,3.4279,3.4357,3.4357,3.4409,3.4236,3.3409,3.3156,3.2866,3.2086,3.2104,3.2298,3.232,3.2945,3.3487,3.3529,3.372,3.366,3.2975,3.2031,3.0955,2.9701,2.8574,2.7692,2.7191,2.6522,2.6052,2.5943,2.5144,2.4268,2.3314,2.1978,2.1004,2.0493,2.094,2.1267,2.1366,2.1257,2.1263,2.1337,2.1431,2.1551,2.167,2.0894,2.0996,0.0,0.0,0.0,0.0,0.0,0.0,0.0,0.0,0.0,0.0,0.0,3.0277,3.0681,0.0,3.1647,3.2544,3.3048,3.3447,3.3891,3.3947,3.3934,3.3895,3.3743,3.3662,3.3662,3.355,3.3498,3.3498,3.3469,3.3383,3.3217,3.3368,3.3397,3.3294,3.328,3.3309,3.3452,3.3433,3.3444,3.3549,3.3619,3.3657,3.3698,3.3698,3.3712,3.3753,3.3753,3.378,3.3788,3.3847,3.3908,3.3998,3.3959,3.3985,3.4049,3.4049,3.4074,3.4099,3.4061,3.4049,3.4036,3.3972,3.4023,3.4099,3.4099,3.4215,3.436,3.4383,3.4461,3.4497,3.445,3.4526,3.4271,3.3006,3.2654,3.2287,3.1157,3.1232,3.1524,3.1629,3.255,3.3346,3.3476,3.3631,3.3563,3.3022,3.2203,3.1194,2.9904,2.8833,2.8069,2.7678,2.6969,2.6488,2.6488,2.5486,2.4451,2.3544,2.2756,2.2117,2.1668,2.1931,2.2021,2.1846,2.1846,2.1766,2.1612,2.2109,2.2365,2.242,2.263,2.2773,0.0,0.0,0.0,0.0,0.0,0.0,0.0,0.0,3.0639,3.0761,3.1303,3.1771,3.1799,3.2465,3.3025,3.3067,3.361,3.4041,3.4107,3.3979,3.3895,3.3947,3.3985,3.3998,3.3998,3.3842,3.3766,3.3766,3.3564,3.3419,3.3379,3.3526,3.3601,3.3545,3.3426,3.3397,3.352,3.3368,3.3386,3.3509,3.3619,3.3657,3.3671,3.3671,3.3671,3.3671,3.3671,3.3671,3.3684,3.3753,3.3855,3.3985,3.3855,3.3868,3.3959,3.3972,3.3985,3.4011,3.4049,3.4061,3.4061,3.4018,3.4166,3.4321,3.4274,3.4394,3.454,3.454,3.4551,3.4569,3.452,3.4609,3.4308,3.2569,3.2154,3.1723,3.0198,3.0326,3.0753,3.0911,3.1987,3.2938,3.3156,3.3118,3.3007,3.2836,3.1985,3.0966,2.9788,2.8925,2.8313,2.8024,2.7361,2.6888,2.6773,2.5748,2.4812,2.4096,2.3619,2.3124,2.2636,2.254,2.2376,2.2096,2.2223,2.2193,2.1903,2.2634,2.3039,2.3194,2.4153,2.4277,2.898,2.9093,2.9252,2.9399,3.0114,3.079,0.0,0.0,3.209,3.2164,3.2257,3.2449,3.2857,3.3575,3.4265,3.4655,3.4821,3.4876,3.489,3.4247,3.3802,3.3815,3.3921,3.3998,3.3998,3.3985,3.3972,3.3972,3.3998,3.3908,3.3671,3.3739,3.3638,3.3335,3.3488,3.3559,3.3591,3.3666,3.3762,3.3842,3.3855,3.3895,3.3959,3.3959,3.3959,3.3959,3.3959,3.3959,3.3959,3.4023,3.4036,3.3998,3.3908,3.3855,3.3815,3.3881,3.3947,3.4023,3.4209,3.4269,3.4274,3.4405,3.4453,3.4475,3.4464,3.458,3.4674,3.4674,3.4763,3.4851,3.4841,3.4851,3.4453,3.2768,3.2316,3.1826,3.0175,2.9925,3.0023,3.0048,3.0751,3.1367,3.1385,3.1855,3.2216,3.2117,3.1453,3.0507,2.9246,2.8743,2.8446,2.8357,2.7584,2.6853,2.6318,2.6033,2.5703,2.5316,2.4439,2.3751,2.3389,2.3036,2.2842,2.2801,2.3423,2.3754,2.3696,2.3873,2.4131,2.4496,2.5105,2.5047,2.9426,2.9494,2.9711,3.0291,3.074,3.119,3.1679,3.2418,3.3023,3.3087,3.3505,3.4046,3.4682,3.5061,3.548,3.6129,3.567,3.5219,3.5219,3.441,3.3972,3.4435,3.4545,3.4402,3.3937,3.3921,3.3947,3.3947,3.3998,3.3998,3.3868,3.3895,3.3855,3.3716,3.3684,3.3675,3.3675,3.3671,3.3698,3.3726,3.3788,3.3873,3.3881,3.3881,3.3881,3.3881,3.3881,3.3947,3.4049,3.3959,3.3998,3.4099,3.3959,3.3908,3.3908,3.3895,3.3908,3.3972,3.4173,3.4245,3.4257,3.4309,3.4435,3.4564,3.4564,3.4672,3.4821,3.4821,3.486,3.4898,3.4859,3.482,3.4478,3.321,3.251,3.1833,3.0734,3.0146,2.9855,2.9942,3.0633,3.1222,3.1222,3.144,3.1624,3.1595,3.1101,3.0358,2.936,2.9016,2.8724,2.8438,2.8066,2.7561,2.6836,2.659,2.6316,2.5984,2.5466,2.51,2.4973,2.4829,2.4681,2.4474,2.4341,2.4402,2.4637,2.4425,2.4718,2.5468,2.6057,2.625,2.9988,3.0097,3.0373,3.1311,3.1741,3.2105,3.2695,3.3447,3.4065,3.4109,3.4634,3.5265,3.5961,3.6261,3.6644,3.7321,3.6747,3.6205,3.6205,3.5279,3.4823,3.5399,3.539,3.5133,3.4541,3.4306,3.431,3.4549,3.421,3.4065,3.4292,3.4114,3.3998,3.3998,3.3855,3.3793,3.3793,3.3739,3.3712,3.3712,3.382,3.3873,3.3873,3.3873,3.3873,3.3873,3.3873,3.3934,3.4061,3.3959,3.4011,3.4161,3.4011,3.3972,3.3998,3.3972,3.3947,3.3959,3.4185,3.4257,3.4269,3.4309,3.4476,3.4636,3.4636,3.472,3.4821,3.4821,3.4782,3.4762,3.478,3.4697,3.4427,3.3642,3.2912,3.2178,3.1288,3.0657,3.0227,3.0113,3.0585,3.1016,3.1016,3.0986,3.0978,3.0971,3.0689,3.0217,2.9549,2.9254,2.8975,2.8628,2.8466,2.8161,2.7578,2.7251,2.6969,2.6739,2.632,2.6083,2.6083,2.5832,2.5697,2.5673,2.5142,2.5104,2.5615,2.5319,2.5613,2.6454,2.6884,2.7249,3.0722,3.1103,3.147,3.2413,3.3379,3.4115,3.4135,3.482,3.5448,3.5448,3.5467,3.564,3.6197,3.6929,3.762,3.8181,3.8228,3.8218,3.8218,3.7287,3.6619,3.6656,3.6427,3.6248,3.6229,3.5445,3.5316,3.6156,3.4775,3.4244,3.5022,3.4402,3.3998,3.3998,3.3998,3.3985,3.3985,3.3985,3.3985,3.3985,3.3998,3.3998,3.3998,3.3998,3.3998,3.3998,3.3998,3.3998,3.4011,3.4136,3.4161,3.4099,3.4099,3.4061,3.4011,3.4074,3.4049,3.4036,3.4293,3.4386,3.442,3.463,3.4684,3.4713,3.4713,3.466,3.4612,3.4612,3.4517,3.4454,3.4662,3.4556,3.4303,3.3882,3.361,3.3053,3.1608,3.1369,3.1225,3.0439,3.0305,3.0324,3.0324,3.0211,3.014,3.014,3.013,2.9992,2.9641,2.9291,2.9086,2.9075,2.8664,2.8394,2.8381,2.7996,2.7774,2.7774,2.6828,2.6286,2.6286,2.5229,2.5028,2.5859,2.5811,2.614,2.6927,2.6926,2.713,2.7546,2.7578,2.7755,3.1305,3.1867,3.2586,3.3472,3.3961,3.4359,3.493,3.5288,3.55,3.55,3.546,3.5674,3.642,3.7181,3.7944,3.8699,3.8683,3.8575,3.8575,3.7612,3.711,3.7697,3.7519,3.7572,3.8109,3.6781,3.5973,3.6266,3.5799,3.5358,3.505,3.4802,3.4425,3.3873,3.3908,3.3934,3.3934,3.3972,3.3998,3.3998,3.3998,3.3998,3.3998,3.3998,3.3998,3.3998,3.3998,3.3998,3.3998,3.4049,3.4049,3.4036,3.4036,3.4023,3.4011,3.4074,3.4086,3.4099,3.4316,3.4386,3.4397,3.4487,3.4509,3.4509,3.4509,3.4487,3.4473,3.4473,3.442,3.4427,3.4487,3.442,3.4334,3.4326,3.3844,3.3156,3.2349,3.1778,3.1217,3.0509,3.0374,3.0361,3.0365,3.0322,3.0316,3.0352,3.0142,2.9926,2.9809,2.9608,2.9453,2.9304,2.9166,2.9016,2.8883,2.8453,2.8197,2.8197,2.7618,2.7294,2.7294,2.6967,2.6946,2.7299,2.6789,2.7002,2.7928,2.7442,2.7689,2.865,2.865,2.8826,3.2314,3.291,3.3576,3.4442,3.4661,3.4814,3.5365,3.55,3.55,3.55,3.5453,3.5674,3.6546,3.7052,3.7723,3.8918,3.8937,3.8917,3.924,3.8561,3.8248,3.881,3.864,3.8646,3.9059,3.8007,3.726,3.7162,3.634,3.5734,3.5481,3.4894,3.4325,3.3825,3.3842,3.3855,3.3855,3.3908,3.3934,3.3934,3.3934,3.3934,3.3934,3.3934,3.3934,3.3934,3.3934,3.3934,3.3934,3.3947,3.3959,3.3972,3.3985,3.3998,3.4011,3.4049,3.4061,3.4086,3.4269,3.4328,3.4328,3.4328,3.4328,3.4328,3.4328,3.4328,3.4328,3.4328,3.4328,3.434,3.445,3.445,3.4476,3.4744,3.4396,3.3837,3.3284,3.2776,3.2108,3.1058,3.0864,3.076,3.0486,3.0439,3.0557,3.0912,3.0433,3.0037,3.0037,2.988,2.9728,2.9589,2.9464,2.9343,2.922,2.8854,2.864,2.864,2.8402,2.8259,2.8259,2.8054,2.8113,2.8491,2.778,2.7868,2.8838,2.8346,2.8545,2.9331,2.9371,2.9457,3.3672,3.4179,3.4468,3.5288,3.55,3.55,3.55,3.55,3.55,3.55,3.5491,3.5693,0.0,3.6631,3.7149,3.8765,3.9047,3.9355,4.0186,4.0087,3.9924,3.9924,3.9682,3.9427,3.917,3.9129,3.8974,3.8735,3.6486,3.5463,3.6266,3.4743,3.3844,3.3807,3.3807,3.3807,3.3807,3.3807,3.3807,3.3807,3.3807,3.3807,3.3807,3.3807,3.3807,3.3807,3.3807,3.3807,3.3788,3.3868,3.3895,3.3895,3.3959,3.3985,3.3985,3.3998,3.3998,3.4011,3.4148,3.4197,3.4197,3.4197,3.4197,3.4197,3.4197,3.4197,3.4197,3.4197,3.4197,3.4257,3.4517,3.4602,3.4699,3.5089,3.5201,3.5028,3.4345,3.4205,3.3692,3.2029,3.1675,3.1397,3.0634,3.0544,3.0854,3.1671,3.0995,3.0364,3.0358,3.0092,2.9905,2.9905,2.9636,2.9424,2.9433,2.9233,2.9118,2.9126,2.9115,2.9097,2.9097,2.8429,2.8474,2.9394,2.8707,2.8774,2.9635,2.9616,2.9616,2.9644,2.9719,2.971,3.4051,3.4654,3.5212,3.5442,3.55,3.55,3.55,3.55,3.55,3.55,3.5912,3.6155,3.5745,3.7138,3.8303,3.8101,3.9135,4.0053,4.0263,4.0244,0.0,4.0196,0.0,3.9773,3.9705,3.9337,3.9073,3.8989,3.7679,3.6688,3.6321,3.5293,3.4417,3.3825,3.3807,3.3807,3.3807,3.3807,3.3807,3.3807,3.3807,3.3807,3.3807,3.3807,3.3807,3.3807,3.3807,3.3807,3.3807,3.3815,3.3834,3.3834,3.3842,3.3842,3.3873,3.3908,3.3921,3.3934,3.4023,3.4086,3.4124,3.4124,3.4161,3.4197,3.4197,3.4197,3.4197,3.4197,3.4197,3.4221,3.4281,3.445,3.4658,3.4927,3.5089,3.5028,3.4345,3.4205,3.3692,3.2029,3.1221,3.0746,3.0544,3.1033,3.1536,3.1773,3.1579,3.1378,3.128,3.0553,3.0044,3.0044,2.9966,2.9891,2.9787,2.9598,2.9428,2.9332,2.918,2.9097,2.9097,2.8923,2.9031,2.9475,2.9239,2.9391,2.9961,2.9912,3.0006,3.0203,3.0208,3.0208,3.4654,3.5141,3.55,3.55,3.55,3.5404,3.5026,3.4916,3.4787,3.4422,3.4942,3.5312,3.4825,3.6184,3.7451,3.7708,3.856,0.0,4.0204,4.0301,4.0301,0.0,4.0166,0.0,3.9914,3.9526,3.9069,3.8613,3.7575,3.6795,3.6321,3.5147,3.4238,3.3766,3.3793,3.3793,3.3766,3.3726,3.3712,3.3712,3.3712,3.3712,3.3712,3.3739,3.3739,3.3712,3.378,3.3793,3.3766,3.3793,3.3807,3.3807,3.3807,3.3807,3.3788,3.3842,3.3873,3.3855,3.3895,3.3959,3.4023,3.4049,3.4086,3.4111,3.4111,3.4136,3.4161,3.4161,3.4173,3.4197,3.4197,3.4465,3.4761,3.486,3.5115,3.5227,3.4852,3.4776,3.427,3.2607,3.1303,3.0621,3.1003,3.1482,3.2072,3.2865,3.2309,3.1927,3.2256,3.1062,3.019,3.019,3.015,3.0073,2.9996,2.9877,2.9788,2.9705,2.9606,2.9542,2.9542,2.9542,2.9632,2.9794,2.9763,2.9908,3.0234,3.019,3.0253,3.0407,3.0462,3.0457,3.5288,3.55,3.55,3.55,3.55,3.5269,3.4391,3.4134,3.3876,3.3044,3.3564,3.4144,3.401,3.4883,3.6107,3.757,0.0,3.8518,4.0077,4.03,4.0301,4.0301,4.0301,4.0215,3.9986,3.9682,3.9077,3.8029,3.6925,3.6248,3.6138,3.4637,3.3766,3.3684,3.3739,3.3753,3.3684,3.3633,3.3605,3.3605,3.3605,3.3605,3.3605,3.3657,3.3643,3.3619,3.3726,3.3739,3.3684,3.3753,3.378,3.3793,3.3793,3.3775,3.3807,3.3807,3.3807,3.3807,3.3807,3.3847,3.3895,3.3959,3.3998,3.3998,3.3998,3.4036,3.4086,3.4086,3.4136,3.4197,3.4221,3.4556,3.4898,3.4917,3.5226,3.55,3.55,3.5334,3.4693,3.3127,3.1562,3.076,3.1636,3.1907,3.2551,3.4212,3.3052,3.2288,3.3099,3.1536,3.0345,3.0348,3.024,3.0157,3.0124,3.0136,3.011,3.0109,3.0109,3.0109,3.0109,3.0109,3.015,3.0203,3.0196,3.0272,3.0425,3.0414,3.0416,3.0438,3.0563,3.0539,3.5462,3.55,3.55,3.55,3.55,3.5262,3.4338,3.4113,0.0,3.2985,3.4028,3.4852,3.4125,3.5796,3.7394,3.7734,3.8359,3.9134,4.0164,4.03,4.0301,0.0,4.0301,4.0272,4.0234,3.9792,3.9152,3.8289,3.703,3.5991,3.5261,3.427,3.3684,3.3633,3.3633,3.3633,3.3619,3.3619,3.3605,3.3605,3.3605,3.3605,3.3605,3.3601,3.3619,3.3605,3.3615,3.3633,3.3619,3.3633,3.3657,3.3712,3.3712,3.3753,3.3807,3.3807,3.3807,3.3807,3.3807,3.382,3.3815,3.3895,3.3947,3.3998,3.3998,3.4011,3.4023,3.4023,3.4074,3.4161,3.4316,3.4639,3.4936,3.5035,3.5289,3.55,3.55,3.4411,3.3127,3.2112,3.1158,3.0755,3.1579,3.2401,3.3262,3.42,3.3599,3.308,3.3192,3.1655,3.0548,3.0545,3.0533,3.0452,3.0283,3.0265,3.0222,3.0115,3.0109,3.0109,3.0109,3.0109,3.0151,3.0283,3.0222,3.0325,3.0576,3.052,3.0543,3.0645,3.0672,3.0672,3.55,3.55,3.55,3.55,3.55,3.5147,3.3787,0.0,0.0,3.158,3.2618,3.3638,3.3114,3.4699,0.0,3.686,3.7177,3.7841,3.9281,3.9352,3.9407,3.9824,3.9881,3.9881,3.9881,3.9526,3.8775,3.7567,3.6735,3.5917,3.5059,3.4165,3.3684,3.3643,3.3591,3.3549,3.3549,3.3506,3.3509,3.3509,3.3509,3.3509,3.3509,3.3534,3.352,3.3491,3.3619,3.3629,3.3619,3.3671,3.3726,3.3753,3.3753,3.378,3.3807,3.3807,3.3807,3.3807,3.3807,3.3807,3.382,3.3847,3.3868,3.3895,3.3895,3.3921,3.3947,3.3947,3.4099,3.4281,3.4363,3.4693,3.5018,3.5088,3.496,3.4949,3.5404,3.4154,3.282,3.2415,3.2004,3.1881,3.2303,3.3131,3.3882,3.4339,3.3701,3.3064,3.2686,3.1505,3.0689,3.0665,3.0649,3.061,3.0466,3.0452,3.0429,3.0369,3.0358,3.0358,3.0358,3.0358,3.0386,3.0446,3.0419,3.0467,3.0606,3.0565,3.0591,3.0694,3.0694,3.0691,3.5467,3.5486,3.5474,3.55,3.55,3.5025,3.3221,3.2771,0.0,3.023,3.1152,3.227,3.2135,3.345,3.4888,0.0,3.6084,3.6718,3.8601,3.8701,3.8857,3.9652,3.9596,0.0,3.9514,3.9259,3.8427,3.6818,3.6118,3.5445,3.4756,3.406,3.3671,3.3675,3.3534,3.3481,3.3481,3.3422,3.3393,3.3393,3.3393,3.3393,3.3393,3.3452,3.3452,3.3422,3.3577,3.3601,3.3591,3.3684,3.3739,3.3766,3.378,3.3793,3.3807,3.3807,3.3807,3.3807,3.3807,3.3807,3.3807,3.3807,3.3807,3.3807,3.3807,3.386,3.3895,3.3895,3.4161,3.4439,3.4454,3.4793,3.5122,3.5182,3.4817,3.4603,3.5115,3.416,3.3064,3.2718,3.2776,3.2917,3.2967,3.3671,3.4342,3.4676,3.3829,3.2954,3.2422,3.1465,3.0801,3.076,3.073,3.0684,3.0623,3.0603,3.0607,3.0595,3.0592,3.0598,3.0598,3.0598,3.0598,3.0598,3.0598,3.0601,3.0606,3.0603,3.0656,3.0695,3.071,3.0723,3.5379,3.5412,3.542,3.5474,3.55,3.4971,3.2989,0.0,3.1985,3.0028,3.0912,3.2045,3.2095,3.3377,3.4749,3.5765,0.0,3.7471,3.9178,3.9413,3.969,4.049,0.0,0.0,3.9514,3.9259,3.8427,3.6818,3.5043,3.3963,3.384,3.3698,3.3577,3.352,3.3452,3.3408,3.3408,3.3393,3.3393,3.3393,3.3393,3.3393,3.3393,3.3411,3.3437,3.3495,3.3452,3.3466,3.3506,3.352,3.3563,3.3615,3.3684,3.3753,3.3807,3.3807,3.3807,3.3807,3.3807,3.3807,3.3807,3.3807,3.3807,3.3807,3.3807,3.386,3.3895,3.3895,3.4185,3.4528,3.4641,3.4926,3.5242,3.5424,3.5409,3.5192,3.4468,3.4186,3.3628,3.2102,3.241,3.2891,3.2917,3.3668,3.4566,3.5388,3.4237,3.3251,3.3198,3.1838,3.0898,3.0878,3.0829,3.0765,3.0706,3.0633,3.0593,3.0605,3.0608,3.0598,3.0598,3.0598,3.0598,3.0598,3.0598,3.0601,3.0606,3.0662,3.0689,3.0697,3.0758,3.0795,3.5166,3.5372,3.5405,3.5379,3.4913,3.4121,3.2752,3.1933,3.1195,3.0224,3.095,3.1871,3.2219,3.3241,3.421,3.4738,3.4922,3.5484,3.6845,3.7721,3.8363,3.8739,3.9351,3.9507,3.8946,3.8873,3.8357,3.7153,3.5416,3.4388,3.4359,3.3917,3.3619,3.3491,3.3481,3.3437,3.3393,3.3393,3.3393,3.3393,3.3393,3.3393,3.3393,3.3393,3.3408,3.3437,3.3452,3.3481,3.3509,3.3591,3.3647,3.3657,3.3739,3.378,3.3807,3.3807,3.3807,3.3807,3.3807,3.3807,3.3807,3.3807,3.3807,3.3807,3.3807,3.386,3.3895,3.3895,3.4161,3.4476,3.4643,3.5008,3.5361,3.546,3.5103,3.4776,3.4949,3.4564,3.3994,3.3333,3.3891,3.4295,3.3776,3.4437,3.4974,3.4839,3.3922,3.3053,3.2574,3.1571,3.0898,3.0898,3.0878,3.0827,3.0715,3.0715,3.0681,3.0606,3.0595,3.0602,3.0602,3.0598,3.0598,3.0598,3.0598,3.0628,3.0662,3.0688,3.0714,3.0764,3.0752,3.0741,3.4499,3.4928,3.5163,3.5127,3.4374,3.3396,3.243,3.1411,3.0592,3.0277,3.087,3.1648,3.2269,3.3113,3.3766,3.3921,3.399,3.4555,3.6071,3.7103,3.7979,3.874,3.9399,3.9548,3.8899,3.8489,3.7976,3.7311,3.5735,3.4779,3.4783,3.4057,3.3605,3.3491,3.3481,3.3452,3.3393,3.3393,3.3393,3.3393,3.3393,3.3393,3.3393,3.3393,3.3408,3.3422,3.3466,3.3495,3.3509,3.3605,3.3629,3.3643,3.3739,3.378,3.378,3.3775,3.3807,3.3807,3.3807,3.3807,3.3807,3.3807,3.3807,3.3807,3.3807,3.3855,3.3934,3.3934,3.4185,3.452,3.4783,3.5096,3.5342,3.541,3.4992,3.4743,3.529,3.4973,3.4507,3.4244,3.4911,3.5212,3.4359,3.493,3.5213,3.4384,3.3639,3.2885,3.2065,3.1332,3.0878,3.0898,3.0898,3.0857,3.0768,3.0776,3.0747,3.0638,3.0618,3.061,3.0604,3.0604,3.0617,3.0622,3.0622,3.0651,3.0708,3.0726,3.0758,3.0792,3.0722,3.0822,3.325,3.3961,3.4614,3.4684,3.3995,3.3019,3.1949,3.1021,3.0343,3.0064,3.06,3.1379,3.2247,3.3007,3.352,3.3591,3.4276,3.5641,3.8034,3.838,3.9276,4.1665,4.0571,3.9604,3.9586,3.8145,3.7215,3.7215,3.5705,3.4783,3.4709,3.3946,3.3509,3.3509,3.3437,3.3393,3.3393,3.3393,3.3393,3.3393,3.3393,3.3393,3.3393,3.3393,3.3437,3.3509,3.3422,3.3437,3.3509,3.3509,3.3491,3.3524,3.3643,3.3698,3.3712,3.378,3.3807,3.3807,3.3807,3.3807,3.3807,3.3807,3.3807,3.3807,3.3807,3.3895,3.3998,3.3998,3.4281,3.4689,3.5089,3.5201,3.5209,3.5209,3.5354,3.542,3.5242,3.5354,3.5231,3.4379,3.4911,3.5212,3.4359,3.493,3.5206,3.4327,3.358,3.2807,3.1993,3.1262,3.0829,3.0898,3.0898,3.0898,3.0898,3.0832,3.077,3.0691,3.0633,3.0593,3.0593,3.0593,3.0626,3.0706,3.0709,3.07,3.07,3.0769,3.0799,3.0801,3.0728,3.1126,3.1718,3.2371,3.282,3.2799,3.2058,3.1219,3.082,3.0391,3.0185,3.0602,3.1334,3.2151,3.294,3.3342,3.3913,3.4993,3.5393,3.6209,3.8129,3.8826,3.9246,3.9515,3.9046,3.8736,3.8784,3.8249,3.7909,3.7958,3.6422,3.5468,3.5452,3.4166,3.3422,3.3422,3.3408,3.3393,3.3393,3.3393,3.3393,3.3393,3.3393,3.3393,3.3393,3.3393,3.3408,3.3422,3.3408,3.3408,3.3437,3.3481,3.3509,3.3506,3.3605,3.3657,3.3698,3.3726,3.3766,3.3807,3.3807,3.3807,3.3807,3.3807,3.3807,3.3807,3.3807,3.3855,3.3934,3.3985,3.4257,3.4561,3.468,3.4851,3.4982,3.4982,3.5046,3.5107,3.5174,3.525,3.5243,3.5121,3.5308,3.5404,3.5135,3.5327,3.5199,3.4334,3.3564,3.2803,3.1994,3.1256,3.0829,3.0898,3.0898,3.0878,3.0832,3.0855,3.0828,3.0715,3.0724,3.0717,3.0667,3.0664,3.0672,3.0709,3.0709,3.0716,3.077,3.0742,3.0682,3.0581,3.0575,3.0983,0.0,3.0708,3.1238,3.1189,3.0534,2.9899,2.986,2.9582,2.9636,3.0699,3.1397,3.2141,3.3208,3.3466,3.3851,3.4809,3.4957,3.5641,3.7596,3.8271,3.8617,3.876,3.8745,3.8601,3.834,3.8257,3.8099,3.7822,3.6576,3.5659,3.5351,3.4117,3.3393,3.3393,3.3393,3.3393,3.3393,3.3393,3.3393,3.3393,3.3393,3.3393,3.3393,3.3393,3.3393,3.3393,3.3393,3.3393,0.0,3.3452,3.3466,3.3466,3.3534,3.3591,3.3633,3.3643,3.3684,3.3726,3.3753,3.3766,3.3766,3.3775,3.3807,3.3807,3.3807,3.386,3.3908,3.3985,3.4148,3.434,3.4473,3.4618,3.4771,3.4791,3.4831,3.4898,3.4954,3.5089,3.5234,3.5361,3.5446,3.55,3.55,3.5231,3.4718,3.3833,3.307,3.2324,3.1518,3.1055,3.0826,3.0898,3.0898,3.0878,3.0833,3.0878,3.0855,3.0737,3.0771,3.0774,3.0734,3.0734,3.076,3.0773,3.0744,3.0757,3.08,3.0725,3.0625,3.0501,3.0501,3.1099,0.0,2.8952,2.9781,2.9781,2.9377,2.8989,2.8989,2.8695,0.0,3.0456,3.0928,3.1532,3.3121,3.3393,3.3447,3.3556,3.3574,3.4389,3.6759,3.7085,3.7647,3.9134,3.926,3.8934,3.8191,3.8064,3.7703,3.6942,3.6148,3.5354,3.4597,3.3816,3.3378,3.3378,3.3393,3.3393,3.3393,3.3393,3.3393,3.3393,3.3393,3.3393,3.3393,3.3393,3.3393,3.3393,3.3393,3.3393,3.3393,3.3393,3.3393,3.3393,3.3452,3.3448,3.3462,3.3502,3.3516,3.353,3.3629,3.3657,3.3671,3.3748,3.3793,3.3762,3.3775,3.3842,3.3908,3.3972,3.3985,3.4061,3.4393,3.4461,3.4484,3.4539,3.472,3.4802,3.4626,3.4898,3.5174,3.5201,3.5361,3.55,3.55,3.4776,3.3898,3.3026,3.2262,3.1508,3.0704,3.0713,3.082,3.0876,3.0898,3.0898,3.0898,3.0898,3.0877,3.0805,3.0804,3.0804,3.0804,3.0805,3.0833,3.0898,3.0831,3.0796,3.0788,3.0717,3.0618,3.0487,3.0564,3.1411,2.5551,0.0,2.7785,2.7785,2.779,2.7792,0.0,2.8228,2.8988,3.0249,0.0,3.1918,3.3168,3.3393,3.381,3.5025,3.524,3.5856,3.7683,3.7919,3.8064,3.8444,3.7937,3.7484,3.7303,3.6725,3.6224,3.5876,3.5103,3.4517,3.4227,3.355,3.318,3.318,3.3319,3.3393,3.3393,3.3393,3.3393,3.3393,3.3393,3.3393,3.3393,3.3393,3.3393,3.3393,3.3393,3.3393,3.3393,3.3393,3.3393,3.3364,3.3083,3.3019,3.3068,3.2781,3.2715,3.2793,3.3142,3.3232,3.3291,3.3629,3.3583,3.3465,3.3721,3.382,3.3834,3.3842,3.3881,3.3934,3.4023,3.4124,3.4197,3.4209,3.4305,3.4409,3.4561,3.4801,3.5019,3.5157,3.5361,3.55,3.55,3.4776,3.3898,3.3026,3.2233,3.1423,3.0636,3.0633,3.0724,3.074,3.0837,3.0898,3.0898,3.0898,3.0898,3.0878,3.0878,3.0878,3.0878,3.0839,3.0837,3.0898,3.0828,3.0758,3.065,3.0621,3.0549,3.045,3.1105,3.1879,2.4251,2.5529,2.6907,2.701,2.7216,2.7401,2.7518,0.0,0.0,0.0,0.0,0.0,0.0,3.2517,3.3084,3.4072,3.4165,3.4719,3.6447,3.7244,3.7614,3.7513,3.6808,3.6302,3.6302,3.586,3.5364,3.4887,3.444,3.4031,3.3577,3.3212,3.3008,3.3008,3.3104,3.3196,3.3256,3.3256,3.3226,3.3165,3.3165,3.3196,3.3256,3.3256,3.3208,3.3114,3.3114,3.3037,3.2896,3.2896,3.2896,3.2862,3.2651,3.2619,3.2653,3.2436,3.2368,3.2452,3.27,3.2797,3.2858,3.3075,3.3199,3.3288,3.348,3.3648,3.3807,3.3807,3.3834,3.3855,3.3895,3.3947,3.4023,3.4049,3.4111,3.4197,3.434,3.4649,3.4917,3.5046,3.5308,3.5365,3.4968,3.418,3.3314,3.2487,3.1661,3.0998,3.0554,3.0623,3.0704,3.0707,3.0815,3.0898,3.0898,3.0898,3.0898,3.0898,3.0898,3.0898,3.0898,3.0832,3.0971,3.1349,3.0934,3.0842,3.1158,3.0741,3.0505,3.0427,3.1188,3.1931,2.3508,2.4973,2.6567,2.6782,2.7022,2.7286,2.7522,0.0,0.0,0.0,0.0,0.0,0.0,3.1498,0.0,0.0,3.2459,3.2967,3.4641,3.5912,3.6615,3.6516,3.5779,3.5294,3.5294,3.5072,3.4632,3.392,3.3867,3.3565,3.2855,3.2852,3.285,3.285,3.2884,3.293,3.3024,3.3055,3.3008,3.29,3.285,3.2882,3.299,3.2943,3.2829,3.2681,3.2681,3.2551,3.23,3.23,3.23,3.23,3.2231,3.2214,3.2214,3.2144,3.2127,3.2144,3.2266,3.2334,3.2418,3.2467,3.2729,3.3029,3.3108,3.3408,3.3707,3.3721,3.3762,3.3802,3.3868,3.3895,3.3908,3.3972,3.4036,3.4086,3.4086,3.448,3.4831,3.4831,3.5166,3.5215,3.4473,3.3532,3.2679,3.1987,3.1207,3.0651,3.0496,3.072,3.0884,3.0886,3.1007,3.1133,3.1269,3.1289,3.1289,3.1289,3.1035,3.0898,3.0898,3.0967,3.1299,3.1926,3.1322,3.1332,3.2005,3.1249,3.0766,3.0575,3.128,3.1936,2.3172,2.4604,2.607,2.5994,2.6482,2.6981,2.7003,0.0,0.0,0.0,0.0,0.0,0.0,3.1498,3.2212,3.2891,3.3446,3.401,3.4639,3.4924,3.5173,3.5487,3.4789,3.4306,3.4306,3.3682,3.3139,3.2849,3.2833,3.2731,3.2491,3.259,3.2655,3.2655,3.2802,3.2836,3.2688,3.285,3.2916,3.29,3.2603,3.2486,3.2503,3.2283,3.2179,3.2213,3.2213,3.223,3.23,3.23,3.23,3.2266,3.1932,3.1787,3.175,3.1485,3.1368,3.1408,3.1712,3.1895,3.2038,3.2317,3.2299,3.2265,3.2651,3.3016,3.3302,3.3364,3.3583,3.3788,3.3802,3.3873,3.3895,3.3908,3.3972,3.4023,3.4023,3.4305,3.4572,3.4572,3.4926,3.5203,3.507,3.3841,3.2852,3.2737,3.2018,3.1241,3.051,3.1183,3.1728,3.1713,3.1833,3.2206,3.2949,3.3027,3.3027,3.3027,3.168,3.0878,3.0826,3.1503,3.1945,3.2077,3.2554,3.2857,3.2976,3.273,3.2171,3.134,3.2132,3.2376,2.2342,2.3664,2.4948,2.4888,2.6137,2.7522,2.7988,0.0,0.0,0.0,0.0,0.0,0.0,0.0,3.1911,3.2832,3.3573,3.4036,3.3995,3.4067,3.4129,3.4217,3.3666,3.3288,3.3288,3.2818,3.2523,3.249,3.2422,3.2387,3.2406,3.2456,3.2456,3.2387,3.2455,3.2489,3.2387,3.2335,3.2318,3.2352,3.2073,3.195,3.2021,3.1896,3.1788,3.1716,3.1716,3.166,3.1545,3.1545,3.1564,3.1582,3.1393,3.1372,3.1408,3.1269,3.119,3.123,3.137,3.1466,3.1542,3.1711,3.1823,3.1915,3.2162,3.2501,3.2872,3.3169,3.3508,3.3807,3.3807,3.3815,3.386,3.386,3.3895,3.3836,3.3393,3.3875,3.4274,3.3877,3.4451,3.4874,3.4555,3.3915,3.3316,3.2955,3.2583,3.2199,3.1795,3.2246,3.2603,3.2597,3.2726,3.2946,3.331,3.3377,3.3398,3.3398,3.2673,3.221,3.2141,3.2547,3.2932,3.3333,3.325,3.3382,3.3747,3.3124,3.2556,3.2054,3.2724,3.2921,2.1565,2.2795,2.3979,2.4095,0.0,2.7545,2.8366,2.8111,0.0,0.0,0.0,0.0,0.0,3.0606,3.1803,3.2437,3.3284,3.3666,3.3073,3.3044,3.303,3.2872,3.2546,3.2352,3.2472,3.2301,3.2232,3.2319,3.2232,3.2232,3.2319,3.2336,3.2267,3.2179,3.2179,3.2179,3.2179,3.1801,3.1691,3.1821,3.1468,3.1317,3.1359,3.1357,3.1264,3.1147,3.1223,3.112,3.0892,3.0892,3.0932,3.0992,3.0992,3.1052,3.1131,3.1151,3.1151,3.1151,3.119,3.119,3.119,3.119,3.1411,3.166,3.1678,3.2004,3.2417,3.2809,3.3288,3.368,3.378,3.3807,3.3807,3.3807,3.3829,3.3703,3.3096,3.3623,3.4051,3.3463,3.4105,3.4613,3.4177,3.3993,3.3735,3.3275,3.3199,3.3122,3.2929,3.3229,3.346,3.3468,3.3553,3.371,3.389,3.3955,3.3984,3.4004,3.3623,3.3379,3.3298,3.3479,3.3858,3.4409,3.399,3.4037,3.4538,3.3711,3.3142,3.279,3.3204,3.3354,2.1237,2.2366,2.3626,2.4025,2.5043,0.0,2.6808,2.6842,0.0,2.7608,0.0,0.0,0.0,3.1023,3.2348,3.1539,3.2619,3.3135,3.1986,3.1672,3.1562,3.1549,3.1507,3.1658,3.209,3.2108,3.2108,3.2108,3.2108,3.2108,3.2108,3.2108,3.2108,3.2108,3.2108,3.2108,3.2108,3.1411,3.124,3.162,3.0968,3.0563,3.0398,3.0342,3.0326,3.0398,3.0638,3.0814,3.0892,3.0892,3.0912,3.0912,3.0912,3.0912,3.0932,3.0995,3.1015,3.1035,3.1151,3.119,3.119,3.119,3.123,3.1252,3.1315,3.1584,3.1879,3.2039,3.2632,3.3332,3.3707,3.3807,3.3807,3.3807,3.3788,3.3802,3.3728,3.3831,3.3915,3.386,3.4201,3.4567,3.4707,3.4265,3.3953,3.4083,3.4109,3.3821,3.3006,3.3674,3.4225,3.4226,3.4295,3.4697,3.5625,3.5716,3.5751,3.5801,3.4287,3.3378,3.3309,3.4022,3.4446,3.4486,3.5169,3.5512,3.5498,3.5297,3.4668,3.3603,3.3646,3.3496,2.087,2.1801,2.2725,2.2874,2.3622,0.0,0.0,2.7604,2.7954,2.8828,2.92,0.0,0.0,3.1034,3.1796,3.175,3.1955,3.1915,3.128,3.0915,3.0817,3.112,3.13,3.1584,3.2055,3.202,3.2002,3.209,3.202,3.2002,3.2108,3.209,3.2055,3.1984,3.1984,3.1857,3.16,3.1123,3.0751,3.0534,3.0234,3.0059,2.9989,2.9962,2.9962,2.9989,3.0113,3.0258,3.0464,3.0464,3.0589,3.0773,3.0871,3.0892,3.0912,3.0932,3.0952,3.0952,3.1035,3.1092,3.1092,3.1171,3.119,3.121,3.1232,3.1332,3.1488,3.1788,3.2092,3.25,3.3225,3.3606,3.3807,3.3807,3.3807,3.366,3.3151,3.3485,3.3695,3.3237,3.3672,3.4233,3.4564,3.4408,3.4396,3.476,3.4825,3.4748,3.4551,3.487,3.5104,3.512,3.5132,3.5349,3.5867,3.5858,3.5869,3.5935,3.528,3.4874,3.4854,3.5115,3.5254,3.5256,3.5557,3.5609,3.5399,3.5288,3.4939,3.4377,3.4289,3.4187,2.066,2.1503,2.2324,2.2324,0.0,0.0,2.6753,2.7567,2.8138,2.9329,2.9538,2.9637,3.0156,3.0749,3.1173,3.1205,3.1157,3.0943,3.0519,3.0162,3.0161,3.0764,3.1007,3.1357,3.1947,3.1912,3.1911,3.2001,3.1929,3.1912,3.2001,3.2018,3.1965,3.1875,3.173,3.1507,3.1237,3.0744,3.0276,2.987,2.9683,2.9566,2.9589,2.9677,2.97,2.9722,2.9788,2.9897,3.0065,3.0065,3.0215,3.0426,3.0609,3.0688,3.0688,3.081,3.0851,3.0851,3.0952,3.0955,3.0975,3.1112,3.1151,3.1151,3.119,3.119,3.1269,3.1528,3.1715,3.1951,3.2582,3.3196,3.3606,3.3606,3.3707,3.3642,3.3096,3.3421,3.3655,3.3156,3.3513,3.4011,3.4344,3.4413,3.4599,3.507,3.5157,3.5226,3.5361,3.5496,3.557,3.557,3.5579,3.5621,3.5798,3.5804,3.5838,3.5898,3.5846,3.5789,3.5762,3.5725,3.5704,3.5709,3.5699,3.5577,3.5308,3.5216,3.5051,3.482,3.4749,3.4678,2.0585,2.1565,2.2592,0.0,0.0,0.0,2.575,2.6258,2.6996,2.8745,2.9328,2.9509,2.9509,3.0258,3.0568,2.965,3.0108,3.0332,2.9589,2.9282,2.9454,3.0393,3.0497,3.0845,3.1726,3.18,3.18,3.18,3.18,3.18,3.18,3.18,3.18,3.18,3.1353,3.1103,3.1103,3.023,2.9793,2.9788,2.9312,2.9098,2.9098,2.9373,2.9509,2.9515,2.9722,2.9793,2.9793,2.9793,2.9793,2.9815,3.0103,3.0189,3.0231,3.0568,3.0692,3.0712,3.0851,3.0892,3.0912,3.0992,3.0995,3.1015,3.1151,3.119,3.119,3.119,3.1488,3.1789,3.1789,3.2483,3.3199,3.3199,3.3508,3.3807,3.3807,3.3807,3.3807,3.3807,3.3842,3.3967,3.4171,3.4246,3.4449,3.4906,3.5051,3.5096,3.5105,3.5327,3.55,3.55,3.5502,3.552,3.56,3.5725,3.5833,3.5903,3.5834,3.578,3.5702,3.5703,3.5704,3.5704,3.5704,3.5572,3.5308,3.5308,3.5163,3.4908,3.4908,3.486,2.0195,2.108,0.0,2.2254,0.0,0.0,0.0,2.6611,0.0,0.0,2.9167,2.9213,2.9213,2.9601,2.9756,2.9291,2.9571,2.9665,2.9291,2.9425,2.9815,3.0435,3.0747,3.1142,3.1727,3.18,3.18,3.18,3.18,3.18,3.18,3.18,3.18,3.18,3.1671,3.1295,3.0666,3.033,2.9859,2.9289,2.9021,2.8967,2.9098,2.9167,2.9213,2.9213,2.9266,2.9425,2.9589,2.9744,2.9639,2.94,2.9788,2.9766,2.9572,3.013,3.0338,3.038,3.0651,3.0753,3.0773,3.0892,3.0932,3.0952,3.1015,3.1055,3.1092,3.1171,3.1291,3.1389,3.1389,3.1788,3.2366,3.2968,3.3262,3.3451,3.3666,3.3766,3.3807,3.3807,3.382,3.3868,3.3979,3.4018,3.4129,3.4467,3.4685,3.4944,3.5262,3.5254,3.5289,3.5486,3.5494,3.5541,3.5588,3.5681,3.5775,3.5892,3.5877,3.5841,3.5761,3.5732,3.5704,3.5704,3.5704,3.5572,3.5308,3.5308,3.5163,3.4908,3.4908,3.4889,2.0371,2.1299,0.0,2.2752,2.3578,2.4701,2.6361,0.0,0.0,0.0,2.9098,2.9098,2.9098,2.9236,2.9282,2.9121,2.9236,2.9266,2.9121,2.9499,2.9968,3.0456,3.0865,3.1278,3.1746,3.18,3.18,3.18,3.18,3.18,3.18,3.18,3.18,3.18,3.1596,3.114,3.0435,3.014,2.9655,2.8975,2.8865,2.885,2.8975,2.8975,2.8998,2.9013,2.9075,2.9167,2.9289,2.9454,2.9387,2.9189,2.9544,2.9544,2.9371,2.9853,3.0044,3.0065,3.0279,3.0342,3.0363,3.0506,3.0609,3.0675,3.0757,3.0875,3.0975,3.1092,3.1131,3.1131,3.119,3.1389,3.1733,3.2417,3.2874,3.3217,3.3426,3.3597,3.3726,3.3766,3.3766,3.378,3.3842,3.3855,3.3941,3.4213,3.4416,3.4674,3.5069,3.5016,3.5034,3.5312,3.5405,3.5482,3.5546,3.5621,3.571,3.5801,3.5853,3.5846,3.5834,3.578,3.5723,3.5702,3.5697,3.5601,3.5381,3.533,3.5187,3.4973,3.4917,3.4908,2.0832,2.1851,0.0,2.3612,2.4312,0.0,2.7423,2.8487,2.9052,2.9075,2.9098,2.9098,2.9098,2.9098,2.9098,2.9098,2.9098,2.9098,2.9098,2.9544,3.0032,3.0456,3.0905,3.1334,3.1763,3.18,3.18,3.18,3.18,3.18,3.18,3.18,3.18,3.1781,3.1295,3.0825,3.0335,2.981,2.9305,2.8865,2.8794,2.8771,2.8771,2.8794,2.8834,2.8897,2.9029,2.9006,2.8897,2.9029,2.9052,2.9052,2.9335,2.9403,2.938,2.9677,2.9766,2.9744,2.9772,2.9793,2.9832,2.9935,3.0113,3.0288,3.0447,3.0651,3.0871,3.0955,3.0995,3.1015,3.1151,3.1171,3.1254,3.1641,3.2367,3.2986,3.3081,3.3339,3.3559,3.3643,3.3671,3.3712,3.3734,3.378,3.3881,3.4161,3.4257,3.4379,3.4653,3.4684,3.4784,3.5051,3.5254,3.5398,3.5474,3.5552,3.5611,3.5689,3.5763,3.5838,3.5918,3.5846,3.5763,3.5713,3.5713,3.5634,3.5509,3.5369,3.5235,3.5113,3.4963,3.4908,2.0346,2.1115,0.0,0.0,2.4081,2.5732,2.7497,2.8295,2.8716,2.9029,2.9098,2.9098,2.9098,2.9098,2.9098,2.9098,2.9098,2.9098,2.9098,2.9815,3.0393,3.0497,3.1179,3.169,3.18,3.18,3.18,3.18,3.18,3.18,3.18,3.18,3.1746,3.1653,3.1542,3.1237,3.0686,3.0107,2.9667,2.935,2.8763,2.8541,2.866,2.8747,2.8818,2.8826,2.885,2.8865,2.8826,2.885,2.8684,2.8438,2.8873,2.8685,2.8277,2.9205,2.9364,2.9143,2.9655,2.9793,2.9793,2.9832,2.9875,2.9968,3.0246,3.0372,3.0514,3.0834,3.0932,3.0932,3.0952,3.0995,3.1075,3.114,3.1641,3.2248,3.2878,3.3129,3.3202,3.3217,3.3484,3.3611,3.3361,3.3578,3.3881,3.4161,3.4209,3.4321,3.4591,3.4632,3.4715,3.498,3.506,3.5179,3.5405,3.5476,3.557,3.5689,3.5766,3.5851,3.597,3.587,3.5787,3.5782,3.5782,3.5703,3.5574,3.5432,3.5307,3.5176,3.4991,3.4908,2.0434,0.0,0.0,2.3298,0.0,2.5963,2.7345,2.7953,2.8343,2.8716,2.8982,2.9098,2.9098,2.9098,2.9098,2.9098,2.9098,2.9167,2.9403,3.0054,3.058,3.0747,3.1389,3.18,3.18,3.18,3.18,3.18,3.18,3.18,3.18,3.1727,3.1671,3.1598,3.1504,3.1201,3.0707,3.0128,2.9667,2.9296,2.8692,2.8436,2.8517,2.8636,2.8676,2.8628,2.8747,2.8771,2.8708,2.8771,2.8501,2.8116,2.8653,2.8262,2.758,2.8614,2.8646,2.8328,2.8966,2.9173,2.9212,2.9409,2.9544,2.9677,2.9859,2.9989,3.0118,3.0384,3.0531,3.0634,3.0692,3.0834,3.0952,3.0952,3.1355,3.1878,3.23,3.2666,3.2988,3.3034,3.322,3.3368,3.3397,3.3597,3.3807,3.3934,3.3985,3.4055,3.4208,3.4325,3.4453,3.4605,3.4823,3.5015,3.5195,3.5336,3.5456,3.5606,3.5694,3.5797,3.5895,3.5905,3.5885,3.585,3.585,3.5803,3.5703,3.5557,3.5438,3.529,3.5117,3.5009,2.0559,0.0,2.2456,2.436,2.5241,0.0,2.7147,2.766,2.8012,2.8415,2.8826,2.9098,2.9098,2.9098,2.9098,2.9098,2.9098,2.9266,2.9728,3.0204,3.0662,3.1064,3.1523,3.18,3.18,3.18,3.18,3.18,3.18,3.18,3.18,3.169,3.1617,3.1598,3.1447,3.1142,3.0727,3.0123,2.9617,2.9212,2.8653,2.8411,2.8396,2.8517,2.8517,2.8396,2.8628,2.8676,2.8573,2.87,2.8438,2.8027,2.8453,2.7993,2.7195,2.791,2.7845,2.7489,2.811,2.8367,2.8463,2.8873,2.9152,2.9357,2.947,2.9627,2.9788,2.9913,3.0092,3.0246,3.0405,3.063,3.0814,3.0851,3.1218,3.1565,3.1675,3.2214,3.2715,3.2846,3.2896,3.3052,3.3516,3.3601,3.3629,3.3671,3.378,3.3847,3.3793,3.4023,3.4203,3.4195,3.4584,3.487,3.4971,3.5187,3.5362,3.5486,3.5605,3.5698,3.5773,3.5894,3.5926,3.5897,3.5898,3.5875,3.5819,3.5684,3.5549,3.5406,3.528,3.5147,0.0,0.0,2.2456,0.0,2.4936,2.5437,0.0,0.0,2.8012,2.8415,2.8826,2.9098,2.9098,2.9098,2.9098,2.9098,2.9098,2.9266,2.9728,3.0204,3.0662,3.1064,3.1523,3.18,3.18,3.18,3.18,3.18,3.18,3.18,3.18,3.1781,3.1727,3.1598,3.1579,3.1449,3.1218,3.0323,2.9827,2.9683,2.8818,2.8411,2.8411,2.842,2.842,2.8411,2.8436,2.8444,2.8436,2.846,2.8396,2.8284,2.7968,2.753,2.7108,2.7221,2.7144,2.7056,2.7489,2.779,2.8061,2.8439,2.8606,2.8724,2.9319,2.9515,2.9582,2.9766,2.9853,2.9924,3.0189,3.0305,3.0435,3.0671,3.0875,3.1117,3.1526,3.1932,3.223,3.2368,3.2436,3.2716,3.3473,3.3368,3.328,3.3559,3.3855,3.3972,3.3739,3.3998,3.4209,3.4191,3.4409,3.4646,3.4897,3.5157,3.5364,3.5495,3.5519,3.5578,3.5716,3.5734,3.5785,3.59,3.5895,3.59,3.5897,3.5749,3.5621,3.5486,3.535,3.5215,1.9991,2.1153,2.2348,0.0,2.4491,2.5194,2.654,2.74,2.8012,2.8415,2.8826,2.9098,2.9098,2.9098,2.9098,2.9098,2.9098,2.9357,3.0097,3.0372,3.0744,3.1411,3.1671,3.18,3.18,3.18,3.18,3.18,3.18,3.18,3.18,3.1727,3.1671,3.1598,3.1559,3.1387,3.1024,3.036,2.9711,2.9129,2.8621,2.8411,2.8411,2.8411,2.8411,2.8411,2.8411,2.8411,2.8411,2.8411,2.821,2.791,2.8048,2.7418,2.6484,2.6927,2.6771,2.6431,2.6979,2.7352,2.7735,2.8295,2.8487,2.8574,2.8842,2.9106,2.9243,2.9097,2.9325,2.9671,2.9782,3.0022,3.0279,3.0401,3.0547,3.0736,3.1021,3.1416,3.1807,3.2144,3.2602,3.3006,3.3142,3.325,3.3371,3.352,3.3698,3.378,3.3657,3.378,3.3868,3.3908,3.4123,3.4375,3.4646,3.4917,3.5166,3.5374,3.5425,3.5508,3.5639,3.5681,3.5752,3.5895,3.5907,3.5908,3.5908,3.5833,3.5733,3.5616,3.5538,3.5412,0.0,0.0,2.1798,2.3049,2.384,2.4654,0.0,2.698,2.7789,2.8249,2.874,2.9098,2.9098,2.9098,2.9098,2.9098,2.9098,2.9425,3.0372,3.0497,3.0825,3.169,3.18,3.18,3.18,3.18,3.18,3.18,3.18,3.18,3.18,3.1709,3.1635,3.1635,3.1595,3.1349,3.0865,3.0208,2.9461,2.8597,2.8468,2.8411,2.8411,2.8411,2.8411,2.8411,2.8411,2.8411,2.8411,2.8411,2.8122,2.777,2.8073,2.7316,2.6163,2.6628,2.6404,2.5961,2.6469,2.6919,2.7361,2.7993,2.8271,2.8343,2.8343,2.8693,2.9029,2.8622,2.8928,2.9403,2.947,2.976,3.006,3.0167,3.0316,3.0506,3.0777,3.1142,3.1585,3.2144,3.27,3.3052,3.2972,3.316,3.3357,3.3466,3.352,3.3577,3.3577,3.3591,3.3633,3.3671,3.3934,3.4203,3.4464,3.4743,3.501,3.5261,3.5314,3.5419,3.5535,3.5599,3.5704,3.5843,3.5877,3.5905,3.5897,3.5902,3.582,3.5698,3.57,3.5581,0.0,1.9876,0.0,2.2473,2.2972,2.3495,0.0,2.6455,2.7209,2.7801,2.8535,2.9098,2.9098,2.9098,2.9098,2.9098,2.9098,2.9425,3.0372,3.0497,3.0825,3.169,3.18,3.18,3.18,3.18,3.18,3.18,3.18,3.18,3.18,3.18,3.18,3.18,3.1781,3.1523,3.0985,2.9881,2.9098,2.8597,2.8468,2.8411,2.8411,2.8411,2.8411,2.8411,2.8411,2.8411,2.8411,2.8411,2.8372,2.8299,2.777,2.717,2.6599,2.6136,2.5948,2.5893,2.5948,2.634,2.691,2.731,2.7685,2.7923,2.7923,2.8463,2.9029,2.8622,2.8803,2.9167,2.9425,2.9515,2.9649,3.0103,3.021,3.0405,3.112,3.1355,3.166,3.2503,3.2401,3.2417,3.3241,3.3083,3.2972,3.3349,3.3466,3.3509,3.3509,3.3563,3.3605,3.3605,3.3895,3.4191,3.4379,3.4704,3.4992,3.5201,3.5218,3.5262,3.54,3.5464,3.5572,3.571,3.5845,3.5898,3.5905,3.5892,3.583,3.5698,3.5698,3.5664,0.0,0.0,0.0,2.1599,2.2625,2.3645,2.4515,2.5355,2.6163,2.6849,2.7232,2.7637,2.8334,2.8798,2.9098,2.9098,2.9357,2.9772,3.0414,3.0707,3.1103,3.1744,3.18,3.18,3.18,3.18,3.18,3.18,3.18,3.18,3.18,3.18,3.18,3.18,3.18,3.1408,3.0543,2.9755,2.9113,2.8597,2.8468,2.8411,2.8411,2.8411,2.8411,2.8411,2.8411,2.8411,2.8411,2.8411,2.8186,2.7795,2.7565,2.6953,2.6163,2.5961,2.5798,2.5647,2.5647,2.6016,2.6551,2.6956,2.7306,2.761,2.7839,2.828,2.8693,2.8535,2.8803,2.9121,2.9213,2.9357,2.956,2.9853,3.0065,3.0274,3.0531,3.0985,3.1471,3.1967,3.2282,3.2635,3.3117,3.3211,3.3223,3.3378,3.3408,3.3437,3.3437,3.3452,3.3495,3.352,3.3629,3.3855,3.4172,3.445,3.4704,3.5001,3.5124,3.5266,3.5379,3.5429,3.552,3.5697,3.5749,3.5814,3.5907,3.5894,3.5872,3.5833,3.5833,3.5776,1.8842,0.0,0.0,0.0,2.2023,2.3319,2.3631,2.4517,2.5422,2.6016,2.6348,2.671,2.7438,2.821,2.883,2.9067,2.9477,2.9968,3.0418,3.0865,3.1259,3.1727,3.18,3.18,3.18,3.18,3.18,3.18,3.18,3.18,3.18,3.18,3.18,3.18,3.1653,3.1162,3.0293,2.9695,2.9143,2.8597,2.8468,2.8411,2.8411,2.8411,2.8411,2.8411,2.8411,2.8411,2.8411,2.8411,2.8162,2.7795,2.7565,2.6953,2.6136,2.5975,2.5716,2.5494,2.5494,2.5798,2.6217,2.6587,2.7034,2.7433,2.7519,2.7978,2.8463,2.8343,2.8598,2.892,2.9052,2.9305,2.9538,2.9677,2.9957,3.0189,3.0189,3.0634,3.114,3.1507,3.2003,3.2469,3.2816,3.307,3.3259,3.3304,3.3304,3.3334,3.3378,3.3393,3.3408,3.3466,3.3495,3.3643,3.4036,3.4272,3.454,3.487,3.5089,3.5242,3.5327,3.5383,3.5456,3.5595,3.5668,3.5738,3.5837,3.5885,3.591,3.5909,3.5897,3.5824,0.0,0.0,0.0,0.0,0.0,0.0,2.2788,2.395,2.5018,2.5284,2.5925,2.645,2.6472,2.7353,2.8284,2.8956,2.9483,2.9968,3.0414,3.0845,3.1259,3.1744,3.18,3.18,3.18,3.18,3.18,3.18,3.18,3.18,3.18,3.18,3.18,3.1781,3.1334,3.0828,3.0272,2.9695,2.9143,2.8597,2.8468,2.8396,2.8411,2.8411,2.8411,2.8411,2.8411,2.8387,2.8372,2.8387,2.8387,2.8323,2.7705,2.7144,2.6599,2.6069,2.5716,2.5494,2.5494,2.5674,2.5921,2.619,2.6823,2.7363,2.6948,2.7585,2.8391,2.8012,2.8183,2.8583,2.9006,2.9266,2.947,2.9509,2.9864,3.0189,3.0189,3.0359,3.0654,3.1179,3.1507,3.1841,3.2317,3.2687,3.2963,3.307,3.3101,3.318,3.3364,3.3393,3.3393,3.3393,3.3452,3.3633,3.3959,3.4225,3.4529,3.486,3.5081,3.5201,3.5209,3.532,3.5405,3.5405,3.5592,3.5702,3.5703,3.5834,3.5906,3.5901,3.5909,3.5799,1.822,0.0,0.0,0.0,0.0,0.0,2.2172,2.3034,2.3755,2.3739,2.4455,2.5196,2.5688,2.6647,2.7604,2.8268,2.9179,2.9853,2.9968,3.0625,3.1142,3.1276,3.1579,3.18,3.18,3.18,3.18,3.18,3.18,3.18,3.18,3.18,3.1635,3.1315,3.1162,3.0629,2.9651,2.9579,2.9182,2.846,2.8517,2.8493,2.8411,2.8411,2.8411,2.8411,2.8411,2.8162,2.7795,2.821,2.8122,2.768,2.7133,2.6587,2.6069,2.5467,2.5202,2.5131,2.5131,2.5369,2.5647,2.5921,2.6297,2.6707,2.7104,2.7463,2.7735,2.7864,2.8183,2.8583,2.9006,2.8943,2.8904,2.938,2.97,2.9979,3.0167,3.0359,3.063,3.1015,3.143,3.1805,3.2197,3.2703,3.3055,3.3086,3.3226,3.3334,3.3393,3.3393,3.3393,3.3393,3.3408,3.3495,3.3633,3.3839,3.4128,3.4518,3.4764,3.5,3.5201,3.5242,3.5297,3.5405,3.5507,3.5601,3.5693,3.5829,3.5909,3.5901,3.5897,3.5824,0.0,0.0,0.0,0.0,0.0,0.0,2.1942,2.2851,2.3699,2.3788,2.4159,2.4627,2.5151,2.5901,2.6712,2.7551,2.8465,2.9251,2.9739,3.0398,3.0908,3.1083,3.1643,3.1939,3.1799,3.2076,3.2127,3.1817,3.18,3.18,3.18,3.1598,3.1372,3.1103,3.0945,3.0402,2.9489,2.9512,2.9182,2.8493,2.8517,2.8468,2.8411,2.8411,2.8411,2.8411,2.8411,2.8073,2.754,2.787,2.782,2.7464,2.6912,2.6508,2.6136,2.53,2.5005,2.5005,2.5005,2.5131,2.5369,2.5771,2.6123,2.651,2.7181,2.7401,2.7463,2.7805,2.8183,2.8535,2.8803,2.8803,2.8811,2.902,2.9387,2.9744,2.9979,3.0194,3.0464,3.0753,3.112,3.1507,3.1858,3.2283,3.267,3.2848,3.293,3.3024,3.3241,3.3193,3.3208,3.3378,3.3393,3.3422,3.3477,3.3684,3.3906,3.4213,3.4548,3.4812,3.5018,3.5107,3.5201,3.5312,3.5409,3.5535,3.571,3.5839,3.5895,3.5908,3.5847,3.5768,0.0,1.9053,0.0,0.0,2.0501,0.0,2.1904,2.3004,2.4134,2.4515,2.4524,2.4555,2.4822,2.5253,2.5871,2.6823,2.7608,2.8478,2.9559,3.014,3.0576,3.1006,3.1749,3.2153,3.1981,3.2483,3.2571,3.1972,3.1797,3.1727,3.1727,3.1278,3.1024,3.0965,3.0605,3.014,2.9522,2.94,2.9097,2.8589,2.8468,2.8396,2.8411,2.8411,2.8411,2.8411,2.8411,2.8008,2.7414,2.7489,2.7515,2.7439,2.6834,2.6666,2.6573,2.5425,2.5005,2.5005,2.5005,2.5005,2.509,2.5674,2.6096,2.6525,2.7155,2.731,2.7372,2.779,2.8085,2.8343,2.8511,2.8779,2.8897,2.8669,2.9067,2.956,2.9766,3.0,3.0253,3.0426,3.0753,3.1095,3.1389,3.1728,3.2073,3.2488,3.2437,3.2538,3.3039,3.2941,3.2972,3.3364,3.3393,3.3422,3.3495,3.3643,3.3813,3.3967,3.4348,3.4622,3.4773,3.4992,3.5127,3.5193,3.5335,3.5512,3.5703,3.5822,3.5898,3.5899,3.5781,3.5687,1.7556,1.8212,1.908,2.0041,2.0278,0.0,2.1709,2.2536,2.3098,2.3243,2.4126,2.4826,2.4635,2.5301,2.5961,2.6167,2.7276,2.8372,2.9136,2.9633,3.0158,3.0794,3.1341,3.2013,3.2927,3.2591,3.2429,3.2659,3.179,3.1237,3.1237,3.0828,3.0439,3.0075,2.9968,2.9611,2.8967,2.899,2.8803,2.8444,2.8517,2.8517,2.8411,2.8411,2.8411,2.8411,2.8411,2.781,2.6886,2.7323,2.7515,2.7414,2.6416,2.631,2.6573,2.5425,2.5005,2.5005,2.5005,2.5005,2.5061,2.5453,2.5619,2.5853,2.6747,2.6759,2.6707,2.7625,2.7545,2.7423,2.8661,2.8574,2.8328,2.9113,2.9403,2.956,2.9766,3.0,3.021,3.0253,3.0671,3.1015,3.1095,3.1674,3.2179,3.2266,3.2573,3.285,3.307,3.307,3.3132,3.3364,3.3393,3.3411,3.3408,3.3466,3.3583,3.3808,3.4123,3.4401,3.4632,3.4936,3.5101,3.5119,3.5355,3.5549,3.5705,3.5839,3.5897,3.5906,3.5862,3.5837,1.776,1.8251,1.8932,1.9483,1.9698,0.0,0.0,2.2068,2.2706,2.2871,2.3808,2.4518,2.4258,2.479,2.5431,2.5922,2.6594,2.7306,2.8003,2.921,3.0202,3.0723,3.1662,3.2428,3.2856,3.2932,3.2739,3.2249,3.1328,3.0804,3.0804,3.0393,3.0032,2.981,2.9506,2.9182,2.8858,2.8771,2.8653,2.8493,2.8493,2.8468,2.8411,2.8411,2.8411,2.8411,2.8411,2.7745,2.6704,2.699,2.7093,2.703,2.6217,2.6244,2.6573,2.5425,2.5005,2.5005,2.5005,2.5005,2.5075,2.5383,2.5494,2.5647,2.6457,2.6654,2.6771,2.765,2.7615,2.757,2.855,2.8646,2.8583,2.8912,2.9152,2.9357,2.9589,2.9832,3.0044,3.0167,3.0506,3.0797,3.0975,3.1468,3.1894,3.2038,3.2318,3.2622,3.2945,3.2914,3.2993,3.3364,3.3393,3.3393,3.3393,3.3393,3.3462,3.3592,3.3915,3.4191,3.4383,3.4761,3.4993,3.5092,3.535,3.5535,3.5597,3.5803,3.5906,3.5895,3.5877,3.579,1.8199,1.848,1.8819,1.9073,1.9475,2.0046,0.0,0.0,0.0,2.2812,2.3446,2.3933,2.396,2.4243,2.4748,2.5654,2.5834,2.604,2.6637,2.836,2.9809,3.0591,3.175,3.2545,3.2794,3.3096,3.28,3.1571,3.0674,3.0224,3.0356,2.9924,2.9677,2.9677,2.9182,2.8943,2.8904,2.874,2.8636,2.8597,2.8468,2.8411,2.8411,2.8411,2.8411,2.8387,2.8275,2.7645,2.6678,2.6587,2.6561,2.6481,2.5934,2.6136,2.6573,2.5425,2.5005,2.5005,2.5005,2.5005,2.5033,2.5313,2.5592,2.5893,2.6324,2.6759,2.7195,2.775,2.7864,2.7929,2.8463,2.8803,2.892,2.8669,2.885,2.9167,2.9425,2.9655,2.9875,3.0146,3.0359,3.0589,3.0855,3.1252,3.1579,3.1821,3.2002,3.2301,3.2868,3.2737,3.2802,3.3334,3.3393,3.3393,3.3393,3.3393,3.3393,3.3393,3.378,3.4049,3.4161,3.4583,3.4917,3.5111,3.535,3.5501,3.5501,3.5764,3.59,3.5898,3.5845,3.5745,1.8215,1.8266,1.8382,2.0534,2.0454,2.0209,2.1705,0.0,2.1693,2.2702,0.0,2.3202,2.4074,0.0,0.0,2.5037,2.5219,2.5334,2.54,2.6386,2.7896,3.0012,3.0409,3.1414,3.3704,3.2646,3.1741,3.1527,2.9938,2.9258,2.9848,2.9432,2.9167,2.9167,2.9121,2.9013,2.8904,2.8811,2.8708,2.8597,2.8468,2.8411,2.8411,2.8411,2.8411,2.8372,2.782,2.7261,2.6651,2.619,2.5988,2.5934,2.5328,2.5769,2.6573,2.5425,2.5005,2.5005,2.5005,2.5005,2.5005,2.5033,2.5892,2.6846,2.6428,2.7016,2.7799,2.7889,2.7695,2.77,2.8756,2.8803,2.8646,2.8959,2.9075,2.9167,2.9425,2.9655,2.9875,3.0146,3.0359,3.051,3.0568,3.1078,3.156,3.1712,3.1948,3.2335,3.2993,3.2802,3.2802,3.3334,3.3393,3.3393,3.3393,3.3393,3.3393,3.3393,3.378,3.4011,3.4023,3.4577,3.4964,3.5092,3.535,3.5501,3.5501,3.5764,3.5899,3.5901,3.5897,3.5773,1.834,1.8685,1.9107,1.9871,2.0158,2.0446,2.1121,2.1316,2.1414,2.1531,0.0,0.0,0.0,0.0,0.0,0.0,2.4,2.4203,2.4204,2.4783,2.6075,2.8485,2.8885,2.9652,3.1374,3.0332,3.0061,3.1234,2.9506,2.8866,2.9984,2.9435,2.9098,2.9098,2.9013,2.8967,2.8904,2.8763,2.866,2.8597,2.8107,2.8073,2.8372,2.771,2.7785,2.8348,2.7429,2.6912,2.6651,2.6109,2.5893,2.5839,2.523,2.5522,2.6136,2.53,2.5005,2.5005,2.5005,2.5005,2.5033,2.5229,2.5702,2.619,2.6256,2.6613,2.7093,2.7725,2.7805,2.7919,2.885,2.8982,2.8897,2.9052,2.9098,2.9121,2.9236,2.9544,2.9832,2.9957,3.0258,3.0506,3.0506,3.1058,3.1523,3.1581,3.1875,3.2301,3.2898,3.277,3.2802,3.3334,3.3393,3.3393,3.3393,3.3393,3.3393,3.3393,3.378,3.4099,3.434,3.4668,3.4888,3.4992,3.5285,3.5464,3.5501,3.573,3.5866,3.5903,3.5897,3.5793,1.9132,1.9453,1.9785,1.9913,2.0294,2.0687,2.0976,2.1103,2.1115,2.0887,2.1587,0.0,0.0,0.0,2.2416,2.2557,0.0,2.2855,2.2826,2.31,2.4288,2.6984,2.769,2.8299,2.9067,2.8163,2.8356,3.035,2.8731,2.832,2.9817,2.9382,2.9098,2.9098,2.9013,2.8943,2.8943,2.859,2.8414,2.8398,2.764,2.7504,2.7925,2.7082,2.7159,2.7885,2.6901,2.6481,2.6428,2.5879,2.5647,2.5619,2.5174,2.5286,2.5591,2.5174,2.5005,2.5005,2.5005,2.5005,2.509,2.5605,2.5771,2.588,2.6445,2.6654,2.6901,2.7675,2.7987,2.8231,2.892,2.9098,2.9098,2.9098,2.9098,2.9121,2.919,2.9493,2.9744,2.9788,3.0135,3.0422,3.0422,3.0938,3.1408,3.1542,3.1746,3.2126,3.285,3.267,3.2685,3.3334,3.3393,3.3393,3.3393,3.3393,3.3422,3.3481,3.382,3.4161,3.4506,3.4697,3.481,3.487,3.5168,3.5371,3.547,3.5644,3.5776,3.5892,3.5909,3.5817,2.0932,2.0517,2.0098,2.1689,2.1338,2.0887,2.1909,2.1368,2.0779,2.1272,2.0995,2.0819,2.1241,2.1341,2.1509,2.1952,2.1557,0.0,0.0,2.1255,2.2528,2.585,2.7104,2.7725,2.7765,2.673,2.6788,2.8567,2.7348,2.7313,2.9044,2.9114,2.9098,2.9098,2.9098,2.9075,2.9075,2.8304,2.7923,2.7898,2.7119,2.673,2.6756,2.6704,2.6704,2.6704,2.6163,2.5921,2.5893,2.5286,2.5033,2.5033,2.5005,2.5005,2.5033,2.5005,2.5005,2.5005,2.5005,2.5005,2.5174,2.6163,2.6457,2.6563,2.7181,2.7595,2.7849,2.7898,2.8183,2.8574,2.8982,2.9098,2.9098,2.9098,2.9098,2.9167,2.9425,2.9493,2.956,2.975,3.0022,3.021,3.021,3.0671,3.1176,3.1638,3.1428,3.1674,3.2928,3.2518,3.2452,3.3319,3.3393,3.3393,3.3393,3.3393,3.3495,3.3671,3.3881,3.4099,3.4293,3.4634,3.4798,3.4798,3.4991,3.52,3.5405,3.5469,3.564,3.5892,3.5892,3.5859,2.0596,2.074,2.0925,2.1362,2.1559,2.1753,2.2113,2.1921,2.1608,2.144,2.126,2.106,2.086,2.0539,2.0367,2.0533,2.0617,2.0707,0.0,2.0939,2.1444,2.2254,2.4063,2.52,2.5066,2.5024,2.594,2.8229,2.7484,2.7628,2.934,2.921,2.8982,2.8716,2.8943,2.8982,2.8693,2.8383,2.7978,2.7485,2.6782,2.6534,2.6678,2.5919,2.5973,2.6651,2.5701,2.5536,2.5839,2.5258,2.5005,2.5005,2.5005,2.5005,2.5005,2.5005,2.5005,2.5005,2.5005,2.5159,2.5453,2.6258,2.6628,2.6837,2.7284,2.7635,2.7898,2.7898,2.8183,2.8583,2.9006,2.9098,2.9098,2.9098,2.9098,2.9121,2.9213,2.9357,2.9515,2.9605,2.9913,3.0189,3.0189,3.0651,3.1134,3.1506,3.1691,3.2037,3.2705,3.2453,3.2487,3.3132,3.3211,3.3256,3.3378,3.3393,3.3495,3.3684,3.3881,3.4086,3.4293,3.4528,3.4697,3.4788,3.4917,3.5066,3.5277,3.5425,3.559,3.5763,3.586,3.5859,2.1014,2.1322,2.1631,2.1506,2.172,2.1909,2.1909,2.1753,2.1524,2.1199,2.0971,2.0779,2.0622,1.9997,1.9591,1.9772,1.9885,2.0032,0.0,2.0444,2.0578,2.041,2.2038,2.3103,2.3032,2.3703,2.4911,2.6807,2.6574,2.6926,2.8251,2.8341,2.8217,2.7965,2.8426,2.8535,2.8295,2.8002,2.7565,2.7004,2.6351,2.6055,2.6081,2.5314,2.5398,2.6054,2.5314,2.523,2.5564,2.5174,2.5005,2.5005,2.5005,2.5005,2.5005,2.5005,2.5005,2.5005,2.5131,2.5313,2.5647,2.6563,2.6771,2.6823,2.756,2.783,2.7938,2.8085,2.8415,2.8764,2.9029,2.9098,2.9098,2.9098,2.9098,2.9098,2.9098,2.9328,2.9493,2.9493,2.9886,3.0189,3.0189,3.0736,3.1252,3.1483,3.1727,3.2055,3.2539,3.2403,3.2471,3.2977,3.307,3.318,3.3378,3.3393,3.3452,3.3591,3.3842,3.4061,3.4185,3.4495,3.4697,3.4788,3.487,3.4997,3.5208,3.5392,3.5543,3.5693,3.5841,3.5873]}]]